Time,TemperatureF,DewpointF,PressureIn,WindDirection,WindDirectionDegrees,WindSpeedMPH,WindSpeedGustMPH,Humidity,HourlyPrecipIn,Conditions,Clouds,dailyrainin,SoftwareType,DateUTC
2013-06-02 00:00:00,70.6,67.8,29.88,SW,230,9.0,19.5,91,0.00,,,0.00,VWS V14.01,2013-06-02 04:00:00,
2013-06-02 00:01:00,70.6,67.8,29.88,SW,228,12.0,13.5,91,0.00,,,0.00,VWS V14.01,2013-06-02 04:01:00,
2013-06-02 00:02:00,70.6,67.8,29.88,SW,223,6.0,13.5,91,0.00,,,0.00,VWS V14.01,2013-06-02 04:02:00,
2013-06-02 00:03:00,70.6,67.8,29.88,WSW,253,9.0,13.5,91,0.00,,,0.00,VWS V14.01,2013-06-02 04:03:00,
2013-06-02 00:04:00,70.6,67.8,29.88,WSW,254,9.0,15.0,91,0.00,,,0.00,VWS V14.01,2013-06-02 04:04:00,
2013-06-02 00:05:00,70.6,67.8,29.88,SW,230,10.5,12.0,91,0.00,,,0.00,VWS V14.01,2013-06-02 04:05:00,
2013-06-02 00:06:00,70.6,67.8,29.88,West,267,10.5,12.0,91,0.00,,,0.00,VWS V14.01,2013-06-02 04:06:00,
2013-06-02 00:07:00,70.5,67.8,29.88,WSW,251,10.5,16.5,91,0.00,,,0.00,VWS V14.01,2013-06-02 04:07:00,
2013-06-02 00:08:00,70.5,67.8,29.88,SW,222,10.5,12.0,91,0.00,,,0.00,VWS V14.01,2013-06-02 04:08:00,
2013-06-02 00:09:00,70.5,67.8,29.88,West,262,13.5,18.0,91,0.00,,,0.00,VWS V14.01,2013-06-02 04:09:00,
2013-06-02 00:10:00,70.5,67.8,29.88,SW,220,12.0,16.5,91,0.00,,,0.00,VWS V14.01,2013-06-02 04:10:00,
2013-06-02 00:11:00,70.5,67.8,29.88,WSW,240,15.0,15.0,91,0.00,,,0.00,VWS V14.01,2013-06-02 04:11:00,
2013-06-02 00:12:00,70.5,67.8,29.88,WSW,246,12.0,16.5,91,0.00,,,0.00,VWS V14.01,2013-06-02 04:12:00,
2013-06-02 00:13:00,70.5,67.8,29.88,SW,234,7.5,12.0,91,0.00,,,0.00,VWS V14.01,2013-06-02 04:13:00,
2013-06-02 00:14:00,70.5,67.8,29.88,SW,223,12.0,13.5,91,0.00,,,0.00,VWS V14.01,2013-06-02 04:14:00,
2013-06-02 00:15:00,70.5,67.8,29.88,WSW,244,12.0,12.0,91,0.00,,,0.00,VWS V14.01,2013-06-02 04:15:00,
2013-06-02 00:16:00,70.5,67.8,29.88,West,262,9.0,9.0,91,0.00,,,0.00,VWS V14.01,2013-06-02 04:16:00,
2013-06-02 00:17:00,70.5,67.8,29.88,SW,223,7.5,15.0,91,0.00,,,0.00,VWS V14.01,2013-06-02 04:17:00,
2013-06-02 00:18:00,70.5,67.8,29.88,WSW,237,9.0,10.5,91,0.00,,,0.00,VWS V14.01,2013-06-02 04:18:00,
2013-06-02 00:19:00,70.5,67.8,29.88,SW,227,12.0,16.5,91,0.00,,,0.00,VWS V14.01,2013-06-02 04:19:00,
2013-06-02 00:20:00,70.5,67.8,29.88,WSW,255,10.5,13.5,91,0.00,,,0.00,VWS V14.01,2013-06-02 04:20:00,
2013-06-02 00:21:00,70.5,67.8,29.89,WSW,237,10.5,13.5,91,0.00,,,0.00,VWS V14.01,2013-06-02 04:21:00,
2013-06-02 00:22:00,70.4,67.7,29.89,SW,215,12.0,13.5,91,0.00,,,0.00,VWS V14.01,2013-06-02 04:22:00,
2013-06-02 00:23:00,70.4,67.7,29.89,SW,231,13.5,15.0,91,0.00,,,0.00,VWS V14.01,2013-06-02 04:23:00,
2013-06-02 00:24:00,70.4,67.7,29.88,West,269,9.0,13.5,91,0.00,,,0.00,VWS V14.01,2013-06-02 04:24:00,
2013-06-02 00:25:00,70.4,67.7,29.89,WSW,239,9.0,13.5,91,0.00,,,0.00,VWS V14.01,2013-06-02 04:25:00,
2013-06-02 00:26:00,70.4,68.0,29.89,SSW,208,12.0,12.0,92,0.00,,,0.00,VWS V14.01,2013-06-02 04:26:00,
2013-06-02 00:27:00,70.4,68.0,29.89,WSW,241,10.5,16.5,92,0.00,,,0.00,VWS V14.01,2013-06-02 04:27:00,
2013-06-02 00:28:00,70.4,68.0,29.89,West,262,6.0,13.5,92,0.00,,,0.00,VWS V14.01,2013-06-02 04:28:00,
2013-06-02 00:29:00,70.4,68.0,29.88,WSW,237,15.0,15.0,92,0.00,,,0.00,VWS V14.01,2013-06-02 04:29:00,
2013-06-02 00:30:00,70.4,68.0,29.88,SW,233,9.0,15.0,92,0.00,,,0.00,VWS V14.01,2013-06-02 04:30:00,
2013-06-02 00:31:00,70.4,68.0,29.88,West,264,6.0,6.0,92,0.00,,,0.00,VWS V14.01,2013-06-02 04:31:00,
2013-06-02 00:32:00,70.4,68.0,29.88,SW,223,9.0,12.0,92,0.00,,,0.00,VWS V14.01,2013-06-02 04:32:00,
2013-06-02 00:33:00,70.4,68.0,29.88,WSW,239,6.0,13.5,92,0.00,,,0.00,VWS V14.01,2013-06-02 04:33:00,
2013-06-02 00:34:00,70.4,68.0,29.88,WSW,252,10.5,10.5,92,0.00,,,0.00,VWS V14.01,2013-06-02 04:34:00,
2013-06-02 00:35:00,70.4,68.0,29.88,WSW,250,10.5,12.0,92,0.00,,,0.00,VWS V14.01,2013-06-02 04:35:00,
2013-06-02 00:36:00,70.4,68.0,29.88,WSW,257,7.5,7.5,92,0.00,,,0.00,VWS V14.01,2013-06-02 04:36:00,
2013-06-02 00:37:00,70.3,67.9,29.88,WSW,255,9.0,13.5,92,0.00,,,0.00,VWS V14.01,2013-06-02 04:37:00,
2013-06-02 00:38:00,70.3,67.9,29.88,SSW,212,10.5,13.5,92,0.00,,,0.00,VWS V14.01,2013-06-02 04:38:00,
2013-06-02 00:39:00,70.3,67.9,29.88,West,261,7.5,13.5,92,0.00,,,0.00,VWS V14.01,2013-06-02 04:39:00,
2013-06-02 00:40:00,70.3,67.9,29.88,WSW,257,9.0,10.5,92,0.00,,,0.00,VWS V14.01,2013-06-02 04:40:00,
2013-06-02 00:41:00,70.3,67.9,29.88,WSW,244,7.5,7.5,92,0.00,,,0.00,VWS V14.01,2013-06-02 04:41:00,
2013-06-02 00:42:00,70.3,67.9,29.88,WSW,248,9.0,10.5,92,0.00,,,0.00,VWS V14.01,2013-06-02 04:42:00,
2013-06-02 00:43:00,70.3,67.9,29.88,SW,216,10.5,10.5,92,0.00,,,0.00,VWS V14.01,2013-06-02 04:43:00,
2013-06-02 00:44:00,70.2,67.8,29.88,SW,217,9.0,12.0,92,0.00,,,0.00,VWS V14.01,2013-06-02 04:44:00,
2013-06-02 00:45:00,70.2,67.8,29.88,SW,220,12.0,13.5,92,0.00,,,0.00,VWS V14.01,2013-06-02 04:45:00,
2013-06-02 00:46:00,70.2,67.8,29.88,WSW,252,13.5,13.5,92,0.00,,,0.00,VWS V14.01,2013-06-02 04:46:00,
2013-06-02 00:47:00,70.2,67.8,29.88,SSW,208,7.5,13.5,92,0.00,,,0.00,VWS V14.01,2013-06-02 04:47:00,
2013-06-02 00:48:00,70.2,67.8,29.88,West,277,6.0,10.5,92,0.00,,,0.00,VWS V14.01,2013-06-02 04:48:00,
2013-06-02 00:49:00,70.1,67.7,29.88,WSW,248,7.5,10.5,92,0.00,,,0.00,VWS V14.01,2013-06-02 04:49:00,
2013-06-02 00:50:00,70.1,67.7,29.88,SW,232,12.0,16.5,92,0.00,,,0.00,VWS V14.01,2013-06-02 04:50:00,
2013-06-02 00:51:00,70.1,67.7,29.88,WSW,255,10.5,10.5,92,0.00,,,0.00,VWS V14.01,2013-06-02 04:51:00,
2013-06-02 00:52:00,70.1,67.7,29.88,WSW,253,9.0,12.0,92,0.00,,,0.00,VWS V14.01,2013-06-02 04:52:00,
2013-06-02 00:53:00,70.1,67.7,29.88,SW,234,6.0,10.5,92,0.00,,,0.00,VWS V14.01,2013-06-02 04:53:00,
2013-06-02 00:54:00,70.1,67.7,29.88,SW,219,9.0,10.5,92,0.00,,,0.00,VWS V14.01,2013-06-02 04:54:00,
2013-06-02 00:55:00,70.0,67.6,29.88,WSW,239,10.5,13.5,92,0.00,,,0.00,VWS V14.01,2013-06-02 04:55:00,
2013-06-02 00:56:00,70.0,67.6,29.88,WSW,257,7.5,9.0,92,0.00,,,0.00,VWS V14.01,2013-06-02 04:56:00,
2013-06-02 00:57:00,70.0,67.6,29.88,WSW,248,7.5,9.0,92,0.00,,,0.00,VWS V14.01,2013-06-02 04:57:00,
2013-06-02 00:58:00,70.0,67.6,29.88,SW,219,7.5,9.0,92,0.00,,,0.00,VWS V14.01,2013-06-02 04:58:00,
2013-06-02 00:59:00,69.9,67.5,29.88,WSW,258,4.5,9.0,92,0.00,,,0.00,VWS V14.01,2013-06-02 04:59:00,
2013-06-02 01:00:00,69.9,67.5,29.88,West,267,12.0,12.0,92,0.00,,,0.00,VWS V14.01,2013-06-02 05:00:00,
2013-06-02 01:01:00,69.9,67.5,29.88,WSW,258,9.0,9.0,92,0.00,,,0.00,VWS V14.01,2013-06-02 05:01:00,
2013-06-02 01:02:00,69.9,67.5,29.88,WSW,241,7.5,9.0,92,0.00,,,0.00,VWS V14.01,2013-06-02 05:02:00,
2013-06-02 01:03:00,69.8,67.4,29.88,West,262,6.0,13.5,92,0.00,,,0.00,VWS V14.01,2013-06-02 05:03:00,
2013-06-02 01:04:00,69.8,67.4,29.88,WSW,244,7.5,10.5,92,0.00,,,0.00,VWS V14.01,2013-06-02 05:04:00,
2013-06-02 01:05:00,69.8,67.4,29.88,WSW,247,4.5,9.0,92,0.00,,,0.00,VWS V14.01,2013-06-02 05:05:00,
2013-06-02 01:06:00,69.8,67.4,29.88,West,265,4.5,6.0,92,0.00,,,0.00,VWS V14.01,2013-06-02 05:06:00,
2013-06-02 01:07:00,69.7,67.3,29.88,SW,233,6.0,7.5,92,0.00,,,0.00,VWS V14.01,2013-06-02 05:07:00,
2013-06-02 01:08:00,69.7,67.3,29.88,WSW,254,7.5,10.5,92,0.00,,,0.00,VWS V14.01,2013-06-02 05:08:00,
2013-06-02 01:09:00,69.7,67.6,29.88,WSW,241,6.0,12.0,93,0.00,,,0.00,VWS V14.01,2013-06-02 05:09:00,
2013-06-02 01:10:00,69.6,67.5,29.88,West,268,6.0,10.5,93,0.00,,,0.00,VWS V14.01,2013-06-02 05:10:00,
2013-06-02 01:11:00,69.6,67.5,29.88,West,268,6.0,10.5,93,0.00,,,0.00,VWS V14.01,2013-06-02 05:11:00,
2013-06-02 01:12:00,69.6,67.5,29.88,West,261,7.5,9.0,93,0.00,,,0.00,VWS V14.01,2013-06-02 05:12:00,
2013-06-02 01:13:00,69.6,67.5,29.88,WSW,240,9.0,10.5,93,0.00,,,0.00,VWS V14.01,2013-06-02 05:13:00,
2013-06-02 01:14:00,69.6,67.5,29.88,WSW,237,9.0,10.5,93,0.00,,,0.00,VWS V14.01,2013-06-02 05:14:00,
2013-06-02 01:15:00,69.6,67.5,29.88,WSW,257,7.5,12.0,93,0.00,,,0.00,VWS V14.01,2013-06-02 05:15:00,
2013-06-02 01:16:00,69.6,67.5,29.88,WSW,257,7.5,12.0,93,0.00,,,0.00,VWS V14.01,2013-06-02 05:16:00,
2013-06-02 01:17:00,69.6,67.5,29.88,West,264,10.5,10.5,93,0.00,,,0.00,VWS V14.01,2013-06-02 05:17:00,
2013-06-02 01:18:00,69.6,67.5,29.89,West,260,6.0,12.0,93,0.00,,,0.00,VWS V14.01,2013-06-02 05:18:00,
2013-06-02 01:19:00,69.6,67.5,29.89,SSW,203,9.0,15.0,93,0.00,,,0.00,VWS V14.01,2013-06-02 05:19:00,
2013-06-02 01:20:00,69.6,67.5,29.89,WSW,248,10.5,13.5,93,0.00,,,0.00,VWS V14.01,2013-06-02 05:20:00,
2013-06-02 01:21:00,69.6,67.5,29.88,WSW,244,10.5,13.5,93,0.00,,,0.00,VWS V14.01,2013-06-02 05:21:00,
2013-06-02 01:22:00,69.6,67.5,29.89,WSW,244,15.0,16.5,93,0.00,,,0.00,VWS V14.01,2013-06-02 05:22:00,
2013-06-02 01:23:00,69.6,67.5,29.89,WSW,257,9.0,15.0,93,0.00,,,0.00,VWS V14.01,2013-06-02 05:23:00,
2013-06-02 01:24:00,69.6,67.5,29.89,SW,220,13.5,16.5,93,0.00,,,0.00,VWS V14.01,2013-06-02 05:24:00,
2013-06-02 01:25:00,69.5,67.1,29.89,SSW,198,7.5,16.5,92,0.00,,,0.00,VWS V14.01,2013-06-02 05:25:00,
2013-06-02 01:26:00,69.5,67.1,29.89,SW,221,6.0,16.5,92,0.00,,,0.00,VWS V14.01,2013-06-02 05:26:00,
2013-06-02 01:27:00,69.6,67.2,29.88,SW,219,7.5,12.0,92,0.00,,,0.00,VWS V14.01,2013-06-02 05:27:00,
2013-06-02 01:28:00,69.5,67.1,29.88,SW,220,9.0,9.0,92,0.00,,,0.00,VWS V14.01,2013-06-02 05:28:00,
2013-06-02 01:29:00,69.5,67.1,29.88,WSW,250,3.0,9.0,92,0.00,,,0.00,VWS V14.01,2013-06-02 05:29:00,
2013-06-02 01:30:00,69.4,67.0,29.88,WSW,257,9.0,12.0,92,0.00,,,0.00,VWS V14.01,2013-06-02 05:30:00,
2013-06-02 01:31:00,69.4,67.0,29.88,WSW,237,7.5,12.0,92,0.00,,,0.00,VWS V14.01,2013-06-02 05:31:00,
2013-06-02 01:32:00,69.4,67.0,29.88,WSW,254,4.5,12.0,92,0.00,,,0.00,VWS V14.01,2013-06-02 05:32:00,
2013-06-02 01:33:00,69.4,67.0,29.88,WNW,285,7.5,9.0,92,0.00,,,0.00,VWS V14.01,2013-06-02 05:33:00,
2013-06-02 01:34:00,69.4,67.3,29.88,West,274,4.5,12.0,93,0.00,,,0.00,VWS V14.01,2013-06-02 05:34:00,
2013-06-02 01:35:00,69.4,67.3,29.88,WSW,252,4.5,10.5,93,0.00,,,0.00,VWS V14.01,2013-06-02 05:35:00,
2013-06-02 01:36:00,69.4,67.0,29.88,WSW,252,4.5,10.5,92,0.00,,,0.00,VWS V14.01,2013-06-02 05:36:00,
2013-06-02 01:37:00,69.4,67.3,29.88,SW,220,6.0,7.5,93,0.00,,,0.00,VWS V14.01,2013-06-02 05:37:00,
2013-06-02 01:38:00,69.3,67.2,29.88,West,260,4.5,6.0,93,0.00,,,0.00,VWS V14.01,2013-06-02 05:38:00,
2013-06-02 01:39:00,69.3,67.2,29.88,WSW,237,3.0,4.5,93,0.00,,,0.00,VWS V14.01,2013-06-02 05:39:00,
2013-06-02 01:40:00,69.2,66.8,29.88,WSW,250,6.0,6.0,92,0.00,,,0.00,VWS V14.01,2013-06-02 05:40:00,
2013-06-02 01:41:00,69.2,66.8,29.88,WSW,246,6.0,6.0,92,0.00,,,0.00,VWS V14.01,2013-06-02 05:41:00,
2013-06-02 01:42:00,69.2,67.1,29.88,SW,220,6.0,7.5,93,0.00,,,0.00,VWS V14.01,2013-06-02 05:42:00,
2013-06-02 01:43:00,69.2,67.1,29.88,West,260,6.0,7.5,93,0.00,,,0.00,VWS V14.01,2013-06-02 05:43:00,
2013-06-02 01:44:00,69.1,67.0,29.88,SW,223,6.0,7.5,93,0.00,,,0.00,VWS V14.01,2013-06-02 05:44:00,
2013-06-02 01:45:00,69.1,67.0,29.88,WSW,255,4.5,9.0,93,0.00,,,0.00,VWS V14.01,2013-06-02 05:45:00,
2013-06-02 01:46:00,69.1,67.0,29.88,WSW,255,4.5,9.0,93,0.00,,,0.00,VWS V14.01,2013-06-02 05:46:00,
2013-06-02 01:47:00,69.1,66.7,29.88,West,276,12.0,12.0,92,0.00,,,0.00,VWS V14.01,2013-06-02 05:47:00,
2013-06-02 01:48:00,69.1,66.7,29.88,WSW,253,4.5,12.0,92,0.00,,,0.00,VWS V14.01,2013-06-02 05:48:00,
2013-06-02 01:49:00,69.1,66.7,29.88,WSW,248,4.5,7.5,92,0.00,,,0.00,VWS V14.01,2013-06-02 05:49:00,
2013-06-02 01:50:00,69.0,66.6,29.88,SW,222,6.0,7.5,92,0.00,,,0.00,VWS V14.01,2013-06-02 05:50:00,
2013-06-02 01:51:00,69.1,66.7,29.88,SW,229,6.0,7.5,92,0.00,,,0.00,VWS V14.01,2013-06-02 05:51:00,
2013-06-02 01:52:00,69.0,66.6,29.88,SW,223,7.5,7.5,92,0.00,,,0.00,VWS V14.01,2013-06-02 05:52:00,
2013-06-02 01:53:00,69.0,66.6,29.88,WSW,250,6.0,9.0,92,0.00,,,0.00,VWS V14.01,2013-06-02 05:53:00,
2013-06-02 01:54:00,69.0,66.6,29.88,SW,227,10.5,10.5,92,0.00,,,0.00,VWS V14.01,2013-06-02 05:54:00,
2013-06-02 01:55:00,68.9,66.5,29.88,SW,229,1.5,7.5,92,0.00,,,0.00,VWS V14.01,2013-06-02 05:55:00,
2013-06-02 01:56:00,68.9,66.5,29.88,SW,229,1.5,7.5,92,0.00,,,0.00,VWS V14.01,2013-06-02 05:56:00,
2013-06-02 01:57:00,68.9,66.5,29.88,West,272,6.0,6.0,92,0.00,,,0.00,VWS V14.01,2013-06-02 05:57:00,
2013-06-02 01:58:00,68.9,66.5,29.88,SW,223,10.5,10.5,92,0.00,,,0.00,VWS V14.01,2013-06-02 05:58:00,
2013-06-02 01:59:00,68.8,66.4,29.88,WSW,254,6.0,10.5,92,0.00,,,0.00,VWS V14.01,2013-06-02 05:59:00,
2013-06-02 02:00:00,68.8,66.4,29.88,WSW,240,4.5,10.5,92,0.00,,,0.00,VWS V14.01,2013-06-02 06:00:00,
2013-06-02 02:01:00,68.8,66.4,29.88,SSW,210,6.0,10.5,92,0.00,,,0.00,VWS V14.01,2013-06-02 06:01:00,
2013-06-02 02:02:00,68.8,66.4,29.88,WSW,241,6.0,9.0,92,0.00,,,0.00,VWS V14.01,2013-06-02 06:02:00,
2013-06-02 02:03:00,68.8,66.4,29.88,SW,231,4.5,7.5,92,0.00,,,0.00,VWS V14.01,2013-06-02 06:03:00,
2013-06-02 02:04:00,68.8,66.4,29.88,SW,231,7.5,9.0,92,0.00,,,0.00,VWS V14.01,2013-06-02 06:04:00,
2013-06-02 02:05:00,68.7,66.3,29.88,SSW,203,4.5,6.0,92,0.00,,,0.00,VWS V14.01,2013-06-02 06:05:00,
2013-06-02 02:06:00,68.7,66.3,29.88,WSW,243,4.5,6.0,92,0.00,,,0.00,VWS V14.01,2013-06-02 06:06:00,
2013-06-02 02:07:00,68.7,66.3,29.88,WSW,241,4.5,9.0,92,0.00,,,0.00,VWS V14.01,2013-06-02 06:07:00,
2013-06-02 02:08:00,68.7,66.3,29.88,WSW,250,3.0,6.0,92,0.00,,,0.00,VWS V14.01,2013-06-02 06:08:00,
2013-06-02 02:09:00,68.7,66.3,29.88,WSW,250,6.0,7.5,92,0.00,,,0.00,VWS V14.01,2013-06-02 06:09:00,
2013-06-02 02:10:00,68.6,66.2,29.88,WSW,255,6.0,7.5,92,0.00,,,0.00,VWS V14.01,2013-06-02 06:10:00,
2013-06-02 02:11:00,68.6,66.2,29.88,West,265,7.5,7.5,92,0.00,,,0.00,VWS V14.01,2013-06-02 06:11:00,
2013-06-02 02:12:00,68.6,66.2,29.88,WSW,251,7.5,9.0,92,0.00,,,0.00,VWS V14.01,2013-06-02 06:12:00,
2013-06-02 02:13:00,68.6,66.2,29.88,SW,220,6.0,7.5,92,0.00,,,0.00,VWS V14.01,2013-06-02 06:13:00,
2013-06-02 02:14:00,68.6,66.2,29.88,WSW,255,7.5,10.5,92,0.00,,,0.00,VWS V14.01,2013-06-02 06:14:00,
2013-06-02 02:15:00,68.5,66.1,29.88,WSW,237,7.5,10.5,92,0.00,,,0.00,VWS V14.01,2013-06-02 06:15:00,
2013-06-02 02:16:00,68.5,66.1,29.88,WSW,241,10.5,10.5,92,0.00,,,0.00,VWS V14.01,2013-06-02 06:16:00,
2013-06-02 02:17:00,68.5,65.8,29.88,SW,225,6.0,10.5,91,0.00,,,0.00,VWS V14.01,2013-06-02 06:17:00,
2013-06-02 02:18:00,68.5,65.8,29.88,SW,230,4.5,7.5,91,0.00,,,0.00,VWS V14.01,2013-06-02 06:18:00,
2013-06-02 02:19:00,68.5,65.8,29.88,SSW,209,4.5,6.0,91,0.00,,,0.00,VWS V14.01,2013-06-02 06:19:00,
2013-06-02 02:20:00,68.5,65.8,29.88,WSW,246,4.5,7.5,91,0.00,,,0.00,VWS V14.01,2013-06-02 06:20:00,
2013-06-02 02:21:00,68.5,65.8,29.88,SW,217,4.5,7.5,91,0.00,,,0.00,VWS V14.01,2013-06-02 06:21:00,
2013-06-02 02:22:00,68.4,65.7,29.88,SW,232,7.5,7.5,91,0.00,,,0.00,VWS V14.01,2013-06-02 06:22:00,
2013-06-02 02:23:00,68.4,66.0,29.88,SW,234,6.0,9.0,92,0.00,,,0.00,VWS V14.01,2013-06-02 06:23:00,
2013-06-02 02:24:00,68.4,66.0,29.88,WSW,247,4.5,7.5,92,0.00,,,0.00,VWS V14.01,2013-06-02 06:24:00,
2013-06-02 02:25:00,68.3,65.9,29.88,WSW,237,9.0,10.5,92,0.00,,,0.00,VWS V14.01,2013-06-02 06:25:00,
2013-06-02 02:26:00,68.3,65.9,29.88,West,265,7.5,10.5,92,0.00,,,0.00,VWS V14.01,2013-06-02 06:26:00,
2013-06-02 02:27:00,68.3,65.9,29.88,SW,220,3.0,7.5,92,0.00,,,0.00,VWS V14.01,2013-06-02 06:27:00,
2013-06-02 02:28:00,68.3,65.9,29.88,SW,229,4.5,6.0,92,0.00,,,0.00,VWS V14.01,2013-06-02 06:28:00,
2013-06-02 02:29:00,68.2,65.8,29.88,WSW,246,4.5,7.5,92,0.00,,,0.00,VWS V14.01,2013-06-02 06:29:00,
2013-06-02 02:30:00,68.2,65.8,29.88,West,260,4.5,10.5,92,0.00,,,0.00,VWS V14.01,2013-06-02 06:30:00,
2013-06-02 02:31:00,68.2,65.8,29.88,SW,229,7.5,10.5,92,0.00,,,0.00,VWS V14.01,2013-06-02 06:31:00,
2013-06-02 02:32:00,68.1,65.7,29.88,WSW,255,4.5,9.0,92,0.00,,,0.00,VWS V14.01,2013-06-02 06:32:00,
2013-06-02 02:33:00,68.1,65.7,29.88,SW,216,4.5,7.5,92,0.00,,,0.00,VWS V14.01,2013-06-02 06:33:00,
2013-06-02 02:34:00,68.1,65.7,29.88,WSW,250,4.5,6.0,92,0.00,,,0.00,VWS V14.01,2013-06-02 06:34:00,
2013-06-02 02:35:00,68.1,65.7,29.88,WSW,255,4.5,9.0,92,0.00,,,0.00,VWS V14.01,2013-06-02 06:35:00,
2013-06-02 02:36:00,68.1,65.7,29.88,WSW,246,4.5,9.0,92,0.00,,,0.00,VWS V14.01,2013-06-02 06:36:00,
2013-06-02 02:37:00,68.0,65.6,29.88,SSW,213,4.5,7.5,92,0.00,,,0.00,VWS V14.01,2013-06-02 06:37:00,
2013-06-02 02:38:00,68.0,65.6,29.88,WSW,241,4.5,6.0,92,0.00,,,0.00,VWS V14.01,2013-06-02 06:38:00,
2013-06-02 02:39:00,68.0,65.6,29.88,SW,223,6.0,7.5,92,0.00,,,0.00,VWS V14.01,2013-06-02 06:39:00,
2013-06-02 02:40:00,68.0,65.6,29.88,WSW,258,6.0,9.0,92,0.00,,,0.00,VWS V14.01,2013-06-02 06:40:00,
2013-06-02 02:41:00,68.0,65.6,29.88,SW,229,7.5,9.0,92,0.00,,,0.00,VWS V14.01,2013-06-02 06:41:00,
2013-06-02 02:42:00,68.0,65.6,29.88,SW,230,4.5,7.5,92,0.00,,,0.00,VWS V14.01,2013-06-02 06:42:00,
2013-06-02 02:43:00,68.0,65.6,29.88,WSW,258,4.5,6.0,92,0.00,,,0.00,VWS V14.01,2013-06-02 06:43:00,
2013-06-02 02:44:00,68.0,65.6,29.88,SW,223,4.5,6.0,92,0.00,,,0.00,VWS V14.01,2013-06-02 06:44:00,
2013-06-02 02:45:00,68.0,65.6,29.88,West,264,6.0,6.0,92,0.00,,,0.00,VWS V14.01,2013-06-02 06:45:00,
2013-06-02 02:46:00,68.0,65.6,29.88,West,278,9.0,9.0,92,0.00,,,0.00,VWS V14.01,2013-06-02 06:46:00,
2013-06-02 02:47:00,68.0,65.6,29.88,WSW,241,7.5,10.5,92,0.00,,,0.00,VWS V14.01,2013-06-02 06:47:00,
2013-06-02 02:48:00,68.0,65.6,29.88,West,264,4.5,7.5,92,0.00,,,0.00,VWS V14.01,2013-06-02 06:48:00,
2013-06-02 02:49:00,68.0,65.6,29.88,WSW,246,6.0,7.5,92,0.00,,,0.00,VWS V14.01,2013-06-02 06:49:00,
2013-06-02 02:50:00,68.0,65.6,29.88,WSW,240,6.0,6.0,92,0.00,,,0.00,VWS V14.01,2013-06-02 06:50:00,
2013-06-02 02:51:00,68.0,65.6,29.88,WSW,246,4.5,6.0,92,0.00,,,0.00,VWS V14.01,2013-06-02 06:51:00,
2013-06-02 02:52:00,67.9,65.5,29.89,WSW,252,7.5,7.5,92,0.00,,,0.00,VWS V14.01,2013-06-02 06:52:00,
2013-06-02 02:53:00,67.9,65.5,29.89,WSW,240,7.5,9.0,92,0.00,,,0.00,VWS V14.01,2013-06-02 06:53:00,
2013-06-02 02:54:00,67.9,65.5,29.88,WSW,253,9.0,10.5,92,0.00,,,0.00,VWS V14.01,2013-06-02 06:54:00,
2013-06-02 02:55:00,67.9,65.5,29.88,WSW,244,6.0,12.0,92,0.00,,,0.00,VWS V14.01,2013-06-02 06:55:00,
2013-06-02 02:56:00,67.9,65.5,29.88,WSW,247,6.0,12.0,92,0.00,,,0.00,VWS V14.01,2013-06-02 06:56:00,
2013-06-02 02:57:00,68.0,65.6,29.88,WSW,250,9.0,9.0,92,0.00,,,0.00,VWS V14.01,2013-06-02 06:57:00,
2013-06-02 02:58:00,68.0,65.6,29.88,WSW,243,4.5,9.0,92,0.00,,,0.00,VWS V14.01,2013-06-02 06:58:00,
2013-06-02 02:59:00,68.0,65.6,29.89,WSW,241,4.5,6.0,92,0.00,,,0.00,VWS V14.01,2013-06-02 06:59:00,
2013-06-02 03:00:00,68.0,65.6,29.88,SW,236,10.5,10.5,92,0.00,,,0.00,VWS V14.01,2013-06-02 07:00:00,
2013-06-02 03:01:00,68.0,65.6,29.88,WSW,246,9.0,10.5,92,0.00,,,0.00,VWS V14.01,2013-06-02 07:01:00,
2013-06-02 03:02:00,68.0,65.6,29.88,WSW,249,7.5,12.0,92,0.00,,,0.00,VWS V14.01,2013-06-02 07:02:00,
2013-06-02 03:03:00,68.0,65.6,29.88,SW,230,9.0,10.5,92,0.00,,,0.00,VWS V14.01,2013-06-02 07:03:00,
2013-06-02 03:04:00,68.0,65.6,29.88,West,260,9.0,13.5,92,0.00,,,0.00,VWS V14.01,2013-06-02 07:04:00,
2013-06-02 03:05:00,68.0,65.6,29.88,WSW,244,7.5,10.5,92,0.00,,,0.00,VWS V14.01,2013-06-02 07:05:00,
2013-06-02 03:06:00,68.0,65.6,29.88,West,272,4.5,10.5,92,0.00,,,0.00,VWS V14.01,2013-06-02 07:06:00,
2013-06-02 03:07:00,68.0,65.6,29.88,WNW,287,6.0,9.0,92,0.00,,,0.00,VWS V14.01,2013-06-02 07:07:00,
2013-06-02 03:08:00,68.0,65.6,29.88,WSW,252,6.0,12.0,92,0.00,,,0.00,VWS V14.01,2013-06-02 07:08:00,
2013-06-02 03:09:00,68.1,65.7,29.88,West,268,4.5,12.0,92,0.00,,,0.00,VWS V14.01,2013-06-02 07:09:00,
2013-06-02 03:10:00,68.1,65.7,29.88,SW,218,16.5,16.5,92,0.00,,,0.00,VWS V14.01,2013-06-02 07:10:00,
2013-06-02 03:11:00,68.0,65.6,29.88,SW,216,13.5,16.5,92,0.00,,,0.00,VWS V14.01,2013-06-02 07:11:00,
2013-06-02 03:12:00,68.1,65.7,29.88,SW,231,9.0,13.5,92,0.00,,,0.00,VWS V14.01,2013-06-02 07:12:00,
2013-06-02 03:13:00,68.0,65.6,29.88,SW,220,10.5,19.5,92,0.00,,,0.00,VWS V14.01,2013-06-02 07:13:00,
2013-06-02 03:14:00,68.0,65.6,29.88,WSW,243,12.0,18.0,92,0.00,,,0.00,VWS V14.01,2013-06-02 07:14:00,
2013-06-02 03:15:00,68.1,65.7,29.88,SW,223,9.0,9.0,92,0.00,,,0.00,VWS V14.01,2013-06-02 07:15:00,
2013-06-02 03:16:00,68.1,65.7,29.88,WSW,237,16.5,16.5,92,0.00,,,0.00,VWS V14.01,2013-06-02 07:16:00,
2013-06-02 03:17:00,68.0,65.6,29.88,SW,236,13.5,16.5,92,0.00,,,0.00,VWS V14.01,2013-06-02 07:17:00,
2013-06-02 03:18:00,68.1,65.7,29.88,WSW,246,9.0,13.5,92,0.00,,,0.00,VWS V14.01,2013-06-02 07:18:00,
2013-06-02 03:19:00,68.0,65.6,29.88,WSW,241,12.0,13.5,92,0.00,,,0.00,VWS V14.01,2013-06-02 07:19:00,
2013-06-02 03:20:00,68.0,65.6,29.88,SW,229,16.5,16.5,92,0.00,,,0.00,VWS V14.01,2013-06-02 07:20:00,
2013-06-02 03:21:00,68.0,65.6,29.88,SW,225,9.0,16.5,92,0.00,,,0.00,VWS V14.01,2013-06-02 07:21:00,
2013-06-02 03:22:00,68.0,65.6,29.88,SW,216,4.5,12.0,92,0.00,,,0.00,VWS V14.01,2013-06-02 07:22:00,
2013-06-02 03:23:00,68.0,65.6,29.88,West,269,7.5,9.0,92,0.00,,,0.00,VWS V14.01,2013-06-02 07:23:00,
2013-06-02 03:24:00,68.0,65.6,29.88,SW,231,4.5,9.0,92,0.00,,,0.00,VWS V14.01,2013-06-02 07:24:00,
2013-06-02 03:25:00,68.0,65.6,29.88,WSW,257,6.0,9.0,92,0.00,,,0.00,VWS V14.01,2013-06-02 07:25:00,
2013-06-02 03:26:00,68.0,65.6,29.88,SW,223,9.0,9.0,92,0.00,,,0.00,VWS V14.01,2013-06-02 07:26:00,
2013-06-02 03:27:00,68.0,65.6,29.88,WSW,244,9.0,10.5,92,0.00,,,0.00,VWS V14.01,2013-06-02 07:27:00,
2013-06-02 03:28:00,67.9,65.5,29.88,West,264,6.0,9.0,92,0.00,,,0.00,VWS V14.01,2013-06-02 07:28:00,
2013-06-02 03:29:00,67.9,65.5,29.88,SSW,209,4.5,12.0,92,0.00,,,0.00,VWS V14.01,2013-06-02 07:29:00,
2013-06-02 03:30:00,67.9,65.5,29.88,West,272,10.5,12.0,92,0.00,,,0.00,VWS V14.01,2013-06-02 07:30:00,
2013-06-02 03:31:00,67.9,65.5,29.88,WSW,246,9.0,15.0,92,0.00,,,0.00,VWS V14.01,2013-06-02 07:31:00,
2013-06-02 03:32:00,67.9,65.5,29.88,WSW,244,10.5,13.5,92,0.00,,,0.00,VWS V14.01,2013-06-02 07:32:00,
2013-06-02 03:33:00,67.9,65.5,29.88,WSW,241,13.5,13.5,92,0.00,,,0.00,VWS V14.01,2013-06-02 07:33:00,
2013-06-02 03:34:00,67.9,65.5,29.88,SW,220,10.5,13.5,92,0.00,,,0.00,VWS V14.01,2013-06-02 07:34:00,
2013-06-02 03:35:00,67.9,65.5,29.88,SW,231,9.0,12.0,92,0.00,,,0.00,VWS V14.01,2013-06-02 07:35:00,
2013-06-02 03:36:00,67.9,65.5,29.88,SW,234,4.5,12.0,92,0.00,,,0.00,VWS V14.01,2013-06-02 07:36:00,
2013-06-02 03:37:00,67.8,65.4,29.88,SW,232,6.0,12.0,92,0.00,,,0.00,VWS V14.01,2013-06-02 07:37:00,
2013-06-02 03:38:00,67.8,65.4,29.88,WSW,237,13.5,13.5,92,0.00,,,0.00,VWS V14.01,2013-06-02 07:38:00,
2013-06-02 03:39:00,67.8,65.4,29.88,SSW,213,7.5,13.5,92,0.00,,,0.00,VWS V14.01,2013-06-02 07:39:00,
2013-06-02 03:40:00,67.8,65.4,29.88,WSW,249,9.0,12.0,92,0.00,,,0.00,VWS V14.01,2013-06-02 07:40:00,
2013-06-02 03:41:00,67.8,65.4,29.88,SW,226,6.0,12.0,92,0.00,,,0.00,VWS V14.01,2013-06-02 07:41:00,
2013-06-02 03:42:00,67.8,65.4,29.88,WSW,241,7.5,10.5,92,0.00,,,0.00,VWS V14.01,2013-06-02 07:42:00,
2013-06-02 03:43:00,67.8,65.4,29.88,WSW,243,4.5,13.5,92,0.00,,,0.00,VWS V14.01,2013-06-02 07:43:00,
2013-06-02 03:44:00,67.8,65.4,29.88,WSW,239,4.5,9.0,92,0.00,,,0.00,VWS V14.01,2013-06-02 07:44:00,
2013-06-02 03:45:00,67.8,65.4,29.89,West,259,6.0,9.0,92,0.00,,,0.00,VWS V14.01,2013-06-02 07:45:00,
2013-06-02 03:46:00,67.8,65.4,29.89,WSW,244,9.0,10.5,92,0.00,,,0.00,VWS V14.01,2013-06-02 07:46:00,
2013-06-02 03:47:00,67.8,65.4,29.89,WSW,237,7.5,10.5,92,0.00,,,0.00,VWS V14.01,2013-06-02 07:47:00,
2013-06-02 03:48:00,67.7,65.3,29.89,SSW,213,6.0,9.0,92,0.00,,,0.00,VWS V14.01,2013-06-02 07:48:00,
2013-06-02 03:49:00,67.7,65.3,29.89,SW,226,10.5,10.5,92,0.00,,,0.00,VWS V14.01,2013-06-02 07:49:00,
2013-06-02 03:50:00,67.7,65.3,29.88,SW,231,15.0,15.0,92,0.00,,,0.00,VWS V14.01,2013-06-02 07:50:00,
2013-06-02 03:51:00,67.7,65.3,29.88,WSW,250,9.0,15.0,92,0.00,,,0.00,VWS V14.01,2013-06-02 07:51:00,
2013-06-02 03:52:00,67.7,65.3,29.88,SW,234,16.5,16.5,92,0.00,,,0.00,VWS V14.01,2013-06-02 07:52:00,
2013-06-02 03:53:00,67.7,65.3,29.88,West,265,13.5,16.5,92,0.00,,,0.00,VWS V14.01,2013-06-02 07:53:00,
2013-06-02 03:54:00,67.7,65.3,29.88,WSW,249,9.0,13.5,92,0.00,,,0.00,VWS V14.01,2013-06-02 07:54:00,
2013-06-02 03:55:00,67.7,65.3,29.88,SW,219,7.5,13.5,92,0.00,,,0.00,VWS V14.01,2013-06-02 07:55:00,
2013-06-02 03:56:00,67.7,65.3,29.88,SW,232,9.0,13.5,92,0.00,,,0.00,VWS V14.01,2013-06-02 07:56:00,
2013-06-02 03:57:00,67.7,65.3,29.88,West,262,6.0,10.5,92,0.00,,,0.00,VWS V14.01,2013-06-02 07:57:00,
2013-06-02 03:58:00,67.7,65.3,29.88,SW,225,7.5,15.0,92,0.00,,,0.00,VWS V14.01,2013-06-02 07:58:00,
2013-06-02 03:59:00,67.7,65.3,29.89,WSW,254,15.0,18.0,92,0.00,,,0.00,VWS V14.01,2013-06-02 07:59:00,
2013-06-02 04:00:00,67.7,65.3,29.89,West,271,12.0,12.0,92,0.00,,,0.00,VWS V14.01,2013-06-02 08:00:00,
2013-06-02 04:01:00,67.7,65.3,29.89,SW,229,12.0,13.5,92,0.00,,,0.00,VWS V14.01,2013-06-02 08:01:00,
2013-06-02 04:02:00,67.7,65.3,29.89,WSW,250,6.0,12.0,92,0.00,,,0.00,VWS V14.01,2013-06-02 08:02:00,
2013-06-02 04:03:00,67.7,65.3,29.89,West,269,7.5,7.5,92,0.00,,,0.00,VWS V14.01,2013-06-02 08:03:00,
2013-06-02 04:04:00,67.7,65.3,29.89,SW,227,9.0,9.0,92,0.00,,,0.00,VWS V14.01,2013-06-02 08:04:00,
2013-06-02 04:05:00,67.7,65.3,29.89,WSW,251,9.0,9.0,92,0.00,,,0.00,VWS V14.01,2013-06-02 08:05:00,
2013-06-02 04:06:00,67.7,65.3,29.89,WSW,244,7.5,15.0,92,0.00,,,0.00,VWS V14.01,2013-06-02 08:06:00,
2013-06-02 04:07:00,67.7,65.3,29.89,West,273,6.0,7.5,92,0.00,,,0.00,VWS V14.01,2013-06-02 08:07:00,
2013-06-02 04:08:00,67.7,65.3,29.89,SW,236,9.0,12.0,92,0.00,,,0.00,VWS V14.01,2013-06-02 08:08:00,
2013-06-02 04:09:00,67.7,65.3,29.89,West,259,7.5,12.0,92,0.00,,,0.00,VWS V14.01,2013-06-02 08:09:00,
2013-06-02 04:10:00,67.7,65.3,29.89,WSW,248,10.5,15.0,92,0.00,,,0.00,VWS V14.01,2013-06-02 08:10:00,
2013-06-02 04:11:00,67.7,65.3,29.89,WSW,258,10.5,15.0,92,0.00,,,0.00,VWS V14.01,2013-06-02 08:11:00,
2013-06-02 04:12:00,67.7,65.3,29.89,WSW,253,7.5,10.5,92,0.00,,,0.00,VWS V14.01,2013-06-02 08:12:00,
2013-06-02 04:13:00,67.7,65.3,29.89,SW,223,10.5,13.5,92,0.00,,,0.00,VWS V14.01,2013-06-02 08:13:00,
2013-06-02 04:14:00,67.6,65.2,29.89,WNW,285,12.0,19.5,92,0.00,,,0.00,VWS V14.01,2013-06-02 08:14:00,
2013-06-02 04:15:00,67.7,65.0,29.89,SW,215,12.0,16.5,91,0.00,,,0.00,VWS V14.01,2013-06-02 08:15:00,
2013-06-02 04:16:00,67.7,65.0,29.89,WSW,246,9.0,16.5,91,0.00,,,0.00,VWS V14.01,2013-06-02 08:16:00,
2013-06-02 04:17:00,67.7,65.0,29.89,West,266,9.0,16.5,91,0.00,,,0.00,VWS V14.01,2013-06-02 08:17:00,
2013-06-02 04:18:00,67.7,65.0,29.89,WNW,285,10.5,12.0,91,0.00,,,0.00,VWS V14.01,2013-06-02 08:18:00,
2013-06-02 04:19:00,67.7,65.0,29.89,WNW,299,6.0,10.5,91,0.00,,,0.00,VWS V14.01,2013-06-02 08:19:00,
2013-06-02 04:20:00,67.7,65.0,29.89,WSW,254,7.5,9.0,91,0.00,,,0.00,VWS V14.01,2013-06-02 08:20:00,
2013-06-02 04:21:00,67.7,65.0,29.89,WSW,257,7.5,9.0,91,0.00,,,0.00,VWS V14.01,2013-06-02 08:21:00,
2013-06-02 04:22:00,67.7,65.0,29.89,WNW,288,7.5,10.5,91,0.00,,,0.00,VWS V14.01,2013-06-02 08:22:00,
2013-06-02 04:23:00,67.7,65.0,29.89,SW,229,13.5,19.5,91,0.00,,,0.00,VWS V14.01,2013-06-02 08:23:00,
2013-06-02 04:24:00,67.7,65.0,29.89,SW,234,10.5,13.5,91,0.00,,,0.00,VWS V14.01,2013-06-02 08:24:00,
2013-06-02 04:25:00,67.7,65.0,29.89,West,279,3.0,9.0,91,0.00,,,0.00,VWS V14.01,2013-06-02 08:25:00,
2013-06-02 04:26:00,67.7,65.0,29.89,West,260,10.5,10.5,91,0.00,,,0.00,VWS V14.01,2013-06-02 08:26:00,
2013-06-02 04:27:00,67.7,65.0,29.89,West,279,12.0,15.0,91,0.00,,,0.00,VWS V14.01,2013-06-02 08:27:00,
2013-06-02 04:28:00,67.7,65.0,29.90,WNW,286,9.0,12.0,91,0.00,,,0.00,VWS V14.01,2013-06-02 08:28:00,
2013-06-02 04:29:00,67.7,65.0,29.90,WNW,288,9.0,13.5,91,0.00,,,0.00,VWS V14.01,2013-06-02 08:29:00,
2013-06-02 04:30:00,67.7,65.0,29.89,West,271,9.0,13.5,91,0.00,,,0.00,VWS V14.01,2013-06-02 08:30:00,
2013-06-02 04:31:00,67.7,65.0,29.89,West,265,13.5,13.5,91,0.00,,,0.00,VWS V14.01,2013-06-02 08:31:00,
2013-06-02 04:32:00,67.7,65.0,29.90,West,278,18.0,21.0,91,0.00,,,0.00,VWS V14.01,2013-06-02 08:32:00,
2013-06-02 04:33:00,67.7,65.0,29.90,West,271,9.0,19.5,91,0.00,,,0.00,VWS V14.01,2013-06-02 08:33:00,
2013-06-02 04:34:00,67.7,65.0,29.90,WSW,237,12.0,12.0,91,0.00,,,0.00,VWS V14.01,2013-06-02 08:34:00,
2013-06-02 04:35:00,67.7,65.0,29.90,WSW,243,7.5,15.0,91,0.00,,,0.00,VWS V14.01,2013-06-02 08:35:00,
2013-06-02 04:36:00,67.7,65.0,29.90,SW,234,13.5,15.0,91,0.00,,,0.00,VWS V14.01,2013-06-02 08:36:00,
2013-06-02 04:37:00,67.7,65.0,29.90,WSW,241,12.0,13.5,91,0.00,,,0.00,VWS V14.01,2013-06-02 08:37:00,
2013-06-02 04:38:00,67.7,65.0,29.90,West,275,6.0,12.0,91,0.00,,,0.00,VWS V14.01,2013-06-02 08:38:00,
2013-06-02 04:39:00,67.7,65.0,29.90,WSW,241,9.0,10.5,91,0.00,,,0.00,VWS V14.01,2013-06-02 08:39:00,
2013-06-02 04:40:00,67.6,64.9,29.90,WSW,255,7.5,7.5,91,0.00,,,0.00,VWS V14.01,2013-06-02 08:40:00,
2013-06-02 04:41:00,67.6,64.9,29.90,SW,236,9.0,9.0,91,0.00,,,0.00,VWS V14.01,2013-06-02 08:41:00,
2013-06-02 04:42:00,67.6,64.9,29.90,WSW,241,7.5,10.5,91,0.00,,,0.00,VWS V14.01,2013-06-02 08:42:00,
2013-06-02 04:43:00,67.6,64.9,29.90,WSW,252,7.5,12.0,91,0.00,,,0.00,VWS V14.01,2013-06-02 08:43:00,
2013-06-02 04:44:00,67.6,64.9,29.90,WSW,255,6.0,12.0,91,0.00,,,0.00,VWS V14.01,2013-06-02 08:44:00,
2013-06-02 04:45:00,67.6,64.9,29.89,West,269,10.5,15.0,91,0.00,,,0.00,VWS V14.01,2013-06-02 08:45:00,
2013-06-02 04:46:00,67.6,64.9,29.89,West,268,12.0,15.0,91,0.00,,,0.00,VWS V14.01,2013-06-02 08:46:00,
2013-06-02 04:47:00,67.6,64.9,29.89,WSW,252,7.5,12.0,91,0.00,,,0.00,VWS V14.01,2013-06-02 08:47:00,
2013-06-02 04:48:00,67.6,64.9,29.89,SW,234,15.0,15.0,91,0.00,,,0.00,VWS V14.01,2013-06-02 08:48:00,
2013-06-02 04:49:00,67.5,64.8,29.89,WNW,282,7.5,15.0,91,0.00,,,0.00,VWS V14.01,2013-06-02 08:49:00,
2013-06-02 04:50:00,67.5,64.8,29.90,WSW,252,4.5,9.0,91,0.00,,,0.00,VWS V14.01,2013-06-02 08:50:00,
2013-06-02 04:51:00,67.5,64.8,29.90,WSW,253,6.0,12.0,91,0.00,,,0.00,VWS V14.01,2013-06-02 08:51:00,
2013-06-02 04:52:00,67.5,64.8,29.90,West,267,9.0,12.0,91,0.00,,,0.00,VWS V14.01,2013-06-02 08:52:00,
2013-06-02 04:53:00,67.5,64.8,29.90,West,268,4.5,12.0,91,0.00,,,0.00,VWS V14.01,2013-06-02 08:53:00,
2013-06-02 04:54:00,67.5,64.8,29.90,WSW,247,9.0,9.0,91,0.00,,,0.00,VWS V14.01,2013-06-02 08:54:00,
2013-06-02 04:55:00,67.5,64.8,29.89,West,259,9.0,10.5,91,0.00,,,0.00,VWS V14.01,2013-06-02 08:55:00,
2013-06-02 04:56:00,67.5,64.8,29.89,WSW,241,9.0,10.5,91,0.00,,,0.00,VWS V14.01,2013-06-02 08:56:00,
2013-06-02 04:57:00,67.5,64.8,29.89,West,262,6.0,13.5,91,0.00,,,0.00,VWS V14.01,2013-06-02 08:57:00,
2013-06-02 04:58:00,67.5,64.8,29.89,SW,220,6.0,7.5,91,0.00,,,0.00,VWS V14.01,2013-06-02 08:58:00,
2013-06-02 04:59:00,67.5,64.8,29.89,West,262,9.0,12.0,91,0.00,,,0.00,VWS V14.01,2013-06-02 08:59:00,
2013-06-02 05:00:00,67.5,64.8,29.89,WSW,258,9.0,10.5,91,0.00,,,0.00,VWS V14.01,2013-06-02 09:00:00,
2013-06-02 05:01:00,67.5,64.8,29.89,WNW,296,7.5,10.5,91,0.00,,,0.00,VWS V14.01,2013-06-02 09:01:00,
2013-06-02 05:02:00,67.5,64.8,29.90,WSW,252,7.5,9.0,91,0.00,,,0.00,VWS V14.01,2013-06-02 09:02:00,
2013-06-02 05:03:00,67.5,64.8,29.90,WSW,257,4.5,10.5,91,0.00,,,0.00,VWS V14.01,2013-06-02 09:03:00,
2013-06-02 05:04:00,67.5,64.8,29.90,West,267,12.0,16.5,91,0.00,,,0.00,VWS V14.01,2013-06-02 09:04:00,
2013-06-02 05:05:00,67.5,64.8,29.89,WSW,250,9.0,9.0,91,0.00,,,0.00,VWS V14.01,2013-06-02 09:05:00,
2013-06-02 05:06:00,67.5,64.8,29.89,SW,229,9.0,12.0,91,0.00,,,0.00,VWS V14.01,2013-06-02 09:06:00,
2013-06-02 05:07:00,67.4,64.7,29.89,WNW,291,9.0,9.0,91,0.00,,,0.00,VWS V14.01,2013-06-02 09:07:00,
2013-06-02 05:08:00,67.4,64.7,29.89,West,276,6.0,9.0,91,0.00,,,0.00,VWS V14.01,2013-06-02 09:08:00,
2013-06-02 05:09:00,67.4,64.7,29.89,WNW,286,9.0,9.0,91,0.00,,,0.00,VWS V14.01,2013-06-02 09:09:00,
2013-06-02 05:10:00,67.4,64.7,29.89,WSW,258,4.5,9.0,91,0.00,,,0.00,VWS V14.01,2013-06-02 09:10:00,
2013-06-02 05:11:00,67.4,64.7,29.89,WSW,253,9.0,10.5,91,0.00,,,0.00,VWS V14.01,2013-06-02 09:11:00,
2013-06-02 05:12:00,67.4,64.7,29.89,SW,231,7.5,13.5,91,0.00,,,0.00,VWS V14.01,2013-06-02 09:12:00,
2013-06-02 05:13:00,67.4,64.7,29.89,WSW,241,7.5,10.5,91,0.00,,,0.00,VWS V14.01,2013-06-02 09:13:00,
2013-06-02 05:14:00,67.4,64.7,29.89,SW,236,9.0,10.5,91,0.00,,,0.00,VWS V14.01,2013-06-02 09:14:00,
2013-06-02 05:15:00,67.4,64.7,29.89,WSW,239,9.0,9.0,91,0.00,,,0.00,VWS V14.01,2013-06-02 09:15:00,
2013-06-02 05:16:00,67.4,64.7,29.89,WSW,251,3.0,10.5,91,0.00,,,0.00,VWS V14.01,2013-06-02 09:16:00,
2013-06-02 05:17:00,67.4,64.7,29.89,West,279,4.5,7.5,91,0.00,,,0.00,VWS V14.01,2013-06-02 09:17:00,
2013-06-02 05:18:00,67.4,64.7,29.89,West,274,6.0,6.0,91,0.00,,,0.00,VWS V14.01,2013-06-02 09:18:00,
2013-06-02 05:19:00,67.4,64.7,29.89,West,262,7.5,9.0,91,0.00,,,0.00,VWS V14.01,2013-06-02 09:19:00,
2013-06-02 05:20:00,67.4,64.7,29.89,West,279,6.0,7.5,91,0.00,,,0.00,VWS V14.01,2013-06-02 09:20:00,
2013-06-02 05:21:00,67.4,64.7,29.89,WSW,250,9.0,9.0,91,0.00,,,0.00,VWS V14.01,2013-06-02 09:21:00,
2013-06-02 05:22:00,67.4,64.7,29.89,SW,222,7.5,10.5,91,0.00,,,0.00,VWS V14.01,2013-06-02 09:22:00,
2013-06-02 05:23:00,67.4,64.7,29.89,SW,220,4.5,10.5,91,0.00,,,0.00,VWS V14.01,2013-06-02 09:23:00,
2013-06-02 05:24:00,67.4,64.7,29.89,West,264,4.5,6.0,91,0.00,,,0.00,VWS V14.01,2013-06-02 09:24:00,
2013-06-02 05:25:00,67.4,64.7,29.90,WSW,258,4.5,9.0,91,0.00,,,0.00,VWS V14.01,2013-06-02 09:25:00,
2013-06-02 05:26:00,67.4,64.7,29.90,WSW,258,6.0,10.5,91,0.00,,,0.00,VWS V14.01,2013-06-02 09:26:00,
2013-06-02 05:27:00,67.4,64.7,29.90,WSW,239,4.5,7.5,91,0.00,,,0.00,VWS V14.01,2013-06-02 09:27:00,
2013-06-02 05:28:00,67.4,64.7,29.90,West,259,6.0,6.0,91,0.00,,,0.00,VWS V14.01,2013-06-02 09:28:00,
2013-06-02 05:29:00,67.4,64.7,29.89,WSW,251,7.5,13.5,91,0.00,,,0.00,VWS V14.01,2013-06-02 09:29:00,
2013-06-02 05:30:00,67.4,64.7,29.89,WSW,248,6.0,7.5,91,0.00,,,0.00,VWS V14.01,2013-06-02 09:30:00,
2013-06-02 05:31:00,67.4,64.7,29.89,WSW,248,7.5,9.0,91,0.00,,,0.00,VWS V14.01,2013-06-02 09:31:00,
2013-06-02 05:32:00,67.3,64.6,29.89,SSW,192,4.5,9.0,91,0.00,,,0.00,VWS V14.01,2013-06-02 09:32:00,
2013-06-02 05:33:00,67.4,64.7,29.89,WSW,255,6.0,10.5,91,0.00,,,0.00,VWS V14.01,2013-06-02 09:33:00,
2013-06-02 05:34:00,67.3,64.6,29.89,SW,231,4.5,7.5,91,0.00,,,0.00,VWS V14.01,2013-06-02 09:34:00,
2013-06-02 05:35:00,67.4,64.7,29.89,West,262,7.5,7.5,91,0.00,,,0.00,VWS V14.01,2013-06-02 09:35:00,
2013-06-02 05:36:00,67.3,64.6,29.89,SSW,212,6.0,9.0,91,0.00,,,0.00,VWS V14.01,2013-06-02 09:36:00,
2013-06-02 05:37:00,67.3,64.6,29.89,WSW,248,7.5,9.0,91,0.00,,,0.00,VWS V14.01,2013-06-02 09:37:00,
2013-06-02 05:38:00,67.3,64.6,29.90,WSW,250,7.5,7.5,91,0.00,,,0.00,VWS V14.01,2013-06-02 09:38:00,
2013-06-02 05:39:00,67.3,64.6,29.90,SW,234,6.0,10.5,91,0.00,,,0.00,VWS V14.01,2013-06-02 09:39:00,
2013-06-02 05:40:00,67.3,64.6,29.90,WSW,257,9.0,10.5,91,0.00,,,0.00,VWS V14.01,2013-06-02 09:40:00,
2013-06-02 05:41:00,67.3,64.6,29.90,WSW,244,10.5,10.5,91,0.00,,,0.00,VWS V14.01,2013-06-02 09:41:00,
2013-06-02 05:42:00,67.3,64.6,29.90,WNW,303,7.5,10.5,91,0.00,,,0.00,VWS V14.01,2013-06-02 09:42:00,
2013-06-02 05:43:00,67.3,64.6,29.90,WSW,248,9.0,9.0,91,0.00,,,0.00,VWS V14.01,2013-06-02 09:43:00,
2013-06-02 05:44:00,67.3,64.6,29.90,WSW,250,6.0,9.0,91,0.00,,,0.00,VWS V14.01,2013-06-02 09:44:00,
2013-06-02 05:45:00,67.3,64.6,29.90,WNW,285,6.0,6.0,91,0.00,,,0.00,VWS V14.01,2013-06-02 09:45:00,
2013-06-02 05:46:00,67.3,64.6,29.90,West,268,7.5,10.5,91,0.00,,,0.00,VWS V14.01,2013-06-02 09:46:00,
2013-06-02 05:47:00,67.3,64.6,29.90,WSW,241,9.0,9.0,91,0.00,,,0.00,VWS V14.01,2013-06-02 09:47:00,
2013-06-02 05:48:00,67.3,64.6,29.90,West,267,3.0,9.0,91,0.00,,,0.00,VWS V14.01,2013-06-02 09:48:00,
2013-06-02 05:49:00,67.3,64.6,29.90,WSW,258,4.5,12.0,91,0.00,,,0.00,VWS V14.01,2013-06-02 09:49:00,
2013-06-02 05:50:00,67.3,64.6,29.90,WSW,250,9.0,9.0,91,0.00,,,0.00,VWS V14.01,2013-06-02 09:50:00,
2013-06-02 05:51:00,67.3,64.6,29.90,WSW,253,15.0,16.5,91,0.00,,,0.00,VWS V14.01,2013-06-02 09:51:00,
2013-06-02 05:52:00,67.3,64.6,29.90,WSW,237,10.5,15.0,91,0.00,,,0.00,VWS V14.01,2013-06-02 09:52:00,
2013-06-02 05:53:00,67.3,64.6,29.90,SW,226,13.5,15.0,91,0.00,,,0.00,VWS V14.01,2013-06-02 09:53:00,
2013-06-02 05:54:00,67.3,64.6,29.90,West,267,7.5,16.5,91,0.00,,,0.00,VWS V14.01,2013-06-02 09:54:00,
2013-06-02 05:55:00,67.3,64.6,29.90,WSW,246,10.5,12.0,91,0.00,,,0.00,VWS V14.01,2013-06-02 09:55:00,
2013-06-02 05:56:00,67.3,64.6,29.90,West,262,6.0,12.0,91,0.00,,,0.00,VWS V14.01,2013-06-02 09:56:00,
2013-06-02 05:57:00,67.3,64.6,29.90,West,262,6.0,7.5,91,0.00,,,0.00,VWS V14.01,2013-06-02 09:57:00,
2013-06-02 05:58:00,67.3,64.6,29.90,WSW,247,7.5,10.5,91,0.00,,,0.00,VWS V14.01,2013-06-02 09:58:00,
2013-06-02 05:59:00,67.3,64.6,29.90,WSW,237,9.0,12.0,91,0.00,,,0.00,VWS V14.01,2013-06-02 09:59:00,
2013-06-02 06:00:00,67.3,64.6,29.90,West,267,9.0,9.0,91,0.00,,,0.00,VWS V14.01,2013-06-02 10:00:00,
2013-06-02 06:01:00,67.3,64.6,29.90,WSW,239,7.5,12.0,91,0.00,,,0.00,VWS V14.01,2013-06-02 10:01:00,
2013-06-02 06:02:00,67.3,64.6,29.90,SW,226,7.5,9.0,91,0.00,,,0.00,VWS V14.01,2013-06-02 10:02:00,
2013-06-02 06:03:00,67.3,64.6,29.90,WSW,248,9.0,12.0,91,0.00,,,0.00,VWS V14.01,2013-06-02 10:03:00,
2013-06-02 06:04:00,67.3,64.6,29.90,SW,217,9.0,13.5,91,0.00,,,0.00,VWS V14.01,2013-06-02 10:04:00,
2013-06-02 06:05:00,67.3,64.3,29.90,WSW,251,9.0,9.0,90,0.00,,,0.00,VWS V14.01,2013-06-02 10:05:00,
2013-06-02 06:06:00,67.3,64.3,29.90,WSW,241,6.0,10.5,90,0.00,,,0.00,VWS V14.01,2013-06-02 10:06:00,
2013-06-02 06:07:00,67.3,64.6,29.90,SW,223,10.5,10.5,91,0.00,,,0.00,VWS V14.01,2013-06-02 10:07:00,
2013-06-02 06:08:00,67.3,64.6,29.90,West,260,7.5,10.5,91,0.00,,,0.00,VWS V14.01,2013-06-02 10:08:00,
2013-06-02 06:09:00,67.3,64.6,29.90,West,269,10.5,10.5,91,0.00,,,0.00,VWS V14.01,2013-06-02 10:09:00,
2013-06-02 06:10:00,67.3,64.6,29.90,SW,229,10.5,10.5,91,0.00,,,0.00,VWS V14.01,2013-06-02 10:10:00,
2013-06-02 06:11:00,67.3,64.6,29.90,WSW,247,13.5,13.5,91,0.00,,,0.00,VWS V14.01,2013-06-02 10:11:00,
2013-06-02 06:12:00,67.3,64.6,29.90,WSW,252,6.0,13.5,91,0.00,,,0.00,VWS V14.01,2013-06-02 10:12:00,
2013-06-02 06:13:00,67.3,64.6,29.90,WSW,254,7.5,9.0,91,0.00,,,0.00,VWS V14.01,2013-06-02 10:13:00,
2013-06-02 06:14:00,67.3,64.6,29.90,SW,222,6.0,7.5,91,0.00,,,0.00,VWS V14.01,2013-06-02 10:14:00,
2013-06-02 06:15:00,67.3,64.6,29.90,WSW,237,6.0,6.0,91,0.00,,,0.00,VWS V14.01,2013-06-02 10:15:00,
2013-06-02 06:16:00,67.3,64.6,29.90,West,264,7.5,7.5,91,0.00,,,0.00,VWS V14.01,2013-06-02 10:16:00,
2013-06-02 06:17:00,67.3,64.6,29.90,SW,231,7.5,9.0,91,0.00,,,0.00,VWS V14.01,2013-06-02 10:17:00,
2013-06-02 06:18:00,67.3,64.6,29.90,WSW,253,6.0,9.0,91,0.00,,,0.00,VWS V14.01,2013-06-02 10:18:00,
2013-06-02 06:19:00,67.2,64.5,29.90,WSW,248,4.5,7.5,91,0.00,,,0.00,VWS V14.01,2013-06-02 10:19:00,
2013-06-02 06:20:00,67.2,64.5,29.90,WSW,257,4.5,6.0,91,0.00,,,0.00,VWS V14.01,2013-06-02 10:20:00,
2013-06-02 06:21:00,67.2,64.5,29.90,SW,232,7.5,7.5,91,0.00,,,0.00,VWS V14.01,2013-06-02 10:21:00,
2013-06-02 06:22:00,67.2,64.5,29.90,WSW,255,4.5,9.0,91,0.00,,,0.00,VWS V14.01,2013-06-02 10:22:00,
2013-06-02 06:23:00,67.2,64.5,29.90,WSW,251,6.0,9.0,91,0.00,,,0.00,VWS V14.01,2013-06-02 10:23:00,
2013-06-02 06:24:00,67.2,64.5,29.91,WSW,250,9.0,9.0,91,0.00,,,0.00,VWS V14.01,2013-06-02 10:24:00,
2013-06-02 06:25:00,67.2,64.5,29.91,West,260,10.5,10.5,91,0.00,,,0.00,VWS V14.01,2013-06-02 10:25:00,
2013-06-02 06:26:00,67.2,64.5,29.91,West,262,10.5,10.5,91,0.00,,,0.00,VWS V14.01,2013-06-02 10:26:00,
2013-06-02 06:27:00,67.2,64.5,29.91,WSW,254,9.0,10.5,91,0.00,,,0.00,VWS V14.01,2013-06-02 10:27:00,
2013-06-02 06:28:00,67.2,64.5,29.91,WSW,257,7.5,10.5,91,0.00,,,0.00,VWS V14.01,2013-06-02 10:28:00,
2013-06-02 06:29:00,67.2,64.5,29.91,SW,223,6.0,9.0,91,0.00,,,0.00,VWS V14.01,2013-06-02 10:29:00,
2013-06-02 06:30:00,67.2,64.5,29.91,WSW,253,6.0,6.0,91,0.00,,,0.00,VWS V14.01,2013-06-02 10:30:00,
2013-06-02 06:31:00,67.2,64.5,29.91,West,264,4.5,6.0,91,0.00,,,0.00,VWS V14.01,2013-06-02 10:31:00,
2013-06-02 06:32:00,67.2,64.5,29.91,WSW,255,6.0,13.5,91,0.00,,,0.00,VWS V14.01,2013-06-02 10:32:00,
2013-06-02 06:33:00,67.2,64.5,29.91,West,276,6.0,10.5,91,0.00,,,0.00,VWS V14.01,2013-06-02 10:33:00,
2013-06-02 06:34:00,67.2,64.5,29.91,West,260,7.5,9.0,91,0.00,,,0.00,VWS V14.01,2013-06-02 10:34:00,
2013-06-02 06:35:00,67.2,64.5,29.91,WSW,244,6.0,6.0,91,0.00,,,0.00,VWS V14.01,2013-06-02 10:35:00,
2013-06-02 06:36:00,67.2,64.5,29.91,WSW,255,4.5,6.0,91,0.00,,,0.00,VWS V14.01,2013-06-02 10:36:00,
2013-06-02 06:37:00,67.2,64.5,29.91,SW,234,7.5,9.0,91,0.00,,,0.00,VWS V14.01,2013-06-02 10:37:00,
2013-06-02 06:38:00,67.2,64.5,29.91,SW,233,9.0,9.0,91,0.00,,,0.00,VWS V14.01,2013-06-02 10:38:00,
2013-06-02 06:39:00,67.1,64.4,29.91,SSW,206,7.5,9.0,91,0.00,,,0.00,VWS V14.01,2013-06-02 10:39:00,
2013-06-02 06:40:00,67.2,64.5,29.91,WSW,241,6.0,6.0,91,0.00,,,0.00,VWS V14.01,2013-06-02 10:40:00,
2013-06-02 06:41:00,67.1,64.4,29.91,SW,220,4.5,6.0,91,0.00,,,0.00,VWS V14.01,2013-06-02 10:41:00,
2013-06-02 06:42:00,67.2,64.5,29.91,SW,226,3.0,6.0,91,0.00,,,0.00,VWS V14.01,2013-06-02 10:42:00,
2013-06-02 06:43:00,67.2,64.5,29.91,WSW,254,10.5,10.5,91,0.00,,,0.00,VWS V14.01,2013-06-02 10:43:00,
2013-06-02 06:44:00,67.2,64.5,29.91,SW,232,7.5,10.5,91,0.00,,,0.00,VWS V14.01,2013-06-02 10:44:00,
2013-06-02 06:45:00,67.2,64.5,29.91,WSW,241,7.5,7.5,91,0.00,,,0.00,VWS V14.01,2013-06-02 10:45:00,
2013-06-02 06:46:00,67.2,64.5,29.91,WSW,244,6.0,7.5,91,0.00,,,0.00,VWS V14.01,2013-06-02 10:46:00,
2013-06-02 06:47:00,67.1,64.4,29.91,West,264,6.0,9.0,91,0.00,,,0.00,VWS V14.01,2013-06-02 10:47:00,
2013-06-02 06:48:00,67.2,64.5,29.91,WSW,251,7.5,7.5,91,0.00,,,0.00,VWS V14.01,2013-06-02 10:48:00,
2013-06-02 06:49:00,67.2,64.5,29.91,WSW,247,7.5,9.0,91,0.00,,,0.00,VWS V14.01,2013-06-02 10:49:00,
2013-06-02 06:50:00,67.2,64.5,29.91,SW,231,9.0,9.0,91,0.00,,,0.00,VWS V14.01,2013-06-02 10:50:00,
2013-06-02 06:51:00,67.2,64.5,29.91,WSW,244,7.5,10.5,91,0.00,,,0.00,VWS V14.01,2013-06-02 10:51:00,
2013-06-02 06:52:00,67.2,64.5,29.91,WSW,241,4.5,7.5,91,0.00,,,0.00,VWS V14.01,2013-06-02 10:52:00,
2013-06-02 06:53:00,67.2,64.5,29.91,SW,234,6.0,7.5,91,0.00,,,0.00,VWS V14.01,2013-06-02 10:53:00,
2013-06-02 06:54:00,67.2,64.5,29.91,SSW,210,4.5,9.0,91,0.00,,,0.00,VWS V14.01,2013-06-02 10:54:00,
2013-06-02 06:55:00,67.2,64.5,29.91,SW,216,6.0,6.0,91,0.00,,,0.00,VWS V14.01,2013-06-02 10:55:00,
2013-06-02 06:56:00,67.1,64.4,29.91,WSW,243,7.5,12.0,91,0.00,,,0.00,VWS V14.01,2013-06-02 10:56:00,
2013-06-02 06:57:00,67.2,64.5,29.91,WSW,241,4.5,9.0,91,0.00,,,0.00,VWS V14.01,2013-06-02 10:57:00,
2013-06-02 06:58:00,67.2,64.5,29.91,WSW,254,4.5,9.0,91,0.00,,,0.00,VWS V14.01,2013-06-02 10:58:00,
2013-06-02 06:59:00,67.2,64.5,29.91,WSW,251,10.5,10.5,91,0.00,,,0.00,VWS V14.01,2013-06-02 10:59:00,
2013-06-02 07:00:00,67.2,64.5,29.91,WSW,248,6.0,10.5,91,0.00,,,0.00,VWS V14.01,2013-06-02 11:00:00,
2013-06-02 07:01:00,67.2,64.5,29.91,WSW,245,4.5,7.5,91,0.00,,,0.00,VWS V14.01,2013-06-02 11:01:00,
2013-06-02 07:02:00,67.2,64.5,29.91,SW,232,4.5,7.5,91,0.00,,,0.00,VWS V14.01,2013-06-02 11:02:00,
2013-06-02 07:03:00,67.2,64.5,29.91,WSW,252,4.5,6.0,91,0.00,,,0.00,VWS V14.01,2013-06-02 11:03:00,
2013-06-02 07:04:00,67.2,64.5,29.91,SW,220,3.0,4.5,91,0.00,,,0.00,VWS V14.01,2013-06-02 11:04:00,
2013-06-02 07:05:00,67.2,64.5,29.91,WSW,247,6.0,7.5,91,0.00,,,0.00,VWS V14.01,2013-06-02 11:05:00,
2013-06-02 07:06:00,67.2,64.5,29.91,West,264,6.0,9.0,91,0.00,,,0.00,VWS V14.01,2013-06-02 11:06:00,
2013-06-02 07:07:00,67.2,64.5,29.91,WSW,251,3.0,9.0,91,0.00,,,0.00,VWS V14.01,2013-06-02 11:07:00,
2013-06-02 07:08:00,67.2,64.5,29.91,SW,231,7.5,7.5,91,0.00,,,0.00,VWS V14.01,2013-06-02 11:08:00,
2013-06-02 07:09:00,67.2,64.5,29.91,West,260,3.0,7.5,91,0.00,,,0.00,VWS V14.01,2013-06-02 11:09:00,
2013-06-02 07:10:00,67.3,64.6,29.91,West,267,1.5,1.5,91,0.00,,,0.00,VWS V14.01,2013-06-02 11:10:00,
2013-06-02 07:11:00,67.3,64.6,29.91,WSW,258,4.5,6.0,91,0.00,,,0.00,VWS V14.01,2013-06-02 11:11:00,
2013-06-02 07:12:00,67.3,64.6,29.91,WNW,282,4.5,6.0,91,0.00,,,0.00,VWS V14.01,2013-06-02 11:12:00,
2013-06-02 07:13:00,67.3,64.6,29.91,WSW,243,4.5,6.0,91,0.00,,,0.00,VWS V14.01,2013-06-02 11:13:00,
2013-06-02 07:14:00,67.3,64.6,29.91,West,261,4.5,6.0,91,0.00,,,0.00,VWS V14.01,2013-06-02 11:14:00,
2013-06-02 07:15:00,67.3,64.6,29.92,West,260,4.5,7.5,91,0.00,,,0.00,VWS V14.01,2013-06-02 11:15:00,
2013-06-02 07:16:00,67.3,64.6,29.92,West,272,4.5,7.5,91,0.00,,,0.00,VWS V14.01,2013-06-02 11:16:00,
2013-06-02 07:17:00,67.3,64.6,29.92,SW,220,3.0,9.0,91,0.00,,,0.00,VWS V14.01,2013-06-02 11:17:00,
2013-06-02 07:18:00,67.3,64.6,29.92,West,281,6.0,7.5,91,0.00,,,0.00,VWS V14.01,2013-06-02 11:18:00,
2013-06-02 07:19:00,67.3,64.6,29.91,West,271,6.0,7.5,91,0.00,,,0.00,VWS V14.01,2013-06-02 11:19:00,
2013-06-02 07:20:00,67.3,64.6,29.91,West,264,4.5,4.5,91,0.00,,,0.00,VWS V14.01,2013-06-02 11:20:00,
2013-06-02 07:21:00,67.3,64.6,29.91,West,279,4.5,4.5,91,0.00,,,0.00,VWS V14.01,2013-06-02 11:21:00,
2013-06-02 07:22:00,67.4,64.7,29.91,West,279,1.5,4.5,91,0.00,,,0.00,VWS V14.01,2013-06-02 11:22:00,
2013-06-02 07:23:00,67.4,64.7,29.91,SW,221,4.5,6.0,91,0.00,,,0.00,VWS V14.01,2013-06-02 11:23:00,
2013-06-02 07:24:00,67.4,64.7,29.91,SW,233,4.5,4.5,91,0.00,,,0.00,VWS V14.01,2013-06-02 11:24:00,
2013-06-02 07:25:00,67.4,64.7,29.91,SW,228,4.5,6.0,91,0.00,,,0.00,VWS V14.01,2013-06-02 11:25:00,
2013-06-02 07:26:00,67.4,64.7,29.91,SW,229,4.5,4.5,91,0.00,,,0.00,VWS V14.01,2013-06-02 11:26:00,
2013-06-02 07:27:00,67.5,64.8,29.91,WSW,239,3.0,6.0,91,0.00,,,0.00,VWS V14.01,2013-06-02 11:27:00,
2013-06-02 07:28:00,67.5,64.8,29.91,WSW,241,4.5,6.0,91,0.00,,,0.00,VWS V14.01,2013-06-02 11:28:00,
2013-06-02 07:29:00,67.5,64.8,29.91,WSW,242,6.0,7.5,91,0.00,,,0.00,VWS V14.01,2013-06-02 11:29:00,
2013-06-02 07:30:00,67.5,64.8,29.91,West,264,7.5,10.5,91,0.00,,,0.00,VWS V14.01,2013-06-02 11:30:00,
2013-06-02 07:31:00,67.5,64.8,29.91,West,265,6.0,7.5,91,0.00,,,0.00,VWS V14.01,2013-06-02 11:31:00,
2013-06-02 07:32:00,67.5,64.8,29.91,WNW,288,4.5,6.0,91,0.00,,,0.00,VWS V14.01,2013-06-02 11:32:00,
2013-06-02 07:33:00,67.6,64.9,29.91,WSW,255,3.0,6.0,91,0.00,,,0.00,VWS V14.01,2013-06-02 11:33:00,
2013-06-02 07:34:00,67.6,64.9,29.91,WSW,250,6.0,6.0,91,0.00,,,0.00,VWS V14.01,2013-06-02 11:34:00,
2013-06-02 07:35:00,67.6,64.9,29.91,WSW,239,4.5,6.0,91,0.00,,,0.00,VWS V14.01,2013-06-02 11:35:00,
2013-06-02 07:36:00,67.6,64.9,29.91,SW,223,7.5,7.5,91,0.00,,,0.00,VWS V14.01,2013-06-02 11:36:00,
2013-06-02 07:37:00,67.6,64.9,29.91,WSW,248,4.5,7.5,91,0.00,,,0.00,VWS V14.01,2013-06-02 11:37:00,
2013-06-02 07:38:00,67.6,64.9,29.91,SW,228,4.5,4.5,91,0.00,,,0.00,VWS V14.01,2013-06-02 11:38:00,
2013-06-02 07:39:00,67.6,64.9,29.91,WSW,244,7.5,7.5,91,0.00,,,0.00,VWS V14.01,2013-06-02 11:39:00,
2013-06-02 07:40:00,67.6,64.9,29.91,SW,234,6.0,9.0,91,0.00,,,0.00,VWS V14.01,2013-06-02 11:40:00,
2013-06-02 07:41:00,67.6,64.9,29.91,WSW,247,4.5,9.0,91,0.00,,,0.00,VWS V14.01,2013-06-02 11:41:00,
2013-06-02 07:42:00,67.6,64.6,29.91,WSW,251,3.0,9.0,90,0.00,,,0.00,VWS V14.01,2013-06-02 11:42:00,
2013-06-02 07:43:00,67.6,64.6,29.91,West,260,4.5,6.0,90,0.00,,,0.00,VWS V14.01,2013-06-02 11:43:00,
2013-06-02 07:44:00,67.7,65.0,29.91,WSW,249,6.0,6.0,91,0.00,,,0.00,VWS V14.01,2013-06-02 11:44:00,
2013-06-02 07:45:00,67.7,65.0,29.91,SW,226,6.0,6.0,91,0.00,,,0.00,VWS V14.01,2013-06-02 11:45:00,
2013-06-02 07:46:00,67.7,65.0,29.91,West,269,4.5,6.0,91,0.00,,,0.00,VWS V14.01,2013-06-02 11:46:00,
2013-06-02 07:47:00,67.7,65.0,29.91,SW,220,3.0,7.5,91,0.00,,,0.00,VWS V14.01,2013-06-02 11:47:00,
2013-06-02 07:48:00,67.7,64.7,29.91,WNW,285,6.0,10.5,90,0.00,,,0.00,VWS V14.01,2013-06-02 11:48:00,
2013-06-02 07:49:00,67.7,64.7,29.91,WSW,255,7.5,10.5,90,0.00,,,0.00,VWS V14.01,2013-06-02 11:49:00,
2013-06-02 07:50:00,67.7,64.7,29.91,WSW,250,6.0,6.0,90,0.00,,,0.00,VWS V14.01,2013-06-02 11:50:00,
2013-06-02 07:51:00,67.7,64.7,29.91,WSW,255,6.0,7.5,90,0.00,,,0.00,VWS V14.01,2013-06-02 11:51:00,
2013-06-02 07:52:00,67.8,64.8,29.91,WSW,254,4.5,7.5,90,0.00,,,0.00,VWS V14.01,2013-06-02 11:52:00,
2013-06-02 07:53:00,67.8,64.8,29.91,WSW,241,4.5,6.0,90,0.00,,,0.00,VWS V14.01,2013-06-02 11:53:00,
2013-06-02 07:54:00,67.8,64.8,29.91,West,265,6.0,6.0,90,0.00,,,0.00,VWS V14.01,2013-06-02 11:54:00,
2013-06-02 07:55:00,67.8,64.8,29.91,West,274,4.5,6.0,90,0.00,,,0.00,VWS V14.01,2013-06-02 11:55:00,
2013-06-02 07:56:00,67.9,64.9,29.91,West,272,3.0,6.0,90,0.00,,,0.00,VWS V14.01,2013-06-02 11:56:00,
2013-06-02 07:57:00,67.9,64.9,29.91,West,260,9.0,9.0,90,0.00,,,0.00,VWS V14.01,2013-06-02 11:57:00,
2013-06-02 07:58:00,67.9,64.9,29.91,WSW,257,4.5,10.5,90,0.00,,,0.00,VWS V14.01,2013-06-02 11:58:00,
2013-06-02 07:59:00,67.9,64.9,29.91,West,267,7.5,9.0,90,0.00,,,0.00,VWS V14.01,2013-06-02 11:59:00,
2013-06-02 08:00:00,67.9,64.5,29.90,WNW,284,3.0,3.0,89,0.00,,,0.00,VWS V14.01,2013-06-02 12:00:00,
2013-06-02 08:01:00,68.0,64.6,29.90,SW,234,6.0,9.0,89,0.00,,,0.00,VWS V14.01,2013-06-02 12:01:00,
2013-06-02 08:02:00,68.0,64.6,29.90,West,264,6.0,6.0,89,0.00,,,0.00,VWS V14.01,2013-06-02 12:02:00,
2013-06-02 08:03:00,68.1,65.1,29.91,WSW,255,9.0,10.5,90,0.00,,,0.00,VWS V14.01,2013-06-02 12:03:00,
2013-06-02 08:04:00,68.1,64.7,29.91,WSW,254,6.0,9.0,89,0.00,,,0.00,VWS V14.01,2013-06-02 12:04:00,
2013-06-02 08:05:00,68.1,64.7,29.91,West,269,6.0,6.0,89,0.00,,,0.00,VWS V14.01,2013-06-02 12:05:00,
2013-06-02 08:06:00,68.1,64.7,29.91,WSW,252,4.5,6.0,89,0.00,,,0.00,VWS V14.01,2013-06-02 12:06:00,
2013-06-02 08:07:00,68.1,64.7,29.91,WNW,285,6.0,7.5,89,0.00,,,0.00,VWS V14.01,2013-06-02 12:07:00,
2013-06-02 08:08:00,68.2,64.8,29.91,West,274,6.0,7.5,89,0.00,,,0.00,VWS V14.01,2013-06-02 12:08:00,
2013-06-02 08:09:00,68.2,64.8,29.90,WSW,254,4.5,6.0,89,0.00,,,0.00,VWS V14.01,2013-06-02 12:09:00,
2013-06-02 08:10:00,68.2,64.8,29.90,WNW,282,4.5,4.5,89,0.00,,,0.00,VWS V14.01,2013-06-02 12:10:00,
2013-06-02 08:11:00,68.2,64.8,29.90,NW,310,3.0,4.5,89,0.00,,,0.00,VWS V14.01,2013-06-02 12:11:00,
2013-06-02 08:12:00,68.3,64.9,29.91,West,280,6.0,6.0,89,0.00,,,0.00,VWS V14.01,2013-06-02 12:12:00,
2013-06-02 08:13:00,68.3,64.9,29.90,WNW,282,3.0,6.0,89,0.00,,,0.00,VWS V14.01,2013-06-02 12:13:00,
2013-06-02 08:14:00,68.4,65.0,29.90,West,281,6.0,6.0,89,0.00,,,0.00,VWS V14.01,2013-06-02 12:14:00,
2013-06-02 08:15:00,68.4,65.0,29.90,West,267,3.0,3.0,89,0.00,,,0.00,VWS V14.01,2013-06-02 12:15:00,
2013-06-02 08:16:00,68.5,65.1,29.90,WSW,237,6.0,7.5,89,0.00,,,0.00,VWS V14.01,2013-06-02 12:16:00,
2013-06-02 08:17:00,68.5,65.1,29.90,West,262,9.0,9.0,89,0.00,,,0.00,VWS V14.01,2013-06-02 12:17:00,
2013-06-02 08:18:00,68.5,64.8,29.91,West,267,6.0,9.0,88,0.00,,,0.00,VWS V14.01,2013-06-02 12:18:00,
2013-06-02 08:19:00,68.6,64.9,29.90,WNW,303,1.5,7.5,88,0.00,,,0.00,VWS V14.01,2013-06-02 12:19:00,
2013-06-02 08:20:00,68.7,65.3,29.91,WNW,282,4.5,6.0,89,0.00,,,0.00,VWS V14.01,2013-06-02 12:20:00,
2013-06-02 08:21:00,68.7,65.3,29.91,WSW,241,7.5,9.0,89,0.00,,,0.00,VWS V14.01,2013-06-02 12:21:00,
2013-06-02 08:22:00,68.7,65.0,29.91,WSW,253,6.0,10.5,88,0.00,,,0.00,VWS V14.01,2013-06-02 12:22:00,
2013-06-02 08:23:00,68.7,65.0,29.91,WSW,254,12.0,15.0,88,0.00,,,0.00,VWS V14.01,2013-06-02 12:23:00,
2013-06-02 08:24:00,68.7,65.0,29.91,NNW,332,9.0,13.5,88,0.00,,,0.00,VWS V14.01,2013-06-02 12:24:00,
2013-06-02 08:25:00,68.7,65.0,29.91,West,264,9.0,9.0,88,0.00,,,0.00,VWS V14.01,2013-06-02 12:25:00,
2013-06-02 08:26:00,68.7,65.0,29.91,West,260,10.5,10.5,88,0.00,,,0.00,VWS V14.01,2013-06-02 12:26:00,
2013-06-02 08:27:00,68.7,65.0,29.91,West,264,7.5,12.0,88,0.00,,,0.00,VWS V14.01,2013-06-02 12:27:00,
2013-06-02 08:28:00,68.7,64.7,29.91,WSW,252,6.0,10.5,87,0.00,,,0.00,VWS V14.01,2013-06-02 12:28:00,
2013-06-02 08:29:00,68.7,64.7,29.91,West,260,7.5,9.0,87,0.00,,,0.00,VWS V14.01,2013-06-02 12:29:00,
2013-06-02 08:30:00,68.7,65.0,29.91,West,281,7.5,9.0,88,0.00,,,0.00,VWS V14.01,2013-06-02 12:30:00,
2013-06-02 08:31:00,68.7,65.0,29.91,West,267,7.5,10.5,88,0.00,,,0.00,VWS V14.01,2013-06-02 12:31:00,
2013-06-02 08:32:00,68.8,65.1,29.91,WSW,251,6.0,7.5,88,0.00,,,0.00,VWS V14.01,2013-06-02 12:32:00,
2013-06-02 08:33:00,68.8,64.8,29.91,WSW,250,6.0,10.5,87,0.00,,,0.00,VWS V14.01,2013-06-02 12:33:00,
2013-06-02 08:34:00,68.8,64.8,29.91,West,260,7.5,9.0,87,0.00,,,0.00,VWS V14.01,2013-06-02 12:34:00,
2013-06-02 08:35:00,68.8,64.8,29.91,WSW,244,7.5,10.5,87,0.00,,,0.00,VWS V14.01,2013-06-02 12:35:00,
2013-06-02 08:36:00,68.9,64.9,29.91,West,264,7.5,10.5,87,0.00,,,0.00,VWS V14.01,2013-06-02 12:36:00,
2013-06-02 08:37:00,68.9,64.9,29.91,WNW,291,6.0,10.5,87,0.00,,,0.00,VWS V14.01,2013-06-02 12:37:00,
2013-06-02 08:38:00,68.9,64.9,29.91,WSW,246,9.0,12.0,87,0.00,,,0.00,VWS V14.01,2013-06-02 12:38:00,
2013-06-02 08:39:00,68.8,64.8,29.91,West,276,10.5,10.5,87,0.00,,,0.00,VWS V14.01,2013-06-02 12:39:00,
2013-06-02 08:40:00,68.8,64.8,29.91,West,274,6.0,10.5,87,0.00,,,0.00,VWS V14.01,2013-06-02 12:40:00,
2013-06-02 08:41:00,68.8,64.8,29.91,West,265,4.5,7.5,87,0.00,,,0.00,VWS V14.01,2013-06-02 12:41:00,
2013-06-02 08:42:00,68.9,64.9,29.91,WSW,255,6.0,7.5,87,0.00,,,0.00,VWS V14.01,2013-06-02 12:42:00,
2013-06-02 08:43:00,68.9,64.9,29.91,NNW,330,4.5,6.0,87,0.00,,,0.00,VWS V14.01,2013-06-02 12:43:00,
2013-06-02 08:44:00,69.0,65.3,29.91,WNW,291,3.0,6.0,88,0.00,,,0.00,VWS V14.01,2013-06-02 12:44:00,
2013-06-02 08:45:00,69.0,65.3,29.91,WNW,291,3.0,6.0,88,0.00,,,0.00,VWS V14.01,2013-06-02 12:45:00,
2013-06-02 08:46:00,69.1,65.1,29.91,WNW,291,6.0,6.0,87,0.00,,,0.00,VWS V14.01,2013-06-02 12:46:00,
2013-06-02 08:47:00,69.2,65.2,29.92,West,278,4.5,6.0,87,0.00,,,0.00,VWS V14.01,2013-06-02 12:47:00,
2013-06-02 08:48:00,69.2,65.2,29.92,WSW,241,4.5,7.5,87,0.00,,,0.00,VWS V14.01,2013-06-02 12:48:00,
2013-06-02 08:49:00,69.2,64.8,29.92,WNW,286,6.0,10.5,86,0.00,,,0.00,VWS V14.01,2013-06-02 12:49:00,
2013-06-02 08:50:00,69.3,64.9,29.91,WNW,295,3.0,10.5,86,0.00,,,0.00,VWS V14.01,2013-06-02 12:50:00,
2013-06-02 08:51:00,69.3,64.9,29.91,NNW,333,4.5,4.5,86,0.00,,,0.00,VWS V14.01,2013-06-02 12:51:00,
2013-06-02 08:52:00,69.3,64.9,29.92,WNW,286,4.5,6.0,86,0.00,,,0.00,VWS V14.01,2013-06-02 12:52:00,
2013-06-02 08:53:00,69.3,64.9,29.92,West,265,6.0,9.0,86,0.00,,,0.00,VWS V14.01,2013-06-02 12:53:00,
2013-06-02 08:54:00,69.4,65.0,29.91,North,356,6.0,6.0,86,0.00,,,0.00,VWS V14.01,2013-06-02 12:54:00,
2013-06-02 08:55:00,69.4,65.0,29.91,North,356,6.0,6.0,86,0.00,,,0.00,VWS V14.01,2013-06-02 12:55:00,
2013-06-02 08:56:00,69.4,65.0,29.91,WSW,251,1.5,6.0,86,0.00,,,0.00,VWS V14.01,2013-06-02 12:56:00,
2013-06-02 08:57:00,69.4,65.0,29.91,WNW,288,7.5,9.0,86,0.00,,,0.00,VWS V14.01,2013-06-02 12:57:00,
2013-06-02 08:58:00,69.4,65.0,29.91,WNW,288,4.5,9.0,86,0.00,,,0.00,VWS V14.01,2013-06-02 12:58:00,
2013-06-02 08:59:00,69.4,64.7,29.91,WNW,291,7.5,9.0,85,0.00,,,0.00,VWS V14.01,2013-06-02 12:59:00,
2013-06-02 09:00:00,69.4,64.7,29.91,West,259,9.0,9.0,85,0.00,,,0.00,VWS V14.01,2013-06-02 13:00:00,
2013-06-02 09:01:00,69.4,64.4,29.91,WSW,257,4.5,9.0,84,0.00,,,0.00,VWS V14.01,2013-06-02 13:01:00,
2013-06-02 09:02:00,69.4,64.4,29.91,West,269,4.5,6.0,84,0.00,,,0.00,VWS V14.01,2013-06-02 13:02:00,
2013-06-02 09:03:00,69.4,64.4,29.91,West,278,4.5,4.5,84,0.00,,,0.00,VWS V14.01,2013-06-02 13:03:00,
2013-06-02 09:04:00,69.6,64.9,29.91,West,261,7.5,7.5,85,0.00,,,0.00,VWS V14.01,2013-06-02 13:04:00,
2013-06-02 09:05:00,69.6,64.9,29.91,West,261,7.5,7.5,85,0.00,,,0.00,VWS V14.01,2013-06-02 13:05:00,
2013-06-02 09:06:00,69.6,64.9,29.91,NW,312,3.0,7.5,85,0.00,,,0.00,VWS V14.01,2013-06-02 13:06:00,
2013-06-02 09:07:00,69.7,65.0,29.91,WNW,299,6.0,6.0,85,0.00,,,0.00,VWS V14.01,2013-06-02 13:07:00,
2013-06-02 09:08:00,69.7,65.0,29.91,West,276,4.5,6.0,85,0.00,,,0.00,VWS V14.01,2013-06-02 13:08:00,
2013-06-02 09:09:00,69.7,64.7,29.91,NW,326,3.0,9.0,84,0.00,,,0.00,VWS V14.01,2013-06-02 13:09:00,
2013-06-02 09:10:00,69.7,64.7,29.91,WNW,299,4.5,9.0,84,0.00,,,0.00,VWS V14.01,2013-06-02 13:10:00,
2013-06-02 09:11:00,69.7,64.3,29.91,West,276,6.0,6.0,83,0.00,,,0.00,VWS V14.01,2013-06-02 13:11:00,
2013-06-02 09:12:00,69.8,64.8,29.91,WNW,286,9.0,9.0,84,0.00,,,0.00,VWS V14.01,2013-06-02 13:12:00,
2013-06-02 09:13:00,69.8,64.8,29.91,WNW,287,9.0,12.0,84,0.00,,,0.00,VWS V14.01,2013-06-02 13:13:00,
2013-06-02 09:14:00,69.8,64.8,29.91,WSW,246,6.0,9.0,84,0.00,,,0.00,VWS V14.01,2013-06-02 13:14:00,
2013-06-02 09:15:00,69.8,64.8,29.91,WSW,246,6.0,9.0,84,0.00,,,0.00,VWS V14.01,2013-06-02 13:15:00,
2013-06-02 09:16:00,69.8,64.4,29.91,WSW,248,10.5,10.5,83,0.00,,,0.00,VWS V14.01,2013-06-02 13:16:00,
2013-06-02 09:17:00,69.8,64.4,29.91,West,265,10.5,12.0,83,0.00,,,0.00,VWS V14.01,2013-06-02 13:17:00,
2013-06-02 09:18:00,69.8,64.1,29.91,West,273,7.5,13.5,82,0.00,,,0.00,VWS V14.01,2013-06-02 13:18:00,
2013-06-02 09:19:00,69.8,64.1,29.91,WNW,291,7.5,10.5,82,0.00,,,0.00,VWS V14.01,2013-06-02 13:19:00,
2013-06-02 09:20:00,69.8,64.1,29.91,WNW,291,7.5,10.5,82,0.00,,,0.00,VWS V14.01,2013-06-02 13:20:00,
2013-06-02 09:21:00,69.8,64.4,29.91,NW,316,4.5,7.5,83,0.00,,,0.00,VWS V14.01,2013-06-02 13:21:00,
2013-06-02 09:22:00,69.8,64.1,29.91,NNW,337,10.5,10.5,82,0.00,,,0.00,VWS V14.01,2013-06-02 13:22:00,
2013-06-02 09:23:00,69.9,64.5,29.91,NW,319,4.5,10.5,83,0.00,,,0.00,VWS V14.01,2013-06-02 13:23:00,
2013-06-02 09:24:00,70.0,64.6,29.91,NNW,345,3.0,9.0,83,0.00,,,0.00,VWS V14.01,2013-06-02 13:24:00,
2013-06-02 09:25:00,70.0,64.6,29.91,NNW,345,3.0,9.0,83,0.00,,,0.00,VWS V14.01,2013-06-02 13:25:00,
2013-06-02 09:26:00,70.0,64.6,29.91,WNW,303,7.5,9.0,83,0.00,,,0.00,VWS V14.01,2013-06-02 13:26:00,
2013-06-02 09:27:00,70.0,64.3,29.91,NNW,339,3.0,9.0,82,0.00,,,0.00,VWS V14.01,2013-06-02 13:27:00,
2013-06-02 09:28:00,70.0,64.3,29.91,WNW,298,4.5,7.5,82,0.00,,,0.00,VWS V14.01,2013-06-02 13:28:00,
2013-06-02 09:29:00,70.1,64.7,29.91,NNW,344,4.5,7.5,83,0.00,,,0.00,VWS V14.01,2013-06-02 13:29:00,
2013-06-02 09:30:00,70.1,64.7,29.91,NNW,327,4.5,7.5,83,0.00,,,0.00,VWS V14.01,2013-06-02 13:30:00,
2013-06-02 09:31:00,70.1,64.4,29.91,WSW,246,7.5,10.5,82,0.00,,,0.00,VWS V14.01,2013-06-02 13:31:00,
2013-06-02 09:32:00,70.1,64.4,29.91,West,281,4.5,9.0,82,0.00,,,0.00,VWS V14.01,2013-06-02 13:32:00,
2013-06-02 09:33:00,70.1,64.4,29.92,NNW,328,9.0,9.0,82,0.00,,,0.00,VWS V14.01,2013-06-02 13:33:00,
2013-06-02 09:34:00,70.2,64.4,29.91,WNW,300,3.0,4.5,82,0.00,,,0.00,VWS V14.01,2013-06-02 13:34:00,
2013-06-02 09:35:00,70.2,64.4,29.91,WNW,300,3.0,4.5,82,0.00,,,0.00,VWS V14.01,2013-06-02 13:35:00,
2013-06-02 09:36:00,70.2,64.4,29.91,NW,310,4.5,4.5,82,0.00,,,0.00,VWS V14.01,2013-06-02 13:36:00,
2013-06-02 09:37:00,70.3,64.6,29.91,WNW,286,3.0,6.0,82,0.00,,,0.00,VWS V14.01,2013-06-02 13:37:00,
2013-06-02 09:38:00,70.3,64.6,29.91,West,272,7.5,7.5,82,0.00,,,0.00,VWS V14.01,2013-06-02 13:38:00,
2013-06-02 09:39:00,70.3,64.2,29.91,West,267,6.0,6.0,81,0.00,,,0.00,VWS V14.01,2013-06-02 13:39:00,
2013-06-02 09:40:00,70.3,64.2,29.91,West,266,6.0,6.0,81,0.00,,,0.00,VWS V14.01,2013-06-02 13:40:00,
2013-06-02 09:41:00,70.4,64.7,29.91,NW,312,6.0,6.0,82,0.00,,,0.00,VWS V14.01,2013-06-02 13:41:00,
2013-06-02 09:42:00,70.4,64.7,29.91,West,268,7.5,7.5,82,0.00,,,0.00,VWS V14.01,2013-06-02 13:42:00,
2013-06-02 09:43:00,70.4,64.3,29.91,West,272,6.0,9.0,81,0.00,,,0.00,VWS V14.01,2013-06-02 13:43:00,
2013-06-02 09:44:00,70.4,64.7,29.91,WSW,244,3.0,6.0,82,0.00,,,0.00,VWS V14.01,2013-06-02 13:44:00,
2013-06-02 09:45:00,70.5,64.8,29.91,WSW,253,3.0,6.0,82,0.00,,,0.00,VWS V14.01,2013-06-02 13:45:00,
2013-06-02 09:46:00,70.5,64.8,29.91,WNW,291,6.0,6.0,82,0.00,,,0.00,VWS V14.01,2013-06-02 13:46:00,
2013-06-02 09:47:00,70.5,64.8,29.91,WNW,285,9.0,9.0,82,0.00,,,0.00,VWS V14.01,2013-06-02 13:47:00,
2013-06-02 09:48:00,70.4,63.9,29.91,WNW,291,7.5,13.5,80,0.00,,,0.00,VWS V14.01,2013-06-02 13:48:00,
2013-06-02 09:49:00,70.3,63.8,29.92,West,264,9.0,9.0,80,0.00,,,0.00,VWS V14.01,2013-06-02 13:49:00,
2013-06-02 09:50:00,70.3,63.8,29.92,WSW,257,10.5,12.0,80,0.00,,,0.00,VWS V14.01,2013-06-02 13:50:00,
2013-06-02 09:51:00,70.2,63.8,29.92,NW,312,6.0,10.5,80,0.00,,,0.00,VWS V14.01,2013-06-02 13:51:00,
2013-06-02 09:52:00,70.2,63.8,29.92,WNW,288,6.0,6.0,80,0.00,,,0.00,VWS V14.01,2013-06-02 13:52:00,
2013-06-02 09:53:00,70.2,64.1,29.92,WNW,284,6.0,9.0,81,0.00,,,0.00,VWS V14.01,2013-06-02 13:53:00,
2013-06-02 09:54:00,70.2,63.8,29.92,West,266,6.0,7.5,80,0.00,,,0.00,VWS V14.01,2013-06-02 13:54:00,
2013-06-02 09:55:00,70.2,63.8,29.92,West,267,6.0,7.5,80,0.00,,,0.00,VWS V14.01,2013-06-02 13:55:00,
2013-06-02 09:56:00,70.2,63.8,29.92,West,268,3.0,7.5,80,0.00,,,0.00,VWS V14.01,2013-06-02 13:56:00,
2013-06-02 09:57:00,70.2,64.1,29.92,WNW,282,4.5,6.0,81,0.00,,,0.00,VWS V14.01,2013-06-02 13:57:00,
2013-06-02 09:58:00,70.2,64.1,29.92,West,275,4.5,4.5,81,0.00,,,0.00,VWS V14.01,2013-06-02 13:58:00,
2013-06-02 09:59:00,70.4,64.7,29.92,WSW,240,4.5,9.0,82,0.00,,,0.00,VWS V14.01,2013-06-02 13:59:00,
2013-06-02 10:00:00,70.4,64.7,29.92,WSW,246,4.5,9.0,82,0.00,,,0.00,VWS V14.01,2013-06-02 14:00:00,
2013-06-02 10:01:00,70.4,64.3,29.92,WSW,244,4.5,7.5,81,0.00,,,0.00,VWS V14.01,2013-06-02 14:01:00,
2013-06-02 10:02:00,70.5,64.4,29.92,West,259,6.0,9.0,81,0.00,,,0.00,VWS V14.01,2013-06-02 14:02:00,
2013-06-02 10:03:00,70.5,64.4,29.92,WSW,252,4.5,9.0,81,0.00,,,0.00,VWS V14.01,2013-06-02 14:03:00,
2013-06-02 10:04:00,70.5,64.0,29.92,West,268,4.5,7.5,80,0.00,,,0.00,VWS V14.01,2013-06-02 14:04:00,
2013-06-02 10:05:00,70.5,64.0,29.92,West,279,6.0,7.5,80,0.00,,,0.00,VWS V14.01,2013-06-02 14:05:00,
2013-06-02 10:06:00,70.4,64.3,29.92,West,271,4.5,7.5,81,0.00,,,0.00,VWS V14.01,2013-06-02 14:06:00,
2013-06-02 10:07:00,70.4,63.9,29.92,WNW,295,4.5,7.5,80,0.00,,,0.00,VWS V14.01,2013-06-02 14:07:00,
2013-06-02 10:08:00,70.4,63.9,29.92,West,269,6.0,6.0,80,0.00,,,0.00,VWS V14.01,2013-06-02 14:08:00,
2013-06-02 10:09:00,70.5,64.4,29.92,WNW,285,1.5,3.0,81,0.00,,,0.00,VWS V14.01,2013-06-02 14:09:00,
2013-06-02 10:10:00,70.5,64.4,29.92,WNW,285,1.5,3.0,81,0.00,,,0.00,VWS V14.01,2013-06-02 14:10:00,
2013-06-02 10:11:00,70.6,64.5,29.92,WSW,246,4.5,4.5,81,0.00,,,0.00,VWS V14.01,2013-06-02 14:11:00,
2013-06-02 10:12:00,70.6,64.1,29.92,NW,321,6.0,9.0,80,0.00,,,0.00,VWS V14.01,2013-06-02 14:12:00,
2013-06-02 10:13:00,70.6,63.8,29.92,West,274,4.5,9.0,79,0.00,,,0.00,VWS V14.01,2013-06-02 14:13:00,
2013-06-02 10:14:00,70.5,63.7,29.92,West,266,9.0,9.0,79,0.00,,,0.00,VWS V14.01,2013-06-02 14:14:00,
2013-06-02 10:15:00,70.5,63.7,29.92,WSW,251,6.0,9.0,79,0.00,,,0.00,VWS V14.01,2013-06-02 14:15:00,
2013-06-02 10:16:00,70.5,63.7,29.92,West,275,7.5,10.5,79,0.00,,,0.00,VWS V14.01,2013-06-02 14:16:00,
2013-06-02 10:17:00,70.4,63.2,29.92,WNW,291,7.5,9.0,78,0.00,,,0.00,VWS V14.01,2013-06-02 14:17:00,
2013-06-02 10:18:00,70.4,63.2,29.92,NW,312,6.0,9.0,78,0.00,,,0.00,VWS V14.01,2013-06-02 14:18:00,
2013-06-02 10:19:00,70.3,63.5,29.92,ENE,61,3.0,4.5,79,0.00,,,0.00,VWS V14.01,2013-06-02 14:19:00,
2013-06-02 10:20:00,70.4,63.6,29.92,ENE,61,3.0,4.5,79,0.00,,,0.00,VWS V14.01,2013-06-02 14:20:00,
2013-06-02 10:21:00,70.4,63.9,29.92,West,265,6.0,6.0,80,0.00,,,0.00,VWS V14.01,2013-06-02 14:21:00,
2013-06-02 10:22:00,70.4,63.6,29.92,West,273,6.0,7.5,79,0.00,,,0.00,VWS V14.01,2013-06-02 14:22:00,
2013-06-02 10:23:00,70.5,63.3,29.92,WNW,287,6.0,6.0,78,0.00,,,0.00,VWS V14.01,2013-06-02 14:23:00,
2013-06-02 10:24:00,70.5,63.3,29.92,West,279,6.0,7.5,78,0.00,,,0.00,VWS V14.01,2013-06-02 14:24:00,
2013-06-02 10:25:00,70.5,63.3,29.92,WSW,252,7.5,7.5,78,0.00,,,0.00,VWS V14.01,2013-06-02 14:25:00,
2013-06-02 10:26:00,70.5,63.3,29.92,WSW,247,7.5,7.5,78,0.00,,,0.00,VWS V14.01,2013-06-02 14:26:00,
2013-06-02 10:27:00,70.5,63.0,29.92,WSW,255,6.0,9.0,77,0.00,,,0.00,VWS V14.01,2013-06-02 14:27:00,
2013-06-02 10:28:00,70.5,63.3,29.92,West,271,3.0,6.0,78,0.00,,,0.00,VWS V14.01,2013-06-02 14:28:00,
2013-06-02 10:29:00,70.5,63.3,29.92,West,273,6.0,6.0,78,0.00,,,0.00,VWS V14.01,2013-06-02 14:29:00,
2013-06-02 10:30:00,70.5,63.3,29.92,West,262,4.5,6.0,78,0.00,,,0.00,VWS V14.01,2013-06-02 14:30:00,
2013-06-02 10:31:00,70.5,63.0,29.92,West,271,1.5,4.5,77,0.00,,,0.00,VWS V14.01,2013-06-02 14:31:00,
2013-06-02 10:32:00,70.6,63.4,29.92,NE,46,4.5,4.5,78,0.00,,,0.00,VWS V14.01,2013-06-02 14:32:00,
2013-06-02 10:33:00,70.6,63.4,29.92,NE,41,1.5,4.5,78,0.00,,,0.00,VWS V14.01,2013-06-02 14:33:00,
2013-06-02 10:34:00,70.8,64.0,29.92,WSW,242,4.5,6.0,79,0.00,,,0.00,VWS V14.01,2013-06-02 14:34:00,
2013-06-02 10:35:00,70.8,64.0,29.92,WSW,257,3.0,6.0,79,0.00,,,0.00,VWS V14.01,2013-06-02 14:35:00,
2013-06-02 10:36:00,71.0,64.2,29.92,SW,229,7.5,7.5,79,0.00,,,0.00,VWS V14.01,2013-06-02 14:36:00,
2013-06-02 10:37:00,71.0,63.8,29.93,WSW,254,4.5,10.5,78,0.00,,,0.00,VWS V14.01,2013-06-02 14:37:00,
2013-06-02 10:38:00,70.9,64.1,29.93,WSW,252,6.0,10.5,79,0.00,,,0.00,VWS V14.01,2013-06-02 14:38:00,
2013-06-02 10:39:00,70.8,63.6,29.93,WSW,257,3.0,9.0,78,0.00,,,0.00,VWS V14.01,2013-06-02 14:39:00,
2013-06-02 10:40:00,70.8,63.6,29.93,SW,229,6.0,9.0,78,0.00,,,0.00,VWS V14.01,2013-06-02 14:40:00,
2013-06-02 10:41:00,70.8,63.6,29.93,WSW,244,7.5,7.5,78,0.00,,,0.00,VWS V14.01,2013-06-02 14:41:00,
2013-06-02 10:42:00,70.7,63.5,29.93,WSW,258,3.0,7.5,78,0.00,,,0.00,VWS V14.01,2013-06-02 14:42:00,
2013-06-02 10:43:00,70.7,63.5,29.93,West,260,3.0,6.0,78,0.00,,,0.00,VWS V14.01,2013-06-02 14:43:00,
2013-06-02 10:44:00,70.8,63.2,29.93,West,265,3.0,6.0,77,0.00,,,0.00,VWS V14.01,2013-06-02 14:44:00,
2013-06-02 10:45:00,70.8,63.2,29.93,West,274,4.5,6.0,77,0.00,,,0.00,VWS V14.01,2013-06-02 14:45:00,
2013-06-02 10:46:00,70.9,63.7,29.93,WNW,291,3.0,4.5,78,0.00,,,0.00,VWS V14.01,2013-06-02 14:46:00,
2013-06-02 10:47:00,70.9,63.7,29.93,WNW,287,4.5,7.5,78,0.00,,,0.00,VWS V14.01,2013-06-02 14:47:00,
2013-06-02 10:48:00,70.9,63.7,29.93,SW,223,4.5,9.0,78,0.00,,,0.00,VWS V14.01,2013-06-02 14:48:00,
2013-06-02 10:49:00,70.9,63.3,29.93,West,261,6.0,9.0,77,0.00,,,0.00,VWS V14.01,2013-06-02 14:49:00,
2013-06-02 10:50:00,70.9,63.7,29.93,SW,216,7.5,9.0,78,0.00,,,0.00,VWS V14.01,2013-06-02 14:50:00,
2013-06-02 10:51:00,70.9,63.3,29.93,WSW,237,10.5,10.5,77,0.00,,,0.00,VWS V14.01,2013-06-02 14:51:00,
2013-06-02 10:52:00,70.9,63.3,29.93,West,271,6.0,10.5,77,0.00,,,0.00,VWS V14.01,2013-06-02 14:52:00,
2013-06-02 10:53:00,70.9,63.7,29.93,SW,223,6.0,7.5,78,0.00,,,0.00,VWS V14.01,2013-06-02 14:53:00,
2013-06-02 10:54:00,70.9,63.3,29.93,WSW,247,9.0,10.5,77,0.00,,,0.00,VWS V14.01,2013-06-02 14:54:00,
2013-06-02 10:55:00,70.9,63.3,29.93,SW,227,9.0,10.5,77,0.00,,,0.00,VWS V14.01,2013-06-02 14:55:00,
2013-06-02 10:56:00,70.9,63.7,29.93,South,189,4.5,9.0,78,0.00,,,0.00,VWS V14.01,2013-06-02 14:56:00,
2013-06-02 10:57:00,71.0,63.8,29.93,WSW,250,9.0,9.0,78,0.00,,,0.00,VWS V14.01,2013-06-02 14:57:00,
2013-06-02 10:58:00,71.0,63.8,29.93,WSW,241,6.0,12.0,78,0.00,,,0.00,VWS V14.01,2013-06-02 14:58:00,
2013-06-02 10:59:00,71.1,63.5,29.93,WSW,258,6.0,6.0,77,0.00,,,0.00,VWS V14.01,2013-06-02 14:59:00,
2013-06-02 11:00:00,71.1,63.5,29.93,SW,224,6.0,7.5,77,0.00,,,0.00,VWS V14.01,2013-06-02 15:00:00,
2013-06-02 11:01:00,71.1,63.5,29.94,West,274,6.0,9.0,77,0.00,,,0.00,VWS V14.01,2013-06-02 15:01:00,
2013-06-02 11:02:00,71.1,62.8,29.94,West,272,3.0,9.0,75,0.00,,,0.00,VWS V14.01,2013-06-02 15:02:00,
2013-06-02 11:03:00,71.2,63.3,29.93,West,267,6.0,6.0,76,0.00,,,0.00,VWS V14.01,2013-06-02 15:03:00,
2013-06-02 11:04:00,71.3,63.3,29.93,WSW,252,6.0,6.0,76,0.00,,,0.00,VWS V14.01,2013-06-02 15:04:00,
2013-06-02 11:05:00,71.3,63.3,29.93,WSW,255,4.5,6.0,76,0.00,,,0.00,VWS V14.01,2013-06-02 15:05:00,
2013-06-02 11:06:00,71.4,63.5,29.93,West,265,3.0,4.5,76,0.00,,,0.00,VWS V14.01,2013-06-02 15:06:00,
2013-06-02 11:07:00,71.4,63.8,29.93,WSW,240,6.0,9.0,77,0.00,,,0.00,VWS V14.01,2013-06-02 15:07:00,
2013-06-02 11:08:00,71.5,63.9,29.93,WSW,237,4.5,6.0,77,0.00,,,0.00,VWS V14.01,2013-06-02 15:08:00,
2013-06-02 11:09:00,71.5,63.5,29.93,WSW,258,6.0,7.5,76,0.00,,,0.00,VWS V14.01,2013-06-02 15:09:00,
2013-06-02 11:10:00,71.5,63.5,29.93,WSW,241,6.0,7.5,76,0.00,,,0.00,VWS V14.01,2013-06-02 15:10:00,
2013-06-02 11:11:00,71.5,63.5,29.93,West,276,4.5,6.0,76,0.00,,,0.00,VWS V14.01,2013-06-02 15:11:00,
2013-06-02 11:12:00,71.5,63.5,29.93,West,269,4.5,4.5,76,0.00,,,0.00,VWS V14.01,2013-06-02 15:12:00,
2013-06-02 11:13:00,71.6,64.0,29.93,West,265,3.0,4.5,77,0.00,,,0.00,VWS V14.01,2013-06-02 15:13:00,
2013-06-02 11:14:00,71.8,63.8,29.93,WSW,257,4.5,4.5,76,0.00,,,0.00,VWS V14.01,2013-06-02 15:14:00,
2013-06-02 11:15:00,71.8,63.8,29.93,West,272,7.5,7.5,76,0.00,,,0.00,VWS V14.01,2013-06-02 15:15:00,
2013-06-02 11:16:00,71.8,63.1,29.94,West,274,6.0,9.0,74,0.00,,,0.00,VWS V14.01,2013-06-02 15:16:00,
2013-06-02 11:17:00,71.9,63.5,29.93,WSW,252,6.0,7.5,75,0.00,,,0.00,VWS V14.01,2013-06-02 15:17:00,
2013-06-02 11:18:00,71.8,63.5,29.94,WSW,253,4.5,7.5,75,0.00,,,0.00,VWS V14.01,2013-06-02 15:18:00,
2013-06-02 11:19:00,71.8,63.5,29.94,SW,220,6.0,7.5,75,0.00,,,0.00,VWS V14.01,2013-06-02 15:19:00,
2013-06-02 11:20:00,71.8,63.5,29.94,SW,220,7.5,10.5,75,0.00,,,0.00,VWS V14.01,2013-06-02 15:20:00,
2013-06-02 11:21:00,71.8,63.5,29.93,SSW,200,6.0,10.5,75,0.00,,,0.00,VWS V14.01,2013-06-02 15:21:00,
2013-06-02 11:22:00,71.8,63.8,29.93,WSW,251,7.5,9.0,76,0.00,,,0.00,VWS V14.01,2013-06-02 15:22:00,
2013-06-02 11:23:00,71.8,63.5,29.93,West,281,6.0,9.0,75,0.00,,,0.00,VWS V14.01,2013-06-02 15:23:00,
2013-06-02 11:24:00,71.7,62.6,29.93,West,279,6.0,7.5,73,0.00,,,0.00,VWS V14.01,2013-06-02 15:24:00,
2013-06-02 11:25:00,71.7,62.6,29.93,West,276,3.0,7.5,73,0.00,,,0.00,VWS V14.01,2013-06-02 15:25:00,
2013-06-02 11:26:00,71.7,62.6,29.93,West,269,4.5,7.5,73,0.00,,,0.00,VWS V14.01,2013-06-02 15:26:00,
2013-06-02 11:27:00,71.8,62.7,29.93,West,271,3.0,4.5,73,0.00,,,0.00,VWS V14.01,2013-06-02 15:27:00,
2013-06-02 11:28:00,71.8,62.7,29.93,West,272,1.5,3.0,73,0.00,,,0.00,VWS V14.01,2013-06-02 15:28:00,
2013-06-02 11:29:00,72.1,63.8,29.93,WNW,296,3.0,4.5,75,0.00,,,0.00,VWS V14.01,2013-06-02 15:29:00,
2013-06-02 11:30:00,72.1,63.8,29.93,WNW,288,1.5,4.5,75,0.00,,,0.00,VWS V14.01,2013-06-02 15:30:00,
2013-06-02 11:31:00,72.3,63.9,29.93,WSW,246,9.0,9.0,75,0.00,,,0.00,VWS V14.01,2013-06-02 15:31:00,
2013-06-02 11:32:00,72.4,63.3,29.93,WNW,282,6.0,10.5,73,0.00,,,0.00,VWS V14.01,2013-06-02 15:32:00,
2013-06-02 11:33:00,72.5,63.4,29.93,NW,313,6.0,9.0,73,0.00,,,0.00,VWS V14.01,2013-06-02 15:33:00,
2013-06-02 11:34:00,72.6,63.8,29.93,NW,321,4.5,6.0,74,0.00,,,0.00,VWS V14.01,2013-06-02 15:34:00,
2013-06-02 11:35:00,72.7,63.5,29.93,NW,305,6.0,6.0,73,0.00,,,0.00,VWS V14.01,2013-06-02 15:35:00,
2013-06-02 11:36:00,72.8,63.7,29.93,West,262,4.5,6.0,73,0.00,,,0.00,VWS V14.01,2013-06-02 15:36:00,
2013-06-02 11:37:00,72.8,62.5,29.94,NW,321,7.5,9.0,70,0.00,,,0.00,VWS V14.01,2013-06-02 15:37:00,
2013-06-02 11:38:00,72.9,62.1,29.94,WNW,296,6.0,10.5,69,0.00,,,0.00,VWS V14.01,2013-06-02 15:38:00,
2013-06-02 11:39:00,72.8,62.0,29.94,WNW,293,6.0,6.0,69,0.00,,,0.00,VWS V14.01,2013-06-02 15:39:00,
2013-06-02 11:40:00,72.8,62.0,29.94,WNW,291,7.5,7.5,69,0.00,,,0.00,VWS V14.01,2013-06-02 15:40:00,
2013-06-02 11:41:00,72.8,62.5,29.93,West,276,3.0,7.5,70,0.00,,,0.00,VWS V14.01,2013-06-02 15:41:00,
2013-06-02 11:42:00,72.8,62.9,29.93,WSW,252,10.5,10.5,71,0.00,,,0.00,VWS V14.01,2013-06-02 15:42:00,
2013-06-02 11:43:00,73.0,63.5,29.93,SSW,210,10.5,13.5,72,0.00,,,0.00,VWS V14.01,2013-06-02 15:43:00,
2013-06-02 11:44:00,73.0,63.5,29.93,SSW,206,4.5,6.0,72,0.00,,,0.00,VWS V14.01,2013-06-02 15:44:00,
2013-06-02 11:45:00,73.0,63.5,29.93,WSW,255,1.5,6.0,72,0.00,,,0.00,VWS V14.01,2013-06-02 15:45:00,
2013-06-02 11:46:00,73.0,63.8,29.93,SW,232,9.0,9.0,73,0.00,,,0.00,VWS V14.01,2013-06-02 15:46:00,
2013-06-02 11:47:00,73.0,62.7,29.94,SSW,203,4.5,9.0,70,0.00,,,0.00,VWS V14.01,2013-06-02 15:47:00,
2013-06-02 11:48:00,73.0,63.0,29.93,SW,220,1.5,6.0,71,0.00,,,0.00,VWS V14.01,2013-06-02 15:48:00,
2013-06-02 11:49:00,73.0,63.8,29.93,SSW,206,9.0,9.0,73,0.00,,,0.00,VWS V14.01,2013-06-02 15:49:00,
2013-06-02 11:50:00,73.0,63.8,29.93,WSW,246,7.5,9.0,73,0.00,,,0.00,VWS V14.01,2013-06-02 15:50:00,
2013-06-02 11:51:00,73.1,63.9,29.94,SSW,206,7.5,10.5,73,0.00,,,0.00,VWS V14.01,2013-06-02 15:51:00,
2013-06-02 11:52:00,73.0,63.8,29.93,SW,231,6.0,7.5,73,0.00,,,0.00,VWS V14.01,2013-06-02 15:52:00,
2013-06-02 11:53:00,72.9,63.8,29.93,West,273,6.0,6.0,73,0.00,,,0.00,VWS V14.01,2013-06-02 15:53:00,
2013-06-02 11:54:00,73.0,64.2,29.93,WSW,239,4.5,9.0,74,0.00,,,0.00,VWS V14.01,2013-06-02 15:54:00,
2013-06-02 11:55:00,73.0,64.2,29.93,WSW,255,4.5,9.0,74,0.00,,,0.00,VWS V14.01,2013-06-02 15:55:00,
2013-06-02 11:56:00,73.1,65.1,29.93,WSW,237,3.0,6.0,76,0.00,,,0.00,VWS V14.01,2013-06-02 15:56:00,
2013-06-02 11:57:00,73.2,64.8,29.93,SW,231,7.5,7.5,75,0.00,,,0.00,VWS V14.01,2013-06-02 15:57:00,
2013-06-02 11:58:00,73.3,64.9,29.93,SW,219,3.0,7.5,75,0.00,,,0.00,VWS V14.01,2013-06-02 15:58:00,
2013-06-02 11:59:00,73.4,65.0,29.93,SW,216,3.0,6.0,75,0.00,,,0.00,VWS V14.01,2013-06-02 15:59:00,
2013-06-02 12:00:00,73.5,65.1,29.93,SW,234,6.0,7.5,75,0.00,,,0.00,VWS V14.01,2013-06-02 16:00:00,
2013-06-02 12:01:00,73.5,65.1,29.93,West,266,1.5,6.0,75,0.00,,,0.00,VWS V14.01,2013-06-02 16:01:00,
2013-06-02 12:02:00,73.6,64.8,29.93,SW,228,7.5,7.5,74,0.00,,,0.00,VWS V14.01,2013-06-02 16:02:00,
2013-06-02 12:03:00,73.6,65.2,29.93,SW,219,6.0,7.5,75,0.00,,,0.00,VWS V14.01,2013-06-02 16:03:00,
2013-06-02 12:04:00,73.7,65.3,29.94,SW,234,6.0,10.5,75,0.00,,,0.00,VWS V14.01,2013-06-02 16:04:00,
2013-06-02 12:05:00,73.6,64.4,29.94,WSW,239,6.0,10.5,73,0.00,,,0.00,VWS V14.01,2013-06-02 16:05:00,
2013-06-02 12:06:00,73.5,64.3,29.94,SW,223,6.0,6.0,73,0.00,,,0.00,VWS V14.01,2013-06-02 16:06:00,
2013-06-02 12:07:00,73.5,64.7,29.93,SW,220,7.5,7.5,74,0.00,,,0.00,VWS V14.01,2013-06-02 16:07:00,
2013-06-02 12:08:00,73.5,64.3,29.93,South,175,3.0,7.5,73,0.00,,,0.00,VWS V14.01,2013-06-02 16:08:00,
2013-06-02 12:09:00,73.6,64.4,29.93,SW,229,4.5,6.0,73,0.00,,,0.00,VWS V14.01,2013-06-02 16:09:00,
2013-06-02 12:10:00,73.7,64.5,29.93,WSW,248,3.0,6.0,73,0.00,,,0.00,VWS V14.01,2013-06-02 16:10:00,
2013-06-02 12:11:00,73.8,64.6,29.94,West,262,6.0,6.0,73,0.00,,,0.00,VWS V14.01,2013-06-02 16:11:00,
2013-06-02 12:12:00,73.8,64.2,29.94,West,276,3.0,7.5,72,0.00,,,0.00,VWS V14.01,2013-06-02 16:12:00,
2013-06-02 12:13:00,73.8,64.2,29.94,West,264,4.5,4.5,72,0.00,,,0.00,VWS V14.01,2013-06-02 16:13:00,
2013-06-02 12:14:00,73.9,64.3,29.94,West,260,6.0,6.0,72,0.00,,,0.00,VWS V14.01,2013-06-02 16:14:00,
2013-06-02 12:15:00,73.9,64.3,29.94,WSW,239,6.0,10.5,72,0.00,,,0.00,VWS V14.01,2013-06-02 16:15:00,
2013-06-02 12:16:00,73.9,64.7,29.94,WSW,258,7.5,9.0,73,0.00,,,0.00,VWS V14.01,2013-06-02 16:16:00,
2013-06-02 12:17:00,73.8,64.2,29.94,West,281,6.0,10.5,72,0.00,,,0.00,VWS V14.01,2013-06-02 16:17:00,
2013-06-02 12:18:00,73.8,64.6,29.94,West,262,3.0,7.5,73,0.00,,,0.00,VWS V14.01,2013-06-02 16:18:00,
2013-06-02 12:19:00,73.7,64.1,29.94,WNW,293,6.0,7.5,72,0.00,,,0.00,VWS V14.01,2013-06-02 16:19:00,
2013-06-02 12:20:00,73.8,64.6,29.94,NW,310,1.5,7.5,73,0.00,,,0.00,VWS V14.01,2013-06-02 16:20:00,
2013-06-02 12:21:00,73.8,65.0,29.94,WSW,254,6.0,6.0,74,0.00,,,0.00,VWS V14.01,2013-06-02 16:21:00,
2013-06-02 12:22:00,73.9,64.7,29.94,NW,312,4.5,7.5,73,0.00,,,0.00,VWS V14.01,2013-06-02 16:22:00,
2013-06-02 12:23:00,74.0,64.8,29.93,West,278,3.0,4.5,73,0.00,,,0.00,VWS V14.01,2013-06-02 16:23:00,
2013-06-02 12:24:00,74.1,64.9,29.93,West,269,4.5,6.0,73,0.00,,,0.00,VWS V14.01,2013-06-02 16:24:00,
2013-06-02 12:25:00,74.1,64.5,29.93,West,262,4.5,7.5,72,0.00,,,0.00,VWS V14.01,2013-06-02 16:25:00,
2013-06-02 12:26:00,74.2,65.0,29.93,SSW,209,7.5,7.5,73,0.00,,,0.00,VWS V14.01,2013-06-02 16:26:00,
2013-06-02 12:27:00,74.2,64.6,29.93,WNW,291,10.5,10.5,72,0.00,,,0.00,VWS V14.01,2013-06-02 16:27:00,
2013-06-02 12:28:00,74.1,64.1,29.94,West,269,4.5,10.5,71,0.00,,,0.00,VWS V14.01,2013-06-02 16:28:00,
2013-06-02 12:29:00,74.0,64.4,29.94,West,260,3.0,6.0,72,0.00,,,0.00,VWS V14.01,2013-06-02 16:29:00,
2013-06-02 12:30:00,74.0,64.4,29.94,West,268,7.5,7.5,72,0.00,,,0.00,VWS V14.01,2013-06-02 16:30:00,
2013-06-02 12:31:00,74.0,64.4,29.94,NW,305,3.0,7.5,72,0.00,,,0.00,VWS V14.01,2013-06-02 16:31:00,
2013-06-02 12:32:00,73.9,64.3,29.94,WSW,237,4.5,4.5,72,0.00,,,0.00,VWS V14.01,2013-06-02 16:32:00,
2013-06-02 12:33:00,74.0,64.4,29.94,SW,220,6.0,6.0,72,0.00,,,0.00,VWS V14.01,2013-06-02 16:33:00,
2013-06-02 12:34:00,74.0,64.4,29.94,WNW,287,4.5,4.5,72,0.00,,,0.00,VWS V14.01,2013-06-02 16:34:00,
2013-06-02 12:35:00,74.0,64.4,29.94,NW,309,4.5,6.0,72,0.00,,,0.00,VWS V14.01,2013-06-02 16:35:00,
2013-06-02 12:36:00,74.0,64.4,29.94,NW,310,4.5,7.5,72,0.00,,,0.00,VWS V14.01,2013-06-02 16:36:00,
2013-06-02 12:37:00,74.1,64.9,29.94,NW,310,6.0,7.5,73,0.00,,,0.00,VWS V14.01,2013-06-02 16:37:00,
2013-06-02 12:38:00,74.2,65.0,29.94,West,269,7.5,7.5,73,0.00,,,0.00,VWS V14.01,2013-06-02 16:38:00,
2013-06-02 12:39:00,74.2,64.6,29.93,NW,305,6.0,6.0,72,0.00,,,0.00,VWS V14.01,2013-06-02 16:39:00,
2013-06-02 12:40:00,74.1,64.5,29.93,West,279,4.5,7.5,72,0.00,,,0.00,VWS V14.01,2013-06-02 16:40:00,
2013-06-02 12:41:00,74.1,64.9,29.93,WNW,299,3.0,4.5,73,0.00,,,0.00,VWS V14.01,2013-06-02 16:41:00,
2013-06-02 12:42:00,74.2,64.6,29.93,WSW,241,4.5,6.0,72,0.00,,,0.00,VWS V14.01,2013-06-02 16:42:00,
2013-06-02 12:43:00,74.3,65.1,29.93,SW,226,1.5,4.5,73,0.00,,,0.00,VWS V14.01,2013-06-02 16:43:00,
2013-06-02 12:44:00,74.5,64.9,29.94,SW,219,4.5,9.0,72,0.00,,,0.00,VWS V14.01,2013-06-02 16:44:00,
2013-06-02 12:45:00,74.5,64.5,29.94,SSW,205,7.5,9.0,71,0.00,,,0.00,VWS V14.01,2013-06-02 16:45:00,
2013-06-02 12:46:00,74.5,64.5,29.93,West,268,4.5,7.5,71,0.00,,,0.00,VWS V14.01,2013-06-02 16:46:00,
2013-06-02 12:47:00,74.6,64.2,29.93,WSW,255,9.0,9.0,70,0.00,,,0.00,VWS V14.01,2013-06-02 16:47:00,
2013-06-02 12:48:00,74.5,64.1,29.93,West,271,6.0,9.0,70,0.00,,,0.00,VWS V14.01,2013-06-02 16:48:00,
2013-06-02 12:49:00,74.5,64.5,29.93,SW,231,1.5,3.0,71,0.00,,,0.00,VWS V14.01,2013-06-02 16:49:00,
2013-06-02 12:50:00,74.6,64.6,29.93,West,271,4.5,6.0,71,0.00,,,0.00,VWS V14.01,2013-06-02 16:50:00,
2013-06-02 12:51:00,74.6,64.6,29.93,WNW,288,1.5,4.5,71,0.00,,,0.00,VWS V14.01,2013-06-02 16:51:00,
2013-06-02 12:52:00,74.6,64.2,29.93,SSW,198,3.0,4.5,70,0.00,,,0.00,VWS V14.01,2013-06-02 16:52:00,
2013-06-02 12:53:00,74.7,64.7,29.93,WSW,240,4.5,4.5,71,0.00,,,0.00,VWS V14.01,2013-06-02 16:53:00,
2013-06-02 12:54:00,74.8,64.4,29.93,WSW,251,4.5,4.5,70,0.00,,,0.00,VWS V14.01,2013-06-02 16:54:00,
2013-06-02 12:55:00,74.8,64.4,29.93,WSW,251,3.0,4.5,70,0.00,,,0.00,VWS V14.01,2013-06-02 16:55:00,
2013-06-02 12:56:00,74.8,64.8,29.93,SW,214,6.0,7.5,71,0.00,,,0.00,VWS V14.01,2013-06-02 16:56:00,
2013-06-02 12:57:00,74.9,64.9,29.93,SE,139,3.0,7.5,71,0.00,,,0.00,VWS V14.01,2013-06-02 16:57:00,
2013-06-02 12:58:00,74.9,64.9,29.93,SE,139,6.0,7.5,71,0.00,,,0.00,VWS V14.01,2013-06-02 16:58:00,
2013-06-02 12:59:00,75.0,64.2,29.92,ESE,116,1.5,1.5,69,0.00,,,0.00,VWS V14.01,2013-06-02 16:59:00,
2013-06-02 13:00:00,75.1,64.2,29.92,SSW,203,9.0,10.5,69,0.00,,,0.00,VWS V14.01,2013-06-02 17:00:00,
2013-06-02 13:01:00,75.1,63.8,29.92,SW,226,4.5,7.5,68,0.00,,,0.00,VWS V14.01,2013-06-02 17:01:00,
2013-06-02 13:02:00,75.1,64.2,29.92,West,261,1.5,4.5,69,0.00,,,0.00,VWS V14.01,2013-06-02 17:02:00,
2013-06-02 13:03:00,75.2,64.8,29.92,West,265,1.5,1.5,70,0.00,,,0.00,VWS V14.01,2013-06-02 17:03:00,
2013-06-02 13:04:00,75.3,64.4,29.92,ESE,119,4.5,4.5,69,0.00,,,0.00,VWS V14.01,2013-06-02 17:04:00,
2013-06-02 13:05:00,75.4,64.5,29.92,SSW,212,4.5,6.0,69,0.00,,,0.00,VWS V14.01,2013-06-02 17:05:00,
2013-06-02 13:06:00,75.5,65.0,29.92,West,266,3.0,7.5,70,0.00,,,0.00,VWS V14.01,2013-06-02 17:06:00,
2013-06-02 13:07:00,75.6,65.1,29.92,WSW,246,4.5,4.5,70,0.00,,,0.00,VWS V14.01,2013-06-02 17:07:00,
2013-06-02 13:08:00,75.7,64.4,29.92,SSW,196,3.0,6.0,68,0.00,,,0.00,VWS V14.01,2013-06-02 17:08:00,
2013-06-02 13:09:00,75.7,64.8,29.92,WSW,246,4.5,4.5,69,0.00,,,0.00,VWS V14.01,2013-06-02 17:09:00,
2013-06-02 13:10:00,75.7,64.8,29.92,West,268,3.0,4.5,69,0.00,,,0.00,VWS V14.01,2013-06-02 17:10:00,
2013-06-02 13:11:00,75.7,65.2,29.92,WSW,241,6.0,6.0,70,0.00,,,0.00,VWS V14.01,2013-06-02 17:11:00,
2013-06-02 13:12:00,75.7,64.0,29.92,SW,226,3.0,7.5,67,0.00,,,0.00,VWS V14.01,2013-06-02 17:12:00,
2013-06-02 13:13:00,75.7,64.0,29.92,South,186,1.5,4.5,67,0.00,,,0.00,VWS V14.01,2013-06-02 17:13:00,
2013-06-02 13:14:00,75.9,64.6,29.92,SSW,213,1.5,3.0,68,0.00,,,0.00,VWS V14.01,2013-06-02 17:14:00,
2013-06-02 13:15:00,76.0,64.7,29.92,ESE,111,3.0,6.0,68,0.00,,,0.00,VWS V14.01,2013-06-02 17:15:00,
2013-06-02 13:16:00,76.1,64.8,29.92,SW,227,7.5,7.5,68,0.00,,,0.00,VWS V14.01,2013-06-02 17:16:00,
2013-06-02 13:17:00,76.2,64.9,29.92,WSW,246,3.0,9.0,68,0.00,,,0.00,VWS V14.01,2013-06-02 17:17:00,
2013-06-02 13:18:00,76.3,64.6,29.92,SW,233,1.5,7.5,67,0.00,,,0.00,VWS V14.01,2013-06-02 17:18:00,
2013-06-02 13:19:00,76.3,65.0,29.92,WSW,250,3.0,3.0,68,0.00,,,0.00,VWS V14.01,2013-06-02 17:19:00,
2013-06-02 13:20:00,76.4,65.1,29.92,West,262,4.5,4.5,68,0.00,,,0.00,VWS V14.01,2013-06-02 17:20:00,
2013-06-02 13:21:00,76.4,64.6,29.92,SW,223,6.0,6.0,67,0.00,,,0.00,VWS V14.01,2013-06-02 17:21:00,
2013-06-02 13:22:00,76.3,64.1,29.92,West,268,3.0,6.0,66,0.00,,,0.00,VWS V14.01,2013-06-02 17:22:00,
2013-06-02 13:23:00,76.3,64.6,29.92,West,272,1.5,3.0,67,0.00,,,0.00,VWS V14.01,2013-06-02 17:23:00,
2013-06-02 13:24:00,76.4,65.1,29.91,SE,129,1.5,1.5,68,0.00,,,0.00,VWS V14.01,2013-06-02 17:24:00,
2013-06-02 13:25:00,76.5,65.2,29.91,SSW,210,3.0,3.0,68,0.00,,,0.00,VWS V14.01,2013-06-02 17:25:00,
2013-06-02 13:26:00,76.6,65.3,29.91,WSW,251,3.0,4.5,68,0.00,,,0.00,VWS V14.01,2013-06-02 17:26:00,
2013-06-02 13:27:00,76.8,65.4,29.91,SW,229,4.5,4.5,68,0.00,,,0.00,VWS V14.01,2013-06-02 17:27:00,
2013-06-02 13:28:00,77.0,66.1,29.91,SW,225,3.0,4.5,69,0.00,,,0.00,VWS V14.01,2013-06-02 17:28:00,
2013-06-02 13:29:00,77.2,65.0,29.91,SW,226,4.5,4.5,66,0.00,,,0.00,VWS V14.01,2013-06-02 17:29:00,
2013-06-02 13:30:00,77.2,65.4,29.91,SSE,153,1.5,4.5,67,0.00,,,0.00,VWS V14.01,2013-06-02 17:30:00,
2013-06-02 13:31:00,77.3,65.1,29.91,WSW,237,7.5,7.5,66,0.00,,,0.00,VWS V14.01,2013-06-02 17:31:00,
2013-06-02 13:32:00,77.3,64.6,29.91,SW,230,6.0,9.0,65,0.00,,,0.00,VWS V14.01,2013-06-02 17:32:00,
2013-06-02 13:33:00,77.1,64.4,29.91,WNW,285,6.0,7.5,65,0.00,,,0.00,VWS V14.01,2013-06-02 17:33:00,
2013-06-02 13:34:00,77.0,64.3,29.92,SW,229,9.0,12.0,65,0.00,,,0.00,VWS V14.01,2013-06-02 17:34:00,
2013-06-02 13:35:00,76.9,64.2,29.92,SW,229,6.0,12.0,65,0.00,,,0.00,VWS V14.01,2013-06-02 17:35:00,
2013-06-02 13:36:00,76.7,64.5,29.92,SW,219,4.5,7.5,66,0.00,,,0.00,VWS V14.01,2013-06-02 17:36:00,
2013-06-02 13:37:00,76.6,64.4,29.91,SW,216,3.0,7.5,66,0.00,,,0.00,VWS V14.01,2013-06-02 17:37:00,
2013-06-02 13:38:00,76.6,64.4,29.92,SE,130,4.5,4.5,66,0.00,,,0.00,VWS V14.01,2013-06-02 17:38:00,
2013-06-02 13:39:00,76.6,64.8,29.91,West,272,4.5,7.5,67,0.00,,,0.00,VWS V14.01,2013-06-02 17:39:00,
2013-06-02 13:40:00,76.6,64.8,29.91,SSW,198,10.5,10.5,67,0.00,,,0.00,VWS V14.01,2013-06-02 17:40:00,
2013-06-02 13:41:00,76.6,64.0,29.91,SSE,158,3.0,10.5,65,0.00,,,0.00,VWS V14.01,2013-06-02 17:41:00,
2013-06-02 13:42:00,76.6,64.8,29.91,SSW,196,9.0,10.5,67,0.00,,,0.00,VWS V14.01,2013-06-02 17:42:00,
2013-06-02 13:43:00,76.7,65.8,29.91,SE,126,3.0,10.5,69,0.00,,,0.00,VWS V14.01,2013-06-02 17:43:00,
2013-06-02 13:44:00,76.8,65.9,29.91,WSW,253,6.0,6.0,69,0.00,,,0.00,VWS V14.01,2013-06-02 17:44:00,
2013-06-02 13:45:00,76.9,65.1,29.91,WSW,241,15.0,15.0,67,0.00,,,0.00,VWS V14.01,2013-06-02 17:45:00,
2013-06-02 13:46:00,76.8,64.6,29.91,WSW,246,6.0,15.0,66,0.00,,,0.00,VWS V14.01,2013-06-02 17:46:00,
2013-06-02 13:47:00,76.9,65.1,29.91,SSW,211,7.5,13.5,67,0.00,,,0.00,VWS V14.01,2013-06-02 17:47:00,
2013-06-02 13:48:00,76.9,65.1,29.91,WSW,243,6.0,10.5,67,0.00,,,0.00,VWS V14.01,2013-06-02 17:48:00,
2013-06-02 13:49:00,76.8,64.2,29.91,SW,217,4.5,7.5,65,0.00,,,0.00,VWS V14.01,2013-06-02 17:49:00,
2013-06-02 13:50:00,76.8,64.2,29.91,WSW,243,9.0,9.0,65,0.00,,,0.00,VWS V14.01,2013-06-02 17:50:00,
2013-06-02 13:51:00,76.8,65.0,29.91,SW,229,7.5,12.0,67,0.00,,,0.00,VWS V14.01,2013-06-02 17:51:00,
2013-06-02 13:52:00,76.8,65.0,29.91,WSW,246,10.5,12.0,67,0.00,,,0.00,VWS V14.01,2013-06-02 17:52:00,
2013-06-02 13:53:00,76.8,64.6,29.91,WSW,257,6.0,12.0,66,0.00,,,0.00,VWS V14.01,2013-06-02 17:53:00,
2013-06-02 13:54:00,76.8,65.4,29.91,SSW,210,10.5,10.5,68,0.00,,,0.00,VWS V14.01,2013-06-02 17:54:00,
2013-06-02 13:55:00,76.8,65.0,29.91,SW,223,4.5,10.5,67,0.00,,,0.00,VWS V14.01,2013-06-02 17:55:00,
2013-06-02 13:56:00,76.8,65.0,29.91,WNW,288,3.0,6.0,67,0.00,,,0.00,VWS V14.01,2013-06-02 17:56:00,
2013-06-02 13:57:00,76.8,65.0,29.91,SW,236,7.5,12.0,67,0.00,,,0.00,VWS V14.01,2013-06-02 17:57:00,
2013-06-02 13:58:00,76.9,65.1,29.91,West,268,6.0,7.5,67,0.00,,,0.00,VWS V14.01,2013-06-02 17:58:00,
2013-06-02 13:59:00,77.0,65.2,29.91,WSW,248,4.5,4.5,67,0.00,,,0.00,VWS V14.01,2013-06-02 17:59:00,
2013-06-02 14:00:00,77.0,65.6,29.91,West,265,4.5,6.0,68,0.00,,,0.00,VWS V14.01,2013-06-02 18:00:00,
2013-06-02 14:01:00,77.2,66.2,29.91,West,279,6.0,9.0,69,0.00,,,0.00,VWS V14.01,2013-06-02 18:01:00,
2013-06-02 14:02:00,77.3,65.9,29.91,WSW,252,3.0,6.0,68,0.00,,,0.00,VWS V14.01,2013-06-02 18:02:00,
2013-06-02 14:03:00,77.6,65.3,29.91,WNW,295,4.5,6.0,66,0.00,,,0.00,VWS V14.01,2013-06-02 18:03:00,
2013-06-02 14:04:00,77.7,65.4,29.91,West,265,7.5,7.5,66,0.00,,,0.00,VWS V14.01,2013-06-02 18:04:00,
2013-06-02 14:05:00,77.7,64.6,29.91,SW,217,4.5,7.5,64,0.00,,,0.00,VWS V14.01,2013-06-02 18:05:00,
2013-06-02 14:06:00,77.7,65.0,29.91,SW,215,7.5,12.0,65,0.00,,,0.00,VWS V14.01,2013-06-02 18:06:00,
2013-06-02 14:07:00,77.6,65.3,29.91,SSW,209,6.0,10.5,66,0.00,,,0.00,VWS V14.01,2013-06-02 18:07:00,
2013-06-02 14:08:00,77.7,65.4,29.91,SSW,206,6.0,10.5,66,0.00,,,0.00,VWS V14.01,2013-06-02 18:08:00,
2013-06-02 14:09:00,77.8,66.0,29.91,SW,220,10.5,10.5,67,0.00,,,0.00,VWS V14.01,2013-06-02 18:09:00,
2013-06-02 14:10:00,77.7,65.4,29.91,SW,234,9.0,15.0,66,0.00,,,0.00,VWS V14.01,2013-06-02 18:10:00,
2013-06-02 14:11:00,77.8,66.0,29.91,SSW,203,7.5,10.5,67,0.00,,,0.00,VWS V14.01,2013-06-02 18:11:00,
2013-06-02 14:12:00,77.7,65.0,29.91,WSW,258,10.5,10.5,65,0.00,,,0.00,VWS V14.01,2013-06-02 18:12:00,
2013-06-02 14:13:00,77.7,65.0,29.91,SSW,203,7.5,10.5,65,0.00,,,0.00,VWS V14.01,2013-06-02 18:13:00,
2013-06-02 14:14:00,77.7,64.6,29.91,WSW,250,3.0,4.5,64,0.00,,,0.00,VWS V14.01,2013-06-02 18:14:00,
2013-06-02 14:15:00,77.6,64.9,29.91,SW,231,15.0,18.0,65,0.00,,,0.00,VWS V14.01,2013-06-02 18:15:00,
2013-06-02 14:16:00,77.5,65.3,29.91,WSW,247,6.0,15.0,66,0.00,,,0.00,VWS V14.01,2013-06-02 18:16:00,
2013-06-02 14:17:00,77.3,64.6,29.91,SSE,149,7.5,7.5,65,0.00,,,0.00,VWS V14.01,2013-06-02 18:17:00,
2013-06-02 14:18:00,77.2,65.4,29.90,SW,233,4.5,12.0,67,0.00,,,0.00,VWS V14.01,2013-06-02 18:18:00,
2013-06-02 14:19:00,77.2,65.0,29.90,SSE,167,3.0,3.0,66,0.00,,,0.00,VWS V14.01,2013-06-02 18:19:00,
2013-06-02 14:20:00,77.2,65.0,29.90,SSE,153,1.5,3.0,66,0.00,,,0.00,VWS V14.01,2013-06-02 18:20:00,
2013-06-02 14:21:00,77.2,64.5,29.90,SSE,153,1.5,1.5,65,0.00,,,0.00,VWS V14.01,2013-06-02 18:21:00,
2013-06-02 14:22:00,77.2,65.0,29.90,South,188,9.0,10.5,66,0.00,,,0.00,VWS V14.01,2013-06-02 18:22:00,
2013-06-02 14:23:00,77.3,65.5,29.90,SW,229,4.5,9.0,67,0.00,,,0.00,VWS V14.01,2013-06-02 18:23:00,
2013-06-02 14:24:00,77.3,65.5,29.90,SSW,203,4.5,6.0,67,0.00,,,0.00,VWS V14.01,2013-06-02 18:24:00,
2013-06-02 14:25:00,77.2,65.4,29.90,SW,226,6.0,6.0,67,0.00,,,0.00,VWS V14.01,2013-06-02 18:25:00,
2013-06-02 14:26:00,77.2,65.4,29.90,NW,321,3.0,6.0,67,0.00,,,0.00,VWS V14.01,2013-06-02 18:26:00,
2013-06-02 14:27:00,77.2,65.0,29.90,WSW,254,4.5,4.5,66,0.00,,,0.00,VWS V14.01,2013-06-02 18:27:00,
2013-06-02 14:28:00,77.2,65.4,29.90,WNW,285,6.0,6.0,67,0.00,,,0.00,VWS V14.01,2013-06-02 18:28:00,
2013-06-02 14:29:00,77.1,64.9,29.90,WSW,251,6.0,6.0,66,0.00,,,0.00,VWS V14.01,2013-06-02 18:29:00,
2013-06-02 14:30:00,77.0,64.3,29.90,WSW,258,4.5,6.0,65,0.00,,,0.00,VWS V14.01,2013-06-02 18:30:00,
2013-06-02 14:31:00,76.9,64.7,29.90,West,279,3.0,9.0,66,0.00,,,0.00,VWS V14.01,2013-06-02 18:31:00,
2013-06-02 14:32:00,76.9,64.7,29.90,West,260,4.5,4.5,66,0.00,,,0.00,VWS V14.01,2013-06-02 18:32:00,
2013-06-02 14:33:00,76.8,64.6,29.90,NW,305,4.5,4.5,66,0.00,,,0.00,VWS V14.01,2013-06-02 18:33:00,
2013-06-02 14:34:00,76.7,64.9,29.90,West,272,3.0,3.0,67,0.00,,,0.00,VWS V14.01,2013-06-02 18:34:00,
2013-06-02 14:35:00,76.7,64.9,29.90,West,279,3.0,3.0,67,0.00,,,0.00,VWS V14.01,2013-06-02 18:35:00,
2013-06-02 14:36:00,76.7,65.3,29.90,NW,312,3.0,4.5,68,0.00,,,0.00,VWS V14.01,2013-06-02 18:36:00,
2013-06-02 14:37:00,76.7,65.3,29.90,NW,324,6.0,7.5,68,0.00,,,0.00,VWS V14.01,2013-06-02 18:37:00,
2013-06-02 14:38:00,76.5,64.7,29.90,West,269,6.0,7.5,67,0.00,,,0.00,VWS V14.01,2013-06-02 18:38:00,
2013-06-02 14:39:00,76.4,65.1,29.90,WNW,303,3.0,4.5,68,0.00,,,0.00,VWS V14.01,2013-06-02 18:39:00,
2013-06-02 14:40:00,76.4,65.5,29.90,West,281,4.5,4.5,69,0.00,,,0.00,VWS V14.01,2013-06-02 18:40:00,
2013-06-02 14:41:00,76.3,65.0,29.90,West,275,6.0,6.0,68,0.00,,,0.00,VWS V14.01,2013-06-02 18:41:00,
2013-06-02 14:42:00,76.3,65.4,29.90,North,359,1.5,6.0,69,0.00,,,0.00,VWS V14.01,2013-06-02 18:42:00,
2013-06-02 14:43:00,76.3,65.4,29.90,West,280,4.5,4.5,69,0.00,,,0.00,VWS V14.01,2013-06-02 18:43:00,
2013-06-02 14:44:00,76.3,65.8,29.90,West,272,4.5,6.0,70,0.00,,,0.00,VWS V14.01,2013-06-02 18:44:00,
2013-06-02 14:45:00,76.4,65.5,29.90,NW,307,3.0,6.0,69,0.00,,,0.00,VWS V14.01,2013-06-02 18:45:00,
2013-06-02 14:46:00,76.4,65.9,29.90,WNW,293,3.0,4.5,70,0.00,,,0.00,VWS V14.01,2013-06-02 18:46:00,
2013-06-02 14:47:00,76.6,66.1,29.90,WNW,293,1.5,3.0,70,0.00,,,0.00,VWS V14.01,2013-06-02 18:47:00,
2013-06-02 14:48:00,76.9,66.0,29.90,WNW,296,1.5,3.0,69,0.00,,,0.00,VWS V14.01,2013-06-02 18:48:00,
2013-06-02 14:49:00,77.1,66.6,29.90,WNW,285,1.5,1.5,70,0.00,,,0.00,VWS V14.01,2013-06-02 18:49:00,
2013-06-02 14:50:00,77.3,66.8,29.90,NW,305,3.0,4.5,70,0.00,,,0.00,VWS V14.01,2013-06-02 18:50:00,
2013-06-02 14:51:00,77.6,66.6,29.90,NNW,329,3.0,6.0,69,0.00,,,0.00,VWS V14.01,2013-06-02 18:51:00,
2013-06-02 14:52:00,77.8,66.4,29.90,WNW,291,4.5,6.0,68,0.00,,,0.00,VWS V14.01,2013-06-02 18:52:00,
2013-06-02 14:53:00,77.9,65.2,29.90,WSW,258,3.0,4.5,65,0.00,,,0.00,VWS V14.01,2013-06-02 18:53:00,
2013-06-02 14:54:00,78.0,65.7,29.90,NW,305,3.0,3.0,66,0.00,,,0.00,VWS V14.01,2013-06-02 18:54:00,
2013-06-02 14:55:00,78.1,66.7,29.90,NNW,332,6.0,9.0,68,0.00,,,0.00,VWS V14.01,2013-06-02 18:55:00,
2013-06-02 14:56:00,78.1,65.8,29.90,North,6,6.0,7.5,66,0.00,,,0.00,VWS V14.01,2013-06-02 18:56:00,
2013-06-02 14:57:00,78.2,65.5,29.90,North,357,1.5,6.0,65,0.00,,,0.00,VWS V14.01,2013-06-02 18:57:00,
2013-06-02 14:58:00,78.2,65.9,29.90,NNE,18,4.5,6.0,66,0.00,,,0.00,VWS V14.01,2013-06-02 18:58:00,
2013-06-02 14:59:00,78.3,65.6,29.90,NNW,331,10.5,10.5,65,0.00,,,0.00,VWS V14.01,2013-06-02 18:59:00,
2013-06-02 15:00:00,78.1,64.9,29.90,NNW,345,4.5,10.5,64,0.00,,,0.00,VWS V14.01,2013-06-02 19:00:00,
2013-06-02 15:01:00,78.0,65.3,29.90,NNW,332,4.5,4.5,65,0.00,,,0.00,VWS V14.01,2013-06-02 19:01:00,
2013-06-02 15:02:00,77.9,65.2,29.90,NW,321,7.5,9.0,65,0.00,,,0.00,VWS V14.01,2013-06-02 19:02:00,
2013-06-02 15:03:00,77.6,64.9,29.90,NNW,336,7.5,12.0,65,0.00,,,0.00,VWS V14.01,2013-06-02 19:03:00,
2013-06-02 15:04:00,77.5,65.3,29.90,WNW,291,7.5,7.5,66,0.00,,,0.00,VWS V14.01,2013-06-02 19:04:00,
2013-06-02 15:05:00,77.4,65.2,29.90,NW,316,4.5,9.0,66,0.00,,,0.00,VWS V14.01,2013-06-02 19:05:00,
2013-06-02 15:06:00,77.3,65.1,29.90,WSW,239,9.0,9.0,66,0.00,,,0.00,VWS V14.01,2013-06-02 19:06:00,
2013-06-02 15:07:00,77.2,65.0,29.90,WSW,244,6.0,9.0,66,0.00,,,0.00,VWS V14.01,2013-06-02 19:07:00,
2013-06-02 15:08:00,77.0,64.8,29.90,WSW,246,3.0,6.0,66,0.00,,,0.00,VWS V14.01,2013-06-02 19:08:00,
2013-06-02 15:09:00,77.0,64.8,29.90,WSW,246,3.0,6.0,66,0.00,,,0.00,VWS V14.01,2013-06-02 19:09:00,
2013-06-02 15:10:00,76.9,65.1,29.90,West,268,1.5,3.0,67,0.00,,,0.00,VWS V14.01,2013-06-02 19:10:00,
2013-06-02 15:11:00,77.0,65.2,29.90,West,262,1.5,3.0,67,0.00,,,0.00,VWS V14.01,2013-06-02 19:11:00,
2013-06-02 15:12:00,77.1,65.7,29.90,NW,307,3.0,4.5,68,0.00,,,0.00,VWS V14.01,2013-06-02 19:12:00,
2013-06-02 15:13:00,77.2,65.8,29.90,WNW,299,3.0,3.0,68,0.00,,,0.00,VWS V14.01,2013-06-02 19:13:00,
2013-06-02 15:14:00,77.2,65.8,29.90,WNW,299,3.0,3.0,68,0.00,,,0.00,VWS V14.01,2013-06-02 19:14:00,
2013-06-02 15:15:00,77.3,66.3,29.90,NNW,331,6.0,6.0,69,0.00,,,0.00,VWS V14.01,2013-06-02 19:15:00,
2013-06-02 15:16:00,77.2,65.4,29.90,North,360,3.0,6.0,67,0.00,,,0.00,VWS V14.01,2013-06-02 19:16:00,
2013-06-02 15:17:00,77.2,65.8,29.90,NE,46,4.5,4.5,68,0.00,,,0.00,VWS V14.01,2013-06-02 19:17:00,
2013-06-02 15:18:00,77.1,65.7,29.90,NNE,24,3.0,3.0,68,0.00,,,0.00,VWS V14.01,2013-06-02 19:18:00,
2013-06-02 15:19:00,77.1,65.7,29.90,NNE,24,3.0,3.0,68,0.00,,,0.00,VWS V14.01,2013-06-02 19:19:00,
2013-06-02 15:20:00,77.1,65.3,29.90,NNE,24,1.5,3.0,67,0.00,,,0.00,VWS V14.01,2013-06-02 19:20:00,
2013-06-02 15:21:00,77.0,65.2,29.89,NNW,332,1.5,3.0,67,0.00,,,0.00,VWS V14.01,2013-06-02 19:21:00,
2013-06-02 15:22:00,77.0,65.6,29.89,West,273,4.5,7.5,68,0.00,,,0.00,VWS V14.01,2013-06-02 19:22:00,
2013-06-02 15:23:00,76.9,65.1,29.90,WSW,244,6.0,9.0,67,0.00,,,0.00,VWS V14.01,2013-06-02 19:23:00,
2013-06-02 15:24:00,76.9,65.5,29.90,SSW,201,6.0,9.0,68,0.00,,,0.00,VWS V14.01,2013-06-02 19:24:00,
2013-06-02 15:25:00,76.8,65.4,29.90,West,279,4.5,6.0,68,0.00,,,0.00,VWS V14.01,2013-06-02 19:25:00,
2013-06-02 15:26:00,76.7,64.9,29.90,WSW,250,3.0,6.0,67,0.00,,,0.00,VWS V14.01,2013-06-02 19:26:00,
2013-06-02 15:27:00,76.7,65.3,29.90,WSW,248,4.5,6.0,68,0.00,,,0.00,VWS V14.01,2013-06-02 19:27:00,
2013-06-02 15:28:00,76.7,64.9,29.90,WSW,250,4.5,9.0,67,0.00,,,0.00,VWS V14.01,2013-06-02 19:28:00,
2013-06-02 15:29:00,76.7,64.9,29.90,WSW,250,4.5,9.0,67,0.00,,,0.00,VWS V14.01,2013-06-02 19:29:00,
2013-06-02 15:30:00,76.7,65.3,29.90,West,275,1.5,4.5,68,0.00,,,0.00,VWS V14.01,2013-06-02 19:30:00,
2013-06-02 15:31:00,76.8,65.4,29.90,West,281,4.5,4.5,68,0.00,,,0.00,VWS V14.01,2013-06-02 19:31:00,
2013-06-02 15:32:00,76.9,65.5,29.90,West,264,4.5,4.5,68,0.00,,,0.00,VWS V14.01,2013-06-02 19:32:00,
2013-06-02 15:33:00,77.0,65.6,29.90,WSW,241,3.0,3.0,68,0.00,,,0.00,VWS V14.01,2013-06-02 19:33:00,
2013-06-02 15:34:00,77.0,65.6,29.90,WSW,241,3.0,3.0,68,0.00,,,0.00,VWS V14.01,2013-06-02 19:34:00,
2013-06-02 15:35:00,77.1,65.7,29.90,West,265,1.5,3.0,68,0.00,,,0.00,VWS V14.01,2013-06-02 19:35:00,
2013-06-02 15:36:00,77.2,65.8,29.90,West,276,4.5,4.5,68,0.00,,,0.00,VWS V14.01,2013-06-02 19:36:00,
2013-06-02 15:37:00,77.4,66.4,29.89,NW,309,4.5,4.5,69,0.00,,,0.00,VWS V14.01,2013-06-02 19:37:00,
2013-06-02 15:38:00,77.4,65.6,29.89,WNW,286,4.5,6.0,67,0.00,,,0.00,VWS V14.01,2013-06-02 19:38:00,
2013-06-02 15:39:00,77.4,65.6,29.89,WNW,288,3.0,6.0,67,0.00,,,0.00,VWS V14.01,2013-06-02 19:39:00,
2013-06-02 15:40:00,77.3,65.5,29.89,West,278,4.5,6.0,67,0.00,,,0.00,VWS V14.01,2013-06-02 19:40:00,
2013-06-02 15:41:00,77.3,65.5,29.89,West,265,9.0,10.5,67,0.00,,,0.00,VWS V14.01,2013-06-02 19:41:00,
2013-06-02 15:42:00,77.2,65.0,29.89,West,265,4.5,9.0,66,0.00,,,0.00,VWS V14.01,2013-06-02 19:42:00,
2013-06-02 15:43:00,77.2,65.4,29.89,West,271,6.0,7.5,67,0.00,,,0.00,VWS V14.01,2013-06-02 19:43:00,
2013-06-02 15:44:00,77.2,65.4,29.89,West,274,6.0,7.5,67,0.00,,,0.00,VWS V14.01,2013-06-02 19:44:00,
2013-06-02 15:45:00,77.2,65.4,29.89,SSW,195,6.0,9.0,67,0.00,,,0.00,VWS V14.01,2013-06-02 19:45:00,
2013-06-02 15:46:00,77.3,65.5,29.89,West,271,4.5,9.0,67,0.00,,,0.00,VWS V14.01,2013-06-02 19:46:00,
2013-06-02 15:47:00,77.3,65.5,29.89,WSW,253,9.0,10.5,67,0.00,,,0.00,VWS V14.01,2013-06-02 19:47:00,
2013-06-02 15:48:00,77.4,65.2,29.89,West,261,4.5,10.5,66,0.00,,,0.00,VWS V14.01,2013-06-02 19:48:00,
2013-06-02 15:49:00,77.3,65.1,29.89,WSW,258,6.0,10.5,66,0.00,,,0.00,VWS V14.01,2013-06-02 19:49:00,
2013-06-02 15:50:00,77.3,65.5,29.89,West,264,6.0,7.5,67,0.00,,,0.00,VWS V14.01,2013-06-02 19:50:00,
2013-06-02 15:51:00,77.4,66.4,29.89,NNW,328,7.5,7.5,69,0.00,,,0.00,VWS V14.01,2013-06-02 19:51:00,
2013-06-02 15:52:00,77.5,66.1,29.89,WNW,293,3.0,7.5,68,0.00,,,0.00,VWS V14.01,2013-06-02 19:52:00,
2013-06-02 15:53:00,77.8,65.5,29.89,WNW,299,6.0,12.0,66,0.00,,,0.00,VWS V14.01,2013-06-02 19:53:00,
2013-06-02 15:54:00,77.7,65.4,29.89,WNW,285,4.5,12.0,66,0.00,,,0.00,VWS V14.01,2013-06-02 19:54:00,
2013-06-02 15:55:00,77.8,66.4,29.89,WSW,257,4.5,7.5,68,0.00,,,0.00,VWS V14.01,2013-06-02 19:55:00,
2013-06-02 15:56:00,77.9,66.1,29.89,WSW,250,6.0,7.5,67,0.00,,,0.00,VWS V14.01,2013-06-02 19:56:00,
2013-06-02 15:57:00,78.0,66.2,29.89,SW,225,7.5,12.0,67,0.00,,,0.00,VWS V14.01,2013-06-02 19:57:00,
2013-06-02 15:58:00,77.9,65.2,29.89,WNW,282,9.0,13.5,65,0.00,,,0.00,VWS V14.01,2013-06-02 19:58:00,
2013-06-02 15:59:00,77.9,65.2,29.89,West,279,7.5,13.5,65,0.00,,,0.00,VWS V14.01,2013-06-02 19:59:00,
2013-06-02 16:00:00,77.8,65.5,29.89,West,261,7.5,9.0,66,0.00,,,0.00,VWS V14.01,2013-06-02 20:00:00,
2013-06-02 16:01:00,77.8,65.5,29.89,WSW,250,6.0,9.0,66,0.00,,,0.00,VWS V14.01,2013-06-02 20:01:00,
2013-06-02 16:02:00,77.7,65.4,29.89,West,278,7.5,9.0,66,0.00,,,0.00,VWS V14.01,2013-06-02 20:02:00,
2013-06-02 16:03:00,77.8,66.0,29.89,WNW,293,7.5,12.0,67,0.00,,,0.00,VWS V14.01,2013-06-02 20:03:00,
2013-06-02 16:04:00,77.8,66.0,29.89,SSW,212,6.0,12.0,67,0.00,,,0.00,VWS V14.01,2013-06-02 20:04:00,
2013-06-02 16:05:00,77.8,66.0,29.89,WNW,287,6.0,7.5,67,0.00,,,0.00,VWS V14.01,2013-06-02 20:05:00,
2013-06-02 16:06:00,77.9,66.1,29.89,WNW,291,3.0,7.5,67,0.00,,,0.00,VWS V14.01,2013-06-02 20:06:00,
2013-06-02 16:07:00,77.9,66.1,29.89,West,265,3.0,6.0,67,0.00,,,0.00,VWS V14.01,2013-06-02 20:07:00,
2013-06-02 16:08:00,78.0,66.2,29.89,West,269,7.5,9.0,67,0.00,,,0.00,VWS V14.01,2013-06-02 20:08:00,
2013-06-02 16:09:00,78.0,65.7,29.89,West,279,9.0,9.0,66,0.00,,,0.00,VWS V14.01,2013-06-02 20:09:00,
2013-06-02 16:10:00,78.0,65.7,29.89,West,262,7.5,9.0,66,0.00,,,0.00,VWS V14.01,2013-06-02 20:10:00,
2013-06-02 16:11:00,77.9,65.2,29.89,WNW,302,7.5,12.0,65,0.00,,,0.00,VWS V14.01,2013-06-02 20:11:00,
2013-06-02 16:12:00,77.7,65.0,29.90,NW,310,6.0,7.5,65,0.00,,,0.00,VWS V14.01,2013-06-02 20:12:00,
2013-06-02 16:13:00,77.6,65.8,29.89,WSW,244,4.5,4.5,67,0.00,,,0.00,VWS V14.01,2013-06-02 20:13:00,
2013-06-02 16:14:00,77.6,65.8,29.89,West,262,7.5,7.5,67,0.00,,,0.00,VWS V14.01,2013-06-02 20:14:00,
2013-06-02 16:15:00,77.7,65.9,29.89,West,274,10.5,10.5,67,0.00,,,0.00,VWS V14.01,2013-06-02 20:15:00,
2013-06-02 16:16:00,77.6,65.8,29.89,WSW,246,6.0,10.5,67,0.00,,,0.00,VWS V14.01,2013-06-02 20:16:00,
2013-06-02 16:17:00,77.6,65.8,29.89,West,276,6.0,10.5,67,0.00,,,0.00,VWS V14.01,2013-06-02 20:17:00,
2013-06-02 16:18:00,77.8,66.0,29.89,NW,316,7.5,9.0,67,0.00,,,0.00,VWS V14.01,2013-06-02 20:18:00,
2013-06-02 16:19:00,77.8,66.0,29.89,WNW,299,4.5,9.0,67,0.00,,,0.00,VWS V14.01,2013-06-02 20:19:00,
2013-06-02 16:20:00,77.9,65.6,29.89,WNW,287,1.5,7.5,66,0.00,,,0.00,VWS V14.01,2013-06-02 20:20:00,
2013-06-02 16:21:00,78.0,66.2,29.89,West,268,3.0,4.5,67,0.00,,,0.00,VWS V14.01,2013-06-02 20:21:00,
2013-06-02 16:22:00,78.2,66.4,29.89,WNW,286,6.0,7.5,67,0.00,,,0.00,VWS V14.01,2013-06-02 20:22:00,
2013-06-02 16:23:00,78.5,66.6,29.89,WSW,237,18.0,18.0,67,0.00,,,0.00,VWS V14.01,2013-06-02 20:23:00,
2013-06-02 16:24:00,78.5,66.6,29.89,West,275,12.0,18.0,67,0.00,,,0.00,VWS V14.01,2013-06-02 20:24:00,
2013-06-02 16:25:00,78.4,65.2,29.89,WSW,251,12.0,15.0,64,0.00,,,0.00,VWS V14.01,2013-06-02 20:25:00,
2013-06-02 16:26:00,78.4,65.7,29.89,WSW,255,7.5,13.5,65,0.00,,,0.00,VWS V14.01,2013-06-02 20:26:00,
2013-06-02 16:27:00,78.3,65.6,29.89,SW,219,9.0,10.5,65,0.00,,,0.00,VWS V14.01,2013-06-02 20:27:00,
2013-06-02 16:28:00,78.2,65.5,29.89,West,269,13.5,16.5,65,0.00,,,0.00,VWS V14.01,2013-06-02 20:28:00,
2013-06-02 16:29:00,78.3,65.6,29.89,West,265,10.5,16.5,65,0.00,,,0.00,VWS V14.01,2013-06-02 20:29:00,
2013-06-02 16:30:00,78.3,65.6,29.89,NW,319,9.0,12.0,65,0.00,,,0.00,VWS V14.01,2013-06-02 20:30:00,
2013-06-02 16:31:00,78.3,65.1,29.89,NW,305,6.0,12.0,64,0.00,,,0.00,VWS V14.01,2013-06-02 20:31:00,
2013-06-02 16:32:00,78.4,65.7,29.89,West,276,7.5,10.5,65,0.00,,,0.00,VWS V14.01,2013-06-02 20:32:00,
2013-06-02 16:33:00,78.5,65.8,29.88,West,266,10.5,16.5,65,0.00,,,0.00,VWS V14.01,2013-06-02 20:33:00,
2013-06-02 16:34:00,78.5,66.2,29.88,West,266,7.5,16.5,66,0.00,,,0.00,VWS V14.01,2013-06-02 20:34:00,
2013-06-02 16:35:00,78.5,65.8,29.88,West,262,9.0,13.5,65,0.00,,,0.00,VWS V14.01,2013-06-02 20:35:00,
2013-06-02 16:36:00,78.4,65.7,29.88,NW,319,4.5,10.5,65,0.00,,,0.00,VWS V14.01,2013-06-02 20:36:00,
2013-06-02 16:37:00,78.4,66.1,29.88,West,265,6.0,9.0,66,0.00,,,0.00,VWS V14.01,2013-06-02 20:37:00,
2013-06-02 16:38:00,78.4,65.7,29.88,WSW,246,13.5,13.5,65,0.00,,,0.00,VWS V14.01,2013-06-02 20:38:00,
2013-06-02 16:39:00,78.4,64.8,29.88,WSW,253,12.0,15.0,63,0.00,,,0.00,VWS V14.01,2013-06-02 20:39:00,
2013-06-02 16:40:00,78.2,64.6,29.88,WSW,244,9.0,13.5,63,0.00,,,0.00,VWS V14.01,2013-06-02 20:40:00,
2013-06-02 16:41:00,78.2,65.0,29.88,West,264,7.5,9.0,64,0.00,,,0.00,VWS V14.01,2013-06-02 20:41:00,
2013-06-02 16:42:00,78.2,64.6,29.88,WSW,253,10.5,15.0,63,0.00,,,0.00,VWS V14.01,2013-06-02 20:42:00,
2013-06-02 16:43:00,78.3,65.1,29.88,West,279,9.0,10.5,64,0.00,,,0.00,VWS V14.01,2013-06-02 20:43:00,
2013-06-02 16:44:00,78.3,65.1,29.88,WSW,252,7.5,10.5,64,0.00,,,0.00,VWS V14.01,2013-06-02 20:44:00,
2013-06-02 16:45:00,78.4,65.7,29.88,West,278,3.0,7.5,65,0.00,,,0.00,VWS V14.01,2013-06-02 20:45:00,
2013-06-02 16:46:00,78.5,64.9,29.88,SW,217,6.0,10.5,63,0.00,,,0.00,VWS V14.01,2013-06-02 20:46:00,
2013-06-02 16:47:00,78.6,65.4,29.88,WSW,241,6.0,9.0,64,0.00,,,0.00,VWS V14.01,2013-06-02 20:47:00,
2013-06-02 16:48:00,78.7,66.0,29.88,West,261,7.5,7.5,65,0.00,,,0.00,VWS V14.01,2013-06-02 20:48:00,
2013-06-02 16:49:00,78.7,66.0,29.88,West,272,6.0,7.5,65,0.00,,,0.00,VWS V14.01,2013-06-02 20:49:00,
2013-06-02 16:50:00,78.8,65.6,29.87,WNW,288,7.5,10.5,64,0.00,,,0.00,VWS V14.01,2013-06-02 20:50:00,
2013-06-02 16:51:00,78.8,65.6,29.87,WSW,246,9.0,10.5,64,0.00,,,0.00,VWS V14.01,2013-06-02 20:51:00,
2013-06-02 16:52:00,78.7,65.1,29.87,West,274,4.5,9.0,63,0.00,,,0.00,VWS V14.01,2013-06-02 20:52:00,
2013-06-02 16:53:00,78.6,65.0,29.87,SSW,201,4.5,7.5,63,0.00,,,0.00,VWS V14.01,2013-06-02 20:53:00,
2013-06-02 16:54:00,78.6,65.0,29.87,WSW,240,7.5,7.5,63,0.00,,,0.00,VWS V14.01,2013-06-02 20:54:00,
2013-06-02 16:55:00,78.7,66.0,29.87,West,276,7.5,7.5,65,0.00,,,0.00,VWS V14.01,2013-06-02 20:55:00,
2013-06-02 16:56:00,78.7,65.5,29.88,West,260,9.0,9.0,64,0.00,,,0.00,VWS V14.01,2013-06-02 20:56:00,
2013-06-02 16:57:00,78.8,65.6,29.88,West,272,7.5,10.5,64,0.00,,,0.00,VWS V14.01,2013-06-02 20:57:00,
2013-06-02 16:58:00,79.0,66.2,29.87,West,274,9.0,9.0,65,0.00,,,0.00,VWS V14.01,2013-06-02 20:58:00,
2013-06-02 16:59:00,79.1,65.9,29.87,West,274,6.0,9.0,64,0.00,,,0.00,VWS V14.01,2013-06-02 20:59:00,
2013-06-02 17:00:00,79.2,66.0,29.87,West,272,10.5,10.5,64,0.00,,,0.00,VWS V14.01,2013-06-02 21:00:00,
2013-06-02 17:01:00,79.2,65.1,29.87,NNW,330,3.0,10.5,62,0.00,,,0.00,VWS V14.01,2013-06-02 21:01:00,
2013-06-02 17:02:00,79.3,65.2,29.87,SW,234,7.5,9.0,62,0.00,,,0.00,VWS V14.01,2013-06-02 21:02:00,
2013-06-02 17:03:00,79.2,65.5,29.87,West,278,6.0,9.0,63,0.00,,,0.00,VWS V14.01,2013-06-02 21:03:00,
2013-06-02 17:04:00,79.2,65.5,29.87,WSW,237,6.0,9.0,63,0.00,,,0.00,VWS V14.01,2013-06-02 21:04:00,
2013-06-02 17:05:00,79.2,65.5,29.87,WNW,288,10.5,12.0,63,0.00,,,0.00,VWS V14.01,2013-06-02 21:05:00,
2013-06-02 17:06:00,79.3,65.6,29.87,West,260,7.5,10.5,63,0.00,,,0.00,VWS V14.01,2013-06-02 21:06:00,
2013-06-02 17:07:00,79.4,65.3,29.87,WSW,240,6.0,12.0,62,0.00,,,0.00,VWS V14.01,2013-06-02 21:07:00,
2013-06-02 17:08:00,79.6,65.4,29.87,WNW,287,4.5,6.0,62,0.00,,,0.00,VWS V14.01,2013-06-02 21:08:00,
2013-06-02 17:09:00,79.6,65.4,29.87,West,260,3.0,6.0,62,0.00,,,0.00,VWS V14.01,2013-06-02 21:09:00,
2013-06-02 17:10:00,79.8,66.1,29.87,WNW,284,6.0,6.0,63,0.00,,,0.00,VWS V14.01,2013-06-02 21:10:00,
2013-06-02 17:11:00,79.9,65.7,29.87,SW,230,10.5,10.5,62,0.00,,,0.00,VWS V14.01,2013-06-02 21:11:00,
2013-06-02 17:12:00,79.8,65.2,29.87,WSW,251,7.5,10.5,61,0.00,,,0.00,VWS V14.01,2013-06-02 21:12:00,
2013-06-02 17:13:00,79.6,65.0,29.87,SW,234,4.5,7.5,61,0.00,,,0.00,VWS V14.01,2013-06-02 21:13:00,
2013-06-02 17:14:00,79.5,64.9,29.87,WSW,258,12.0,12.0,61,0.00,,,0.00,VWS V14.01,2013-06-02 21:14:00,
2013-06-02 17:15:00,79.4,64.8,29.87,SW,230,9.0,12.0,61,0.00,,,0.00,VWS V14.01,2013-06-02 21:15:00,
2013-06-02 17:16:00,79.4,65.3,29.87,SW,226,9.0,15.0,62,0.00,,,0.00,VWS V14.01,2013-06-02 21:16:00,
2013-06-02 17:17:00,79.4,65.3,29.87,WSW,251,7.5,12.0,62,0.00,,,0.00,VWS V14.01,2013-06-02 21:17:00,
2013-06-02 17:18:00,79.5,65.3,29.88,SSW,209,12.0,12.0,62,0.00,,,0.00,VWS V14.01,2013-06-02 21:18:00,
2013-06-02 17:19:00,79.5,65.3,29.88,West,265,10.5,15.0,62,0.00,,,0.00,VWS V14.01,2013-06-02 21:19:00,
2013-06-02 17:20:00,79.5,64.9,29.87,WSW,243,13.5,16.5,61,0.00,,,0.00,VWS V14.01,2013-06-02 21:20:00,
2013-06-02 17:21:00,79.4,64.8,29.87,SSW,204,12.0,18.0,61,0.00,,,0.00,VWS V14.01,2013-06-02 21:21:00,
2013-06-02 17:22:00,79.3,64.7,29.87,SW,229,10.5,15.0,61,0.00,,,0.00,VWS V14.01,2013-06-02 21:22:00,
2013-06-02 17:23:00,79.2,64.6,29.87,WNW,293,7.5,12.0,61,0.00,,,0.00,VWS V14.01,2013-06-02 21:23:00,
2013-06-02 17:24:00,79.1,64.5,29.87,West,274,6.0,12.0,61,0.00,,,0.00,VWS V14.01,2013-06-02 21:24:00,
2013-06-02 17:25:00,79.0,64.4,29.87,West,265,12.0,15.0,61,0.00,,,0.00,VWS V14.01,2013-06-02 21:25:00,
2013-06-02 17:26:00,78.9,64.3,29.87,West,276,4.5,12.0,61,0.00,,,0.00,VWS V14.01,2013-06-02 21:26:00,
2013-06-02 17:27:00,78.8,64.7,29.87,SW,229,9.0,10.5,62,0.00,,,0.00,VWS V14.01,2013-06-02 21:27:00,
2013-06-02 17:28:00,78.6,64.5,29.87,West,268,7.5,12.0,62,0.00,,,0.00,VWS V14.01,2013-06-02 21:28:00,
2013-06-02 17:29:00,78.6,64.5,29.87,West,268,7.5,12.0,62,0.00,,,0.00,VWS V14.01,2013-06-02 21:29:00,
2013-06-02 17:30:00,78.4,64.8,29.87,West,265,7.5,10.5,63,0.00,,,0.00,VWS V14.01,2013-06-02 21:30:00,
2013-06-02 17:31:00,78.3,64.2,29.87,West,280,6.0,9.0,62,0.00,,,0.00,VWS V14.01,2013-06-02 21:31:00,
2013-06-02 17:32:00,78.3,64.2,29.87,West,276,4.5,6.0,62,0.00,,,0.00,VWS V14.01,2013-06-02 21:32:00,
2013-06-02 17:33:00,78.4,64.3,29.87,West,273,4.5,4.5,62,0.00,,,0.00,VWS V14.01,2013-06-02 21:33:00,
2013-06-02 17:34:00,78.5,64.4,29.87,West,272,1.5,4.5,62,0.00,,,0.00,VWS V14.01,2013-06-02 21:34:00,
2013-06-02 17:35:00,78.5,65.3,29.87,West,274,3.0,4.5,64,0.00,,,0.00,VWS V14.01,2013-06-02 21:35:00,
2013-06-02 17:36:00,78.7,65.1,29.87,NNW,338,4.5,4.5,63,0.00,,,0.00,VWS V14.01,2013-06-02 21:36:00,
2013-06-02 17:37:00,78.8,65.2,29.87,NW,321,7.5,10.5,63,0.00,,,0.00,VWS V14.01,2013-06-02 21:37:00,
2013-06-02 17:38:00,79.1,65.4,29.87,WNW,287,4.5,6.0,63,0.00,,,0.00,VWS V14.01,2013-06-02 21:38:00,
2013-06-02 17:39:00,79.2,65.5,29.87,NNW,328,3.0,6.0,63,0.00,,,0.00,VWS V14.01,2013-06-02 21:39:00,
2013-06-02 17:40:00,79.4,65.3,29.87,West,260,6.0,6.0,62,0.00,,,0.00,VWS V14.01,2013-06-02 21:40:00,
2013-06-02 17:41:00,79.5,65.3,29.87,SW,219,10.5,13.5,62,0.00,,,0.00,VWS V14.01,2013-06-02 21:41:00,
2013-06-02 17:42:00,79.4,64.8,29.87,WSW,243,15.0,15.0,61,0.00,,,0.00,VWS V14.01,2013-06-02 21:42:00,
2013-06-02 17:43:00,79.1,64.0,29.87,WSW,258,4.5,9.0,60,0.00,,,0.00,VWS V14.01,2013-06-02 21:43:00,
2013-06-02 17:44:00,79.1,64.5,29.87,WNW,285,7.5,9.0,61,0.00,,,0.00,VWS V14.01,2013-06-02 21:44:00,
2013-06-02 17:45:00,79.1,65.0,29.87,West,264,7.5,10.5,62,0.00,,,0.00,VWS V14.01,2013-06-02 21:45:00,
2013-06-02 17:46:00,79.1,64.0,29.87,WNW,287,9.0,10.5,60,0.00,,,0.00,VWS V14.01,2013-06-02 21:46:00,
2013-06-02 17:47:00,79.1,64.5,29.87,West,272,10.5,10.5,61,0.00,,,0.00,VWS V14.01,2013-06-02 21:47:00,
2013-06-02 17:48:00,79.2,64.1,29.87,NW,324,7.5,10.5,60,0.00,,,0.00,VWS V14.01,2013-06-02 21:48:00,
2013-06-02 17:49:00,79.2,63.7,29.87,NW,324,4.5,10.5,59,0.00,,,0.00,VWS V14.01,2013-06-02 21:49:00,
2013-06-02 17:50:00,79.3,64.7,29.87,West,272,10.5,13.5,61,0.00,,,0.00,VWS V14.01,2013-06-02 21:50:00,
2013-06-02 17:51:00,79.4,63.8,29.87,West,276,7.5,15.0,59,0.00,,,0.00,VWS V14.01,2013-06-02 21:51:00,
2013-06-02 17:52:00,79.3,63.7,29.87,West,281,4.5,12.0,59,0.00,,,0.00,VWS V14.01,2013-06-02 21:52:00,
2013-06-02 17:53:00,79.2,63.7,29.87,West,276,6.0,10.5,59,0.00,,,0.00,VWS V14.01,2013-06-02 21:53:00,
2013-06-02 17:54:00,79.1,63.6,29.87,NW,312,6.0,10.5,59,0.00,,,0.00,VWS V14.01,2013-06-02 21:54:00,
2013-06-02 17:55:00,79.2,64.1,29.87,West,275,6.0,7.5,60,0.00,,,0.00,VWS V14.01,2013-06-02 21:55:00,
2013-06-02 17:56:00,79.2,64.1,29.87,WNW,282,6.0,9.0,60,0.00,,,0.00,VWS V14.01,2013-06-02 21:56:00,
2013-06-02 17:57:00,79.3,64.2,29.87,West,268,4.5,9.0,60,0.00,,,0.00,VWS V14.01,2013-06-02 21:57:00,
2013-06-02 17:58:00,79.4,64.3,29.87,WNW,287,9.0,10.5,60,0.00,,,0.00,VWS V14.01,2013-06-02 21:58:00,
2013-06-02 17:59:00,79.4,64.3,29.87,WSW,258,6.0,10.5,60,0.00,,,0.00,VWS V14.01,2013-06-02 21:59:00,
2013-06-02 18:00:00,79.3,64.2,29.87,SW,231,7.5,10.5,60,0.00,,,0.00,VWS V14.01,2013-06-02 22:00:00,
2013-06-02 18:01:00,79.2,64.1,29.87,WSW,252,7.5,7.5,60,0.00,,,0.00,VWS V14.01,2013-06-02 22:01:00,
2013-06-02 18:02:00,79.2,64.6,29.87,SW,223,16.5,16.5,61,0.00,,,0.00,VWS V14.01,2013-06-02 22:02:00,
2013-06-02 18:03:00,79.0,63.5,29.87,West,281,9.0,10.5,59,0.00,,,0.00,VWS V14.01,2013-06-02 22:03:00,
2013-06-02 18:04:00,79.0,63.5,29.87,West,279,10.5,12.0,59,0.00,,,0.00,VWS V14.01,2013-06-02 22:04:00,
2013-06-02 18:05:00,79.1,64.5,29.87,West,279,9.0,10.5,61,0.00,,,0.00,VWS V14.01,2013-06-02 22:05:00,
2013-06-02 18:06:00,79.2,64.6,29.87,West,272,4.5,9.0,61,0.00,,,0.00,VWS V14.01,2013-06-02 22:06:00,
2013-06-02 18:07:00,79.4,64.3,29.87,WSW,239,12.0,13.5,60,0.00,,,0.00,VWS V14.01,2013-06-02 22:07:00,
2013-06-02 18:08:00,79.6,64.0,29.87,West,281,6.0,12.0,59,0.00,,,0.00,VWS V14.01,2013-06-02 22:08:00,
2013-06-02 18:09:00,79.6,64.0,29.87,WSW,240,16.5,16.5,59,0.00,,,0.00,VWS V14.01,2013-06-02 22:09:00,
2013-06-02 18:10:00,79.6,63.5,29.87,SW,234,12.0,19.5,58,0.00,,,0.00,VWS V14.01,2013-06-02 22:10:00,
2013-06-02 18:11:00,79.4,63.8,29.87,West,281,9.0,13.5,59,0.00,,,0.00,VWS V14.01,2013-06-02 22:11:00,
2013-06-02 18:12:00,79.4,63.3,29.87,West,281,6.0,10.5,58,0.00,,,0.00,VWS V14.01,2013-06-02 22:12:00,
2013-06-02 18:13:00,79.7,64.6,29.87,WSW,240,7.5,9.0,60,0.00,,,0.00,VWS V14.01,2013-06-02 22:13:00,
2013-06-02 18:14:00,79.7,64.1,29.87,WNW,286,6.0,9.0,59,0.00,,,0.00,VWS V14.01,2013-06-02 22:14:00,
2013-06-02 18:15:00,79.7,64.1,29.87,WSW,257,6.0,13.5,59,0.00,,,0.00,VWS V14.01,2013-06-02 22:15:00,
2013-06-02 18:16:00,79.7,63.6,29.87,WNW,295,6.0,10.5,58,0.00,,,0.00,VWS V14.01,2013-06-02 22:16:00,
2013-06-02 18:17:00,79.6,63.5,29.87,West,278,10.5,12.0,58,0.00,,,0.00,VWS V14.01,2013-06-02 22:17:00,
2013-06-02 18:18:00,79.3,63.3,29.87,West,279,9.0,12.0,58,0.00,,,0.00,VWS V14.01,2013-06-02 22:18:00,
2013-06-02 18:19:00,79.2,63.2,29.87,NW,321,3.0,12.0,58,0.00,,,0.00,VWS V14.01,2013-06-02 22:19:00,
2013-06-02 18:20:00,79.1,63.6,29.87,West,278,6.0,13.5,59,0.00,,,0.00,VWS V14.01,2013-06-02 22:20:00,
2013-06-02 18:21:00,79.0,63.5,29.87,WSW,237,6.0,9.0,59,0.00,,,0.00,VWS V14.01,2013-06-02 22:21:00,
2013-06-02 18:22:00,78.9,63.4,29.87,West,260,4.5,9.0,59,0.00,,,0.00,VWS V14.01,2013-06-02 22:22:00,
2013-06-02 18:23:00,78.7,63.2,29.87,West,261,12.0,12.0,59,0.00,,,0.00,VWS V14.01,2013-06-02 22:23:00,
2013-06-02 18:24:00,78.7,63.2,29.87,West,274,9.0,13.5,59,0.00,,,0.00,VWS V14.01,2013-06-02 22:24:00,
2013-06-02 18:25:00,78.5,63.0,29.87,WNW,284,12.0,12.0,59,0.00,,,0.00,VWS V14.01,2013-06-02 22:25:00,
2013-06-02 18:26:00,78.4,63.4,29.87,NW,305,4.5,12.0,60,0.00,,,0.00,VWS V14.01,2013-06-02 22:26:00,
2013-06-02 18:27:00,78.3,63.3,29.87,WNW,284,18.0,18.0,60,0.00,,,0.00,VWS V14.01,2013-06-02 22:27:00,
2013-06-02 18:28:00,78.2,63.2,29.87,NW,305,6.0,9.0,60,0.00,,,0.00,VWS V14.01,2013-06-02 22:28:00,
2013-06-02 18:29:00,78.1,63.1,29.87,NW,305,7.5,10.5,60,0.00,,,0.00,VWS V14.01,2013-06-02 22:29:00,
2013-06-02 18:30:00,78.1,63.1,29.87,WNW,300,3.0,10.5,60,0.00,,,0.00,VWS V14.01,2013-06-02 22:30:00,
2013-06-02 18:31:00,78.0,63.0,29.87,WNW,288,10.5,10.5,60,0.00,,,0.00,VWS V14.01,2013-06-02 22:31:00,
2013-06-02 18:32:00,78.0,63.0,29.87,WNW,291,7.5,18.0,60,0.00,,,0.00,VWS V14.01,2013-06-02 22:32:00,
2013-06-02 18:33:00,78.0,63.0,29.87,NW,310,7.5,9.0,60,0.00,,,0.00,VWS V14.01,2013-06-02 22:33:00,
2013-06-02 18:34:00,78.0,63.0,29.87,NNW,331,6.0,9.0,60,0.00,,,0.00,VWS V14.01,2013-06-02 22:34:00,
2013-06-02 18:35:00,77.9,62.9,29.87,WNW,300,10.5,10.5,60,0.00,,,0.00,VWS V14.01,2013-06-02 22:35:00,
2013-06-02 18:36:00,78.0,63.0,29.87,WSW,246,6.0,10.5,60,0.00,,,0.00,VWS V14.01,2013-06-02 22:36:00,
2013-06-02 18:37:00,78.0,63.5,29.87,NNE,15,9.0,13.5,61,0.00,,,0.00,VWS V14.01,2013-06-02 22:37:00,
2013-06-02 18:38:00,78.0,63.0,29.87,WSW,258,4.5,10.5,60,0.00,,,0.00,VWS V14.01,2013-06-02 22:38:00,
2013-06-02 18:39:00,78.0,63.5,29.87,WSW,252,7.5,13.5,61,0.00,,,0.00,VWS V14.01,2013-06-02 22:39:00,
2013-06-02 18:40:00,77.9,62.9,29.87,North,355,4.5,10.5,60,0.00,,,0.00,VWS V14.01,2013-06-02 22:40:00,
2013-06-02 18:41:00,77.9,62.9,29.87,NNW,340,9.0,12.0,60,0.00,,,0.00,VWS V14.01,2013-06-02 22:41:00,
2013-06-02 18:42:00,77.9,62.9,29.87,WSW,250,9.0,9.0,60,0.00,,,0.00,VWS V14.01,2013-06-02 22:42:00,
2013-06-02 18:43:00,77.9,62.9,29.87,NW,326,7.5,13.5,60,0.00,,,0.00,VWS V14.01,2013-06-02 22:43:00,
2013-06-02 18:44:00,77.9,62.9,29.87,WNW,285,7.5,13.5,60,0.00,,,0.00,VWS V14.01,2013-06-02 22:44:00,
2013-06-02 18:45:00,78.0,63.0,29.87,North,355,12.0,12.0,60,0.00,,,0.00,VWS V14.01,2013-06-02 22:45:00,
2013-06-02 18:46:00,78.1,63.1,29.87,NW,321,7.5,12.0,60,0.00,,,0.00,VWS V14.01,2013-06-02 22:46:00,
2013-06-02 18:47:00,78.0,63.0,29.87,WNW,288,10.5,18.0,60,0.00,,,0.00,VWS V14.01,2013-06-02 22:47:00,
2013-06-02 18:48:00,77.9,62.9,29.87,WNW,293,16.5,16.5,60,0.00,,,0.00,VWS V14.01,2013-06-02 22:48:00,
2013-06-02 18:49:00,77.8,62.8,29.87,WNW,291,12.0,16.5,60,0.00,,,0.00,VWS V14.01,2013-06-02 22:49:00,
2013-06-02 18:50:00,77.8,62.8,29.87,WSW,255,15.0,15.0,60,0.00,,,0.00,VWS V14.01,2013-06-02 22:50:00,
2013-06-02 18:51:00,77.7,62.7,29.87,West,269,9.0,15.0,60,0.00,,,0.00,VWS V14.01,2013-06-02 22:51:00,
2013-06-02 18:52:00,77.6,63.1,29.87,WNW,298,6.0,15.0,61,0.00,,,0.00,VWS V14.01,2013-06-02 22:52:00,
2013-06-02 18:53:00,77.5,63.0,29.87,WNW,293,12.0,15.0,61,0.00,,,0.00,VWS V14.01,2013-06-02 22:53:00,
2013-06-02 18:54:00,77.4,62.9,29.87,WSW,244,10.5,15.0,61,0.00,,,0.00,VWS V14.01,2013-06-02 22:54:00,
2013-06-02 18:55:00,77.4,62.9,29.87,West,271,16.5,16.5,61,0.00,,,0.00,VWS V14.01,2013-06-02 22:55:00,
2013-06-02 18:56:00,77.3,62.8,29.87,NW,313,6.0,16.5,61,0.00,,,0.00,VWS V14.01,2013-06-02 22:56:00,
2013-06-02 18:57:00,77.2,63.2,29.87,WNW,285,6.0,12.0,62,0.00,,,0.00,VWS V14.01,2013-06-02 22:57:00,
2013-06-02 18:58:00,77.2,63.2,29.87,NW,321,9.0,9.0,62,0.00,,,0.00,VWS V14.01,2013-06-02 22:58:00,
2013-06-02 18:59:00,77.1,63.1,29.87,West,269,7.5,12.0,62,0.00,,,0.00,VWS V14.01,2013-06-02 22:59:00,
2013-06-02 19:00:00,77.1,63.1,29.87,WNW,302,10.5,13.5,62,0.00,,,0.00,VWS V14.01,2013-06-02 23:00:00,
2013-06-02 19:01:00,77.0,63.0,29.87,WNW,286,6.0,12.0,62,0.00,,,0.00,VWS V14.01,2013-06-02 23:01:00,
2013-06-02 19:02:00,77.0,63.0,29.87,NNW,333,6.0,13.5,62,0.00,,,0.00,VWS V14.01,2013-06-02 23:02:00,
2013-06-02 19:03:00,77.1,63.5,29.87,NW,326,7.5,9.0,63,0.00,,,0.00,VWS V14.01,2013-06-02 23:03:00,
2013-06-02 19:04:00,77.1,63.5,29.87,NW,310,4.5,9.0,63,0.00,,,0.00,VWS V14.01,2013-06-02 23:04:00,
2013-06-02 19:05:00,77.2,63.6,29.87,WNW,291,7.5,9.0,63,0.00,,,0.00,VWS V14.01,2013-06-02 23:05:00,
2013-06-02 19:06:00,77.2,63.6,29.87,WNW,289,6.0,9.0,63,0.00,,,0.00,VWS V14.01,2013-06-02 23:06:00,
2013-06-02 19:07:00,77.2,63.6,29.87,NW,308,6.0,9.0,63,0.00,,,0.00,VWS V14.01,2013-06-02 23:07:00,
2013-06-02 19:08:00,77.1,63.5,29.88,NW,326,6.0,12.0,63,0.00,,,0.00,VWS V14.01,2013-06-02 23:08:00,
2013-06-02 19:09:00,77.1,63.5,29.88,NW,324,6.0,15.0,63,0.00,,,0.00,VWS V14.01,2013-06-02 23:09:00,
2013-06-02 19:10:00,76.9,63.4,29.88,NW,308,7.5,16.5,63,0.00,,,0.00,VWS V14.01,2013-06-02 23:10:00,
2013-06-02 19:11:00,76.8,62.8,29.88,WNW,289,9.0,9.0,62,0.00,,,0.00,VWS V14.01,2013-06-02 23:11:00,
2013-06-02 19:12:00,76.8,63.3,29.88,NE,46,4.5,12.0,63,0.00,,,0.00,VWS V14.01,2013-06-02 23:12:00,
2013-06-02 19:13:00,76.9,63.4,29.88,NW,319,6.0,6.0,63,0.00,,,0.00,VWS V14.01,2013-06-02 23:13:00,
2013-06-02 19:14:00,77.0,63.5,29.88,West,269,3.0,6.0,63,0.00,,,0.00,VWS V14.01,2013-06-02 23:14:00,
2013-06-02 19:15:00,77.0,63.5,29.88,West,260,9.0,9.0,63,0.00,,,0.00,VWS V14.01,2013-06-02 23:15:00,
2013-06-02 19:16:00,77.0,63.5,29.88,NW,326,9.0,12.0,63,0.00,,,0.00,VWS V14.01,2013-06-02 23:16:00,
2013-06-02 19:17:00,77.0,63.5,29.88,WNW,298,6.0,10.5,63,0.00,,,0.00,VWS V14.01,2013-06-02 23:17:00,
2013-06-02 19:18:00,76.9,62.9,29.88,WSW,247,6.0,12.0,62,0.00,,,0.00,VWS V14.01,2013-06-02 23:18:00,
2013-06-02 19:19:00,76.8,62.8,29.88,WNW,293,10.5,12.0,62,0.00,,,0.00,VWS V14.01,2013-06-02 23:19:00,
2013-06-02 19:20:00,76.7,62.7,29.88,West,275,4.5,12.0,62,0.00,,,0.00,VWS V14.01,2013-06-02 23:20:00,
2013-06-02 19:21:00,76.6,63.1,29.88,WNW,300,7.5,10.5,63,0.00,,,0.00,VWS V14.01,2013-06-02 23:21:00,
2013-06-02 19:22:00,76.5,62.5,29.88,North,3,4.5,9.0,62,0.00,,,0.00,VWS V14.01,2013-06-02 23:22:00,
2013-06-02 19:23:00,76.4,62.9,29.88,WNW,299,6.0,6.0,63,0.00,,,0.00,VWS V14.01,2013-06-02 23:23:00,
2013-06-02 19:24:00,76.3,62.8,29.88,WNW,285,6.0,7.5,63,0.00,,,0.00,VWS V14.01,2013-06-02 23:24:00,
2013-06-02 19:25:00,76.2,62.7,29.88,WNW,296,4.5,6.0,63,0.00,,,0.00,VWS V14.01,2013-06-02 23:25:00,
2013-06-02 19:26:00,76.2,62.7,29.88,WNW,299,4.5,7.5,63,0.00,,,0.00,VWS V14.01,2013-06-02 23:26:00,
2013-06-02 19:27:00,76.1,62.6,29.88,WNW,282,15.0,15.0,63,0.00,,,0.00,VWS V14.01,2013-06-02 23:27:00,
2013-06-02 19:28:00,75.9,62.9,29.88,WNW,302,13.5,15.0,64,0.00,,,0.00,VWS V14.01,2013-06-02 23:28:00,
2013-06-02 19:29:00,75.9,62.9,29.88,West,272,7.5,15.0,64,0.00,,,0.00,VWS V14.01,2013-06-02 23:29:00,
2013-06-02 19:30:00,75.7,62.7,29.88,WNW,300,4.5,10.5,64,0.00,,,0.00,VWS V14.01,2013-06-02 23:30:00,
2013-06-02 19:31:00,75.6,63.0,29.88,WNW,291,4.5,13.5,65,0.00,,,0.00,VWS V14.01,2013-06-02 23:31:00,
2013-06-02 19:32:00,75.5,62.9,29.88,NNW,331,12.0,12.0,65,0.00,,,0.00,VWS V14.01,2013-06-02 23:32:00,
2013-06-02 19:33:00,75.4,62.8,29.88,NW,305,4.5,6.0,65,0.00,,,0.00,VWS V14.01,2013-06-02 23:33:00,
2013-06-02 19:34:00,75.3,62.7,29.88,NNW,330,7.5,7.5,65,0.00,,,0.00,VWS V14.01,2013-06-02 23:34:00,
2013-06-02 19:35:00,75.3,62.7,29.88,NW,312,4.5,7.5,65,0.00,,,0.00,VWS V14.01,2013-06-02 23:35:00,
2013-06-02 19:36:00,75.2,63.1,29.88,WNW,295,3.0,7.5,66,0.00,,,0.00,VWS V14.01,2013-06-02 23:36:00,
2013-06-02 19:37:00,75.1,63.0,29.88,NW,307,7.5,9.0,66,0.00,,,0.00,VWS V14.01,2013-06-02 23:37:00,
2013-06-02 19:38:00,75.0,62.9,29.88,NW,307,6.0,6.0,66,0.00,,,0.00,VWS V14.01,2013-06-02 23:38:00,
2013-06-02 19:39:00,75.0,63.3,29.88,NW,305,4.5,6.0,67,0.00,,,0.00,VWS V14.01,2013-06-02 23:39:00,
2013-06-02 19:40:00,74.9,63.2,29.88,NW,324,7.5,7.5,67,0.00,,,0.00,VWS V14.01,2013-06-02 23:40:00,
2013-06-02 19:41:00,74.9,62.8,29.88,North,359,7.5,10.5,66,0.00,,,0.00,VWS V14.01,2013-06-02 23:41:00,
2013-06-02 19:42:00,74.9,63.2,29.88,NW,324,7.5,9.0,67,0.00,,,0.00,VWS V14.01,2013-06-02 23:42:00,
2013-06-02 19:43:00,74.9,62.8,29.88,NW,308,7.5,9.0,66,0.00,,,0.00,VWS V14.01,2013-06-02 23:43:00,
2013-06-02 19:44:00,75.0,62.9,29.88,North,352,12.0,12.0,66,0.00,,,0.00,VWS V14.01,2013-06-02 23:44:00,
2013-06-02 19:45:00,75.0,62.9,29.88,North,4,6.0,15.0,66,0.00,,,0.00,VWS V14.01,2013-06-02 23:45:00,
2013-06-02 19:46:00,75.1,63.0,29.88,NNW,330,3.0,10.5,66,0.00,,,0.00,VWS V14.01,2013-06-02 23:46:00,
2013-06-02 19:47:00,75.1,63.0,29.88,NW,316,7.5,7.5,66,0.00,,,0.00,VWS V14.01,2013-06-02 23:47:00,
2013-06-02 19:48:00,75.2,63.1,29.88,West,278,9.0,9.0,66,0.00,,,0.00,VWS V14.01,2013-06-02 23:48:00,
2013-06-02 19:49:00,75.2,63.1,29.88,North,6,3.0,9.0,66,0.00,,,0.00,VWS V14.01,2013-06-02 23:49:00,
2013-06-02 19:50:00,75.2,62.6,29.88,NNE,19,12.0,13.5,65,0.00,,,0.00,VWS V14.01,2013-06-02 23:50:00,
2013-06-02 19:51:00,75.1,62.5,29.88,WNW,296,7.5,15.0,65,0.00,,,0.00,VWS V14.01,2013-06-02 23:51:00,
2013-06-02 19:52:00,75.0,62.5,29.89,West,279,6.0,16.5,65,0.00,,,0.00,VWS V14.01,2013-06-02 23:52:00,
2013-06-02 19:53:00,75.0,62.5,29.88,NW,324,9.0,12.0,65,0.00,,,0.00,VWS V14.01,2013-06-02 23:53:00,
2013-06-02 19:54:00,75.0,62.5,29.88,WSW,251,4.5,12.0,65,0.00,,,0.00,VWS V14.01,2013-06-02 23:54:00,
2013-06-02 19:55:00,75.0,62.5,29.88,NNW,331,6.0,9.0,65,0.00,,,0.00,VWS V14.01,2013-06-02 23:55:00,
2013-06-02 19:56:00,75.0,62.9,29.88,WNW,299,6.0,9.0,66,0.00,,,0.00,VWS V14.01,2013-06-02 23:56:00,
2013-06-02 19:57:00,75.0,62.9,29.88,West,267,6.0,15.0,66,0.00,,,0.00,VWS V14.01,2013-06-02 23:57:00,
2013-06-02 19:58:00,75.0,62.9,29.88,WNW,296,3.0,3.0,66,0.00,,,0.00,VWS V14.01,2013-06-02 23:58:00,
2013-06-02 19:59:00,75.0,62.9,29.88,NNW,347,4.5,7.5,66,0.00,,,0.00,VWS V14.01,2013-06-02 23:59:00,
2013-06-02 20:00:00,74.9,62.8,29.88,WNW,303,3.0,7.5,66,0.00,,,0.00,VWS V14.01,2013-06-03 00:00:00,
2013-06-02 20:01:00,74.9,62.8,29.88,WNW,298,4.5,4.5,66,0.00,,,0.00,VWS V14.01,2013-06-03 00:01:00,
2013-06-02 20:02:00,74.9,62.8,29.89,NW,326,6.0,6.0,66,0.00,,,0.00,VWS V14.01,2013-06-03 00:02:00,
2013-06-02 20:03:00,74.9,62.8,29.88,SW,219,4.5,4.5,66,0.00,,,0.00,VWS V14.01,2013-06-03 00:03:00,
2013-06-02 20:04:00,74.9,63.2,29.88,NW,321,4.5,9.0,67,0.00,,,0.00,VWS V14.01,2013-06-03 00:04:00,
2013-06-02 20:05:00,74.9,62.8,29.88,WNW,300,9.0,12.0,66,0.00,,,0.00,VWS V14.01,2013-06-03 00:05:00,
2013-06-02 20:06:00,74.8,62.7,29.89,WNW,299,12.0,12.0,66,0.00,,,0.00,VWS V14.01,2013-06-03 00:06:00,
2013-06-02 20:07:00,74.8,62.3,29.89,SW,224,6.0,13.5,65,0.00,,,0.00,VWS V14.01,2013-06-03 00:07:00,
2013-06-02 20:08:00,74.7,62.6,29.89,West,276,4.5,4.5,66,0.00,,,0.00,VWS V14.01,2013-06-03 00:08:00,
2013-06-02 20:09:00,74.7,62.6,29.89,NW,326,3.0,6.0,66,0.00,,,0.00,VWS V14.01,2013-06-03 00:09:00,
2013-06-02 20:10:00,74.6,62.5,29.89,NW,310,6.0,10.5,66,0.00,,,0.00,VWS V14.01,2013-06-03 00:10:00,
2013-06-02 20:11:00,74.6,62.5,29.89,WNW,285,3.0,6.0,66,0.00,,,0.00,VWS V14.01,2013-06-03 00:11:00,
2013-06-02 20:12:00,74.5,62.4,29.89,WNW,291,7.5,13.5,66,0.00,,,0.00,VWS V14.01,2013-06-03 00:12:00,
2013-06-02 20:13:00,74.4,62.3,29.89,NNW,340,4.5,4.5,66,0.00,,,0.00,VWS V14.01,2013-06-03 00:13:00,
2013-06-02 20:14:00,74.3,62.2,29.89,NW,306,12.0,12.0,66,0.00,,,0.00,VWS V14.01,2013-06-03 00:14:00,
2013-06-02 20:15:00,74.2,62.1,29.89,NW,324,6.0,12.0,66,0.00,,,0.00,VWS V14.01,2013-06-03 00:15:00,
2013-06-02 20:16:00,74.1,62.5,29.89,WNW,287,4.5,10.5,67,0.00,,,0.00,VWS V14.01,2013-06-03 00:16:00,
2013-06-02 20:17:00,74.0,62.4,29.89,WNW,293,9.0,9.0,67,0.00,,,0.00,VWS V14.01,2013-06-03 00:17:00,
2013-06-02 20:18:00,73.9,62.3,29.89,NW,323,3.0,3.0,67,0.00,,,0.00,VWS V14.01,2013-06-03 00:18:00,
2013-06-02 20:19:00,73.9,62.3,29.89,NW,321,6.0,9.0,67,0.00,,,0.00,VWS V14.01,2013-06-03 00:19:00,
2013-06-02 20:20:00,73.8,62.2,29.89,WSW,247,6.0,7.5,67,0.00,,,0.00,VWS V14.01,2013-06-03 00:20:00,
2013-06-02 20:21:00,73.7,62.1,29.89,NW,321,4.5,7.5,67,0.00,,,0.00,VWS V14.01,2013-06-03 00:21:00,
2013-06-02 20:22:00,73.6,62.4,29.90,West,265,3.0,6.0,68,0.00,,,0.00,VWS V14.01,2013-06-03 00:22:00,
2013-06-02 20:23:00,73.5,62.3,29.90,NNW,328,4.5,4.5,68,0.00,,,0.00,VWS V14.01,2013-06-03 00:23:00,
2013-06-02 20:24:00,73.5,62.3,29.90,NW,313,4.5,4.5,68,0.00,,,0.00,VWS V14.01,2013-06-03 00:24:00,
2013-06-02 20:25:00,73.4,62.2,29.90,NW,306,4.5,7.5,68,0.00,,,0.00,VWS V14.01,2013-06-03 00:25:00,
2013-06-02 20:26:00,73.3,62.1,29.90,NNW,329,4.5,7.5,68,0.00,,,0.00,VWS V14.01,2013-06-03 00:26:00,
2013-06-02 20:27:00,73.3,62.1,29.90,WNW,282,3.0,9.0,68,0.00,,,0.00,VWS V14.01,2013-06-03 00:27:00,
2013-06-02 20:28:00,73.2,62.0,29.90,West,276,10.5,10.5,68,0.00,,,0.00,VWS V14.01,2013-06-03 00:28:00,
2013-06-02 20:29:00,73.2,62.0,29.90,NE,54,7.5,10.5,68,0.00,,,0.00,VWS V14.01,2013-06-03 00:29:00,
2013-06-02 20:30:00,73.1,61.9,29.90,WNW,287,6.0,9.0,68,0.00,,,0.00,VWS V14.01,2013-06-03 00:30:00,
2013-06-02 20:31:00,73.0,62.2,29.90,WNW,295,3.0,6.0,69,0.00,,,0.00,VWS V14.01,2013-06-03 00:31:00,
2013-06-02 20:32:00,73.0,61.8,29.90,NW,324,4.5,10.5,68,0.00,,,0.00,VWS V14.01,2013-06-03 00:32:00,
2013-06-02 20:33:00,72.9,61.7,29.90,NW,316,7.5,7.5,68,0.00,,,0.00,VWS V14.01,2013-06-03 00:33:00,
2013-06-02 20:34:00,72.8,61.6,29.90,NW,307,4.5,9.0,68,0.00,,,0.00,VWS V14.01,2013-06-03 00:34:00,
2013-06-02 20:35:00,72.7,62.0,29.90,WNW,300,3.0,6.0,69,0.00,,,0.00,VWS V14.01,2013-06-03 00:35:00,
2013-06-02 20:36:00,72.6,61.9,29.90,WNW,296,4.5,4.5,69,0.00,,,0.00,VWS V14.01,2013-06-03 00:36:00,
2013-06-02 20:37:00,72.5,61.8,29.90,WNW,293,1.5,4.5,69,0.00,,,0.00,VWS V14.01,2013-06-03 00:37:00,
2013-06-02 20:38:00,72.4,61.7,29.90,NW,319,3.0,3.0,69,0.00,,,0.00,VWS V14.01,2013-06-03 00:38:00,
2013-06-02 20:39:00,72.3,62.0,29.90,NW,324,6.0,6.0,70,0.00,,,0.00,VWS V14.01,2013-06-03 00:39:00,
2013-06-02 20:40:00,72.2,61.9,29.90,West,280,3.0,6.0,70,0.00,,,0.00,VWS V14.01,2013-06-03 00:40:00,
2013-06-02 20:41:00,72.2,61.9,29.90,WNW,291,3.0,4.5,70,0.00,,,0.00,VWS V14.01,2013-06-03 00:41:00,
2013-06-02 20:42:00,72.1,61.8,29.90,NNW,328,4.5,4.5,70,0.00,,,0.00,VWS V14.01,2013-06-03 00:42:00,
2013-06-02 20:43:00,72.0,61.7,29.90,NW,321,1.5,1.5,70,0.00,,,0.00,VWS V14.01,2013-06-03 00:43:00,
2013-06-02 20:44:00,71.9,61.6,29.90,NW,305,4.5,7.5,70,0.00,,,0.00,VWS V14.01,2013-06-03 00:44:00,
2013-06-02 20:45:00,71.9,62.0,29.90,NNW,337,1.5,4.5,71,0.00,,,0.00,VWS V14.01,2013-06-03 00:45:00,
2013-06-02 20:46:00,71.8,61.9,29.90,NNW,331,4.5,7.5,71,0.00,,,0.00,VWS V14.01,2013-06-03 00:46:00,
2013-06-02 20:47:00,71.7,61.8,29.91,WNW,285,3.0,4.5,71,0.00,,,0.00,VWS V14.01,2013-06-03 00:47:00,
2013-06-02 20:48:00,71.7,61.8,29.91,NW,308,3.0,3.0,71,0.00,,,0.00,VWS V14.01,2013-06-03 00:48:00,
2013-06-02 20:49:00,71.6,61.7,29.91,NW,313,4.5,4.5,71,0.00,,,0.00,VWS V14.01,2013-06-03 00:49:00,
2013-06-02 20:50:00,71.6,61.7,29.91,West,274,3.0,4.5,71,0.00,,,0.00,VWS V14.01,2013-06-03 00:50:00,
2013-06-02 20:51:00,71.5,61.6,29.91,WNW,287,3.0,4.5,71,0.00,,,0.00,VWS V14.01,2013-06-03 00:51:00,
2013-06-02 20:52:00,71.5,61.6,29.91,NW,307,1.5,4.5,71,0.00,,,0.00,VWS V14.01,2013-06-03 00:52:00,
2013-06-02 20:53:00,71.5,62.0,29.91,WNW,291,1.5,1.5,72,0.00,,,0.00,VWS V14.01,2013-06-03 00:53:00,
2013-06-02 20:54:00,71.4,61.9,29.91,WNW,291,1.5,1.5,72,0.00,,,0.00,VWS V14.01,2013-06-03 00:54:00,
2013-06-02 20:55:00,71.4,61.9,29.91,WNW,292,1.5,3.0,72,0.00,,,0.00,VWS V14.01,2013-06-03 00:55:00,
2013-06-02 20:56:00,71.4,61.9,29.91,WNW,293,1.5,3.0,72,0.00,,,0.00,VWS V14.01,2013-06-03 00:56:00,
2013-06-02 20:57:00,71.3,61.8,29.91,WNW,293,1.5,1.5,72,0.00,,,0.00,VWS V14.01,2013-06-03 00:57:00,
2013-06-02 20:58:00,71.3,61.8,29.91,WNW,293,1.5,1.5,72,0.00,,,0.00,VWS V14.01,2013-06-03 00:58:00,
2013-06-02 20:59:00,71.2,61.7,29.91,WNW,293,1.5,3.0,72,0.00,,,0.00,VWS V14.01,2013-06-03 00:59:00,
2013-06-02 21:00:00,71.1,61.6,29.91,WNW,293,1.5,3.0,72,0.00,,,0.00,VWS V14.01,2013-06-03 01:00:00,
2013-06-02 21:01:00,71.1,61.6,29.91,WNW,293,1.5,1.5,72,0.00,,,0.00,VWS V14.01,2013-06-03 01:01:00,
2013-06-02 21:02:00,70.9,61.4,29.91,WNW,285,1.5,3.0,72,0.00,,,0.00,VWS V14.01,2013-06-03 01:02:00,
2013-06-02 21:03:00,70.9,61.4,29.91,WNW,285,1.5,3.0,72,0.00,,,0.00,VWS V14.01,2013-06-03 01:03:00,
2013-06-02 21:04:00,70.9,61.8,29.91,WNW,284,3.0,3.0,73,0.00,,,0.00,VWS V14.01,2013-06-03 01:04:00,
2013-06-02 21:05:00,70.8,61.7,29.91,WNW,284,3.0,3.0,73,0.00,,,0.00,VWS V14.01,2013-06-03 01:05:00,
2013-06-02 21:06:00,70.7,61.6,29.91,WNW,284,3.0,3.0,73,0.00,,,0.00,VWS V14.01,2013-06-03 01:06:00,
2013-06-02 21:07:00,70.6,61.5,29.91,West,280,3.0,4.5,73,0.00,,,0.00,VWS V14.01,2013-06-03 01:07:00,
2013-06-02 21:08:00,70.6,61.5,29.91,West,280,3.0,4.5,73,0.00,,,0.00,VWS V14.01,2013-06-03 01:08:00,
2013-06-02 21:09:00,70.6,61.5,29.91,West,280,3.0,3.0,73,0.00,,,0.00,VWS V14.01,2013-06-03 01:09:00,
2013-06-02 21:10:00,70.5,61.8,29.91,West,261,1.5,3.0,74,0.00,,,0.00,VWS V14.01,2013-06-03 01:10:00,
2013-06-02 21:11:00,70.5,61.8,29.91,West,265,3.0,3.0,74,0.00,,,0.00,VWS V14.01,2013-06-03 01:11:00,
2013-06-02 21:12:00,70.3,61.6,29.91,West,278,4.5,4.5,74,0.00,,,0.00,VWS V14.01,2013-06-03 01:12:00,
2013-06-02 21:13:00,70.3,61.6,29.91,West,278,3.0,4.5,74,0.00,,,0.00,VWS V14.01,2013-06-03 01:13:00,
2013-06-02 21:14:00,70.3,61.6,29.91,West,278,3.0,3.0,74,0.00,,,0.00,VWS V14.01,2013-06-03 01:14:00,
2013-06-02 21:15:00,70.3,61.6,29.91,NW,306,1.5,3.0,74,0.00,,,0.00,VWS V14.01,2013-06-03 01:15:00,
2013-06-02 21:16:00,70.3,61.6,29.91,West,265,3.0,3.0,74,0.00,,,0.00,VWS V14.01,2013-06-03 01:16:00,
2013-06-02 21:17:00,70.2,61.5,29.91,West,274,1.5,3.0,74,0.00,,,0.00,VWS V14.01,2013-06-03 01:17:00,
2013-06-02 21:18:00,70.2,61.5,29.91,West,275,1.5,3.0,74,0.00,,,0.00,VWS V14.01,2013-06-03 01:18:00,
2013-06-02 21:19:00,70.2,61.5,29.91,West,274,1.5,3.0,74,0.00,,,0.00,VWS V14.01,2013-06-03 01:19:00,
2013-06-02 21:20:00,70.1,61.4,29.91,West,272,4.5,4.5,74,0.00,,,0.00,VWS V14.01,2013-06-03 01:20:00,
2013-06-02 21:21:00,70.1,61.4,29.91,West,274,4.5,4.5,74,0.00,,,0.00,VWS V14.01,2013-06-03 01:21:00,
2013-06-02 21:22:00,70.1,61.4,29.91,West,273,1.5,1.5,74,0.00,,,0.00,VWS V14.01,2013-06-03 01:22:00,
2013-06-02 21:23:00,70.1,61.4,29.91,West,273,1.5,1.5,74,0.00,,,0.00,VWS V14.01,2013-06-03 01:23:00,
2013-06-02 21:24:00,70.0,61.3,29.91,West,274,1.5,1.5,74,0.00,,,0.00,VWS V14.01,2013-06-03 01:24:00,
2013-06-02 21:25:00,70.0,61.7,29.91,West,274,1.5,1.5,75,0.00,,,0.00,VWS V14.01,2013-06-03 01:25:00,
2013-06-02 21:26:00,69.9,61.6,29.91,West,274,1.5,1.5,75,0.00,,,0.00,VWS V14.01,2013-06-03 01:26:00,
2013-06-02 21:27:00,69.7,61.4,29.91,West,274,1.5,1.5,75,0.00,,,0.00,VWS V14.01,2013-06-03 01:27:00,
2013-06-02 21:28:00,69.7,61.4,29.91,West,274,1.5,1.5,75,0.00,,,0.00,VWS V14.01,2013-06-03 01:28:00,
2013-06-02 21:29:00,69.7,61.4,29.91,West,274,1.5,1.5,75,0.00,,,0.00,VWS V14.01,2013-06-03 01:29:00,
2013-06-02 21:30:00,69.6,61.7,29.91,West,274,1.5,1.5,76,0.00,,,0.00,VWS V14.01,2013-06-03 01:30:00,
2013-06-02 21:31:00,69.5,61.6,29.91,West,274,1.5,1.5,76,0.00,,,0.00,VWS V14.01,2013-06-03 01:31:00,
2013-06-02 21:32:00,69.4,61.5,29.91,West,274,1.5,1.5,76,0.00,,,0.00,VWS V14.01,2013-06-03 01:32:00,
2013-06-02 21:33:00,69.4,61.5,29.91,West,273,1.5,1.5,76,0.00,,,0.00,VWS V14.01,2013-06-03 01:33:00,
2013-06-02 21:34:00,69.4,61.5,29.91,West,274,1.5,1.5,76,0.00,,,0.00,VWS V14.01,2013-06-03 01:34:00,
2013-06-02 21:35:00,69.3,61.4,29.91,West,274,1.5,1.5,76,0.00,,,0.00,VWS V14.01,2013-06-03 01:35:00,
2013-06-02 21:36:00,69.3,61.4,29.91,West,274,1.5,3.0,76,0.00,,,0.00,VWS V14.01,2013-06-03 01:36:00,
2013-06-02 21:37:00,69.3,61.4,29.92,West,274,1.5,1.5,76,0.00,,,0.00,VWS V14.01,2013-06-03 01:37:00,
2013-06-02 21:38:00,69.3,61.4,29.92,West,274,1.5,1.5,76,0.00,,,0.00,VWS V14.01,2013-06-03 01:38:00,
2013-06-02 21:39:00,69.3,61.4,29.91,West,274,1.5,3.0,76,0.00,,,0.00,VWS V14.01,2013-06-03 01:39:00,
2013-06-02 21:40:00,69.3,61.4,29.91,West,274,1.5,1.5,76,0.00,,,0.00,VWS V14.01,2013-06-03 01:40:00,
2013-06-02 21:41:00,69.4,61.5,29.91,West,274,1.5,1.5,76,0.00,,,0.00,VWS V14.01,2013-06-03 01:41:00,
2013-06-02 21:42:00,69.3,61.4,29.92,West,274,1.5,1.5,76,0.00,,,0.00,VWS V14.01,2013-06-03 01:42:00,
2013-06-02 21:43:00,69.3,61.4,29.92,West,274,1.5,1.5,76,0.00,,,0.00,VWS V14.01,2013-06-03 01:43:00,
2013-06-02 21:44:00,69.3,61.4,29.92,West,274,1.5,3.0,76,0.00,,,0.00,VWS V14.01,2013-06-03 01:44:00,
2013-06-02 21:45:00,69.2,61.3,29.92,West,274,1.5,1.5,76,0.00,,,0.00,VWS V14.01,2013-06-03 01:45:00,
2013-06-02 21:46:00,69.2,61.3,29.92,West,274,1.5,1.5,76,0.00,,,0.00,VWS V14.01,2013-06-03 01:46:00,
2013-06-02 21:47:00,69.0,61.5,29.92,West,274,1.5,1.5,77,0.00,,,0.00,VWS V14.01,2013-06-03 01:47:00,
2013-06-02 21:48:00,69.0,61.5,29.92,West,274,1.5,1.5,77,0.00,,,0.00,VWS V14.01,2013-06-03 01:48:00,
2013-06-02 21:49:00,69.0,61.5,29.92,West,274,1.5,1.5,77,0.00,,,0.00,VWS V14.01,2013-06-03 01:49:00,
2013-06-02 21:50:00,68.9,61.4,29.92,West,274,1.5,1.5,77,0.00,,,0.00,VWS V14.01,2013-06-03 01:50:00,
2013-06-02 21:51:00,68.8,61.3,29.92,West,273,1.5,1.5,77,0.00,,,0.00,VWS V14.01,2013-06-03 01:51:00,
2013-06-02 21:52:00,68.7,61.2,29.92,West,274,1.5,1.5,77,0.00,,,0.00,VWS V14.01,2013-06-03 01:52:00,
2013-06-02 21:53:00,68.7,61.2,29.92,West,274,1.5,1.5,77,0.00,,,0.00,VWS V14.01,2013-06-03 01:53:00,
2013-06-02 21:54:00,68.7,61.2,29.92,West,274,1.5,1.5,77,0.00,,,0.00,VWS V14.01,2013-06-03 01:54:00,
2013-06-02 21:55:00,68.6,61.5,29.92,West,274,1.5,1.5,78,0.00,,,0.00,VWS V14.01,2013-06-03 01:55:00,
2013-06-02 21:56:00,68.6,61.5,29.92,West,274,1.5,3.0,78,0.00,,,0.00,VWS V14.01,2013-06-03 01:56:00,
2013-06-02 21:57:00,68.6,61.5,29.92,West,274,1.5,3.0,78,0.00,,,0.00,VWS V14.01,2013-06-03 01:57:00,
2013-06-02 21:58:00,68.6,61.5,29.92,West,274,1.5,3.0,78,0.00,,,0.00,VWS V14.01,2013-06-03 01:58:00,
2013-06-02 21:59:00,68.5,61.4,29.92,West,274,1.5,1.5,78,0.00,,,0.00,VWS V14.01,2013-06-03 01:59:00,
2013-06-02 22:00:00,68.5,61.4,29.92,West,274,1.5,1.5,78,0.00,,,0.00,VWS V14.01,2013-06-03 02:00:00,
2013-06-02 22:01:00,68.5,61.4,29.92,West,274,1.5,1.5,78,0.00,,,0.00,VWS V14.01,2013-06-03 02:01:00,
2013-06-02 22:02:00,68.4,61.3,29.92,West,274,1.5,3.0,78,0.00,,,0.00,VWS V14.01,2013-06-03 02:02:00,
2013-06-02 22:03:00,68.4,61.3,29.92,West,274,1.5,3.0,78,0.00,,,0.00,VWS V14.01,2013-06-03 02:03:00,
2013-06-02 22:04:00,68.4,61.3,29.92,West,274,1.5,1.5,78,0.00,,,0.00,VWS V14.01,2013-06-03 02:04:00,
2013-06-02 22:05:00,68.4,61.6,29.92,West,274,1.5,3.0,79,0.00,,,0.00,VWS V14.01,2013-06-03 02:05:00,
2013-06-02 22:06:00,68.4,61.6,29.92,West,274,1.5,1.5,79,0.00,,,0.00,VWS V14.01,2013-06-03 02:06:00,
2013-06-02 22:07:00,68.3,61.5,29.92,West,274,1.5,1.5,79,0.00,,,0.00,VWS V14.01,2013-06-03 02:07:00,
2013-06-02 22:08:00,68.3,61.5,29.92,West,274,1.5,1.5,79,0.00,,,0.00,VWS V14.01,2013-06-03 02:08:00,
2013-06-02 22:09:00,68.2,61.5,29.92,West,274,1.5,1.5,79,0.00,,,0.00,VWS V14.01,2013-06-03 02:09:00,
2013-06-02 22:10:00,68.1,61.3,29.92,West,273,1.5,1.5,79,0.00,,,0.00,VWS V14.01,2013-06-03 02:10:00,
2013-06-02 22:11:00,68.1,61.7,29.92,West,274,3.0,3.0,80,0.00,,,0.00,VWS V14.01,2013-06-03 02:11:00,
2013-06-02 22:12:00,67.9,61.5,29.92,West,274,1.5,1.5,80,0.00,,,0.00,VWS V14.01,2013-06-03 02:12:00,
2013-06-02 22:13:00,68.0,61.6,29.92,West,274,1.5,1.5,80,0.00,,,0.00,VWS V14.01,2013-06-03 02:13:00,
2013-06-02 22:14:00,67.9,61.5,29.92,West,274,1.5,1.5,80,0.00,,,0.00,VWS V14.01,2013-06-03 02:14:00,
2013-06-02 22:15:00,67.9,61.5,29.92,West,274,1.5,1.5,80,0.00,,,0.00,VWS V14.01,2013-06-03 02:15:00,
2013-06-02 22:16:00,67.8,61.4,29.92,West,272,3.0,3.0,80,0.00,,,0.00,VWS V14.01,2013-06-03 02:16:00,
2013-06-02 22:17:00,67.8,61.4,29.92,West,272,3.0,3.0,80,0.00,,,0.00,VWS V14.01,2013-06-03 02:17:00,
2013-06-02 22:18:00,67.8,61.4,29.92,West,272,3.0,3.0,80,0.00,,,0.00,VWS V14.01,2013-06-03 02:18:00,
2013-06-02 22:19:00,67.7,61.3,29.92,West,268,3.0,3.0,80,0.00,,,0.00,VWS V14.01,2013-06-03 02:19:00,
2013-06-02 22:20:00,67.7,61.3,29.92,West,261,3.0,3.0,80,0.00,,,0.00,VWS V14.01,2013-06-03 02:20:00,
2013-06-02 22:21:00,67.8,61.4,29.92,West,267,4.5,4.5,80,0.00,,,0.00,VWS V14.01,2013-06-03 02:21:00,
2013-06-02 22:22:00,67.8,61.4,29.92,WSW,254,1.5,3.0,80,0.00,,,0.00,VWS V14.01,2013-06-03 02:22:00,
2013-06-02 22:23:00,67.8,61.4,29.92,WSW,254,3.0,3.0,80,0.00,,,0.00,VWS V14.01,2013-06-03 02:23:00,
2013-06-02 22:24:00,67.7,61.3,29.92,WSW,257,4.5,4.5,80,0.00,,,0.00,VWS V14.01,2013-06-03 02:24:00,
2013-06-02 22:25:00,67.8,61.4,29.92,WSW,255,3.0,4.5,80,0.00,,,0.00,VWS V14.01,2013-06-03 02:25:00,
2013-06-02 22:26:00,67.8,61.4,29.92,West,269,3.0,4.5,80,0.00,,,0.00,VWS V14.01,2013-06-03 02:26:00,
2013-06-02 22:27:00,67.8,61.1,29.92,West,260,3.0,3.0,79,0.00,,,0.00,VWS V14.01,2013-06-03 02:27:00,
2013-06-02 22:28:00,67.8,61.1,29.92,WSW,257,3.0,3.0,79,0.00,,,0.00,VWS V14.01,2013-06-03 02:28:00,
2013-06-02 22:29:00,67.8,61.1,29.92,WSW,248,3.0,4.5,79,0.00,,,0.00,VWS V14.01,2013-06-03 02:29:00,
2013-06-02 22:30:00,67.8,61.1,29.92,WSW,247,4.5,4.5,79,0.00,,,0.00,VWS V14.01,2013-06-03 02:30:00,
2013-06-02 22:31:00,67.8,61.1,29.92,West,264,4.5,4.5,79,0.00,,,0.00,VWS V14.01,2013-06-03 02:31:00,
2013-06-02 22:32:00,67.9,61.2,29.92,West,274,1.5,6.0,79,0.00,,,0.00,VWS V14.01,2013-06-03 02:32:00,
2013-06-02 22:33:00,67.9,61.2,29.92,West,275,3.0,6.0,79,0.00,,,0.00,VWS V14.01,2013-06-03 02:33:00,
2013-06-02 22:34:00,67.9,61.2,29.92,WSW,253,4.5,4.5,79,0.00,,,0.00,VWS V14.01,2013-06-03 02:34:00,
2013-06-02 22:35:00,67.9,61.2,29.92,West,273,4.5,4.5,79,0.00,,,0.00,VWS V14.01,2013-06-03 02:35:00,
2013-06-02 22:36:00,67.9,61.2,29.92,WSW,253,4.5,4.5,79,0.00,,,0.00,VWS V14.01,2013-06-03 02:36:00,
2013-06-02 22:37:00,67.9,61.2,29.92,WNW,293,4.5,6.0,79,0.00,,,0.00,VWS V14.01,2013-06-03 02:37:00,
2013-06-02 22:38:00,67.9,61.2,29.92,WNW,293,3.0,6.0,79,0.00,,,0.00,VWS V14.01,2013-06-03 02:38:00,
2013-06-02 22:39:00,67.9,61.2,29.92,WNW,288,3.0,6.0,79,0.00,,,0.00,VWS V14.01,2013-06-03 02:39:00,
2013-06-02 22:40:00,67.9,61.2,29.92,WNW,299,4.5,4.5,79,0.00,,,0.00,VWS V14.01,2013-06-03 02:40:00,
2013-06-02 22:41:00,67.9,61.2,29.92,West,274,4.5,4.5,79,0.00,,,0.00,VWS V14.01,2013-06-03 02:41:00,
2013-06-02 22:42:00,67.9,60.8,29.92,West,279,3.0,4.5,78,0.00,,,0.00,VWS V14.01,2013-06-03 02:42:00,
2013-06-02 22:43:00,67.9,60.8,29.92,NW,307,4.5,4.5,78,0.00,,,0.00,VWS V14.01,2013-06-03 02:43:00,
2013-06-02 22:44:00,67.9,60.8,29.92,West,274,3.0,6.0,78,0.00,,,0.00,VWS V14.01,2013-06-03 02:44:00,
2013-06-02 22:45:00,67.9,60.8,29.93,West,274,4.5,4.5,78,0.00,,,0.00,VWS V14.01,2013-06-03 02:45:00,
2013-06-02 22:46:00,67.9,60.8,29.92,WSW,249,3.0,4.5,78,0.00,,,0.00,VWS V14.01,2013-06-03 02:46:00,
2013-06-02 22:47:00,67.9,60.8,29.93,WNW,287,3.0,4.5,78,0.00,,,0.00,VWS V14.01,2013-06-03 02:47:00,
2013-06-02 22:48:00,67.9,60.8,29.93,WNW,287,3.0,4.5,78,0.00,,,0.00,VWS V14.01,2013-06-03 02:48:00,
2013-06-02 22:49:00,67.8,60.7,29.93,WNW,288,3.0,3.0,78,0.00,,,0.00,VWS V14.01,2013-06-03 02:49:00,
2013-06-02 22:50:00,67.8,60.7,29.93,West,278,4.5,4.5,78,0.00,,,0.00,VWS V14.01,2013-06-03 02:50:00,
2013-06-02 22:51:00,67.7,61.0,29.93,West,279,1.5,4.5,79,0.00,,,0.00,VWS V14.01,2013-06-03 02:51:00,
2013-06-02 22:52:00,67.6,60.9,29.93,West,279,1.5,1.5,79,0.00,,,0.00,VWS V14.01,2013-06-03 02:52:00,
2013-06-02 22:53:00,67.6,60.9,29.93,West,279,1.5,1.5,79,0.00,,,0.00,VWS V14.01,2013-06-03 02:53:00,
2013-06-02 22:54:00,67.6,60.9,29.93,West,279,1.5,3.0,79,0.00,,,0.00,VWS V14.01,2013-06-03 02:54:00,
2013-06-02 22:55:00,67.5,60.8,29.93,West,269,3.0,3.0,79,0.00,,,0.00,VWS V14.01,2013-06-03 02:55:00,
2013-06-02 22:56:00,67.5,60.8,29.93,WSW,246,4.5,4.5,79,0.00,,,0.00,VWS V14.01,2013-06-03 02:56:00,
2013-06-02 22:57:00,67.4,60.7,29.93,WSW,255,3.0,4.5,79,0.00,,,0.00,VWS V14.01,2013-06-03 02:57:00,
2013-06-02 22:58:00,67.4,60.7,29.93,WSW,237,4.5,4.5,79,0.00,,,0.00,VWS V14.01,2013-06-03 02:58:00,
2013-06-02 22:59:00,67.3,60.6,29.93,WSW,246,4.5,4.5,79,0.00,,,0.00,VWS V14.01,2013-06-03 02:59:00,
2013-06-02 23:00:00,67.3,60.9,29.93,West,266,4.5,4.5,80,0.00,,,0.00,VWS V14.01,2013-06-03 03:00:00,
2013-06-02 23:01:00,67.2,60.8,29.93,WSW,251,3.0,4.5,80,0.00,,,0.00,VWS V14.01,2013-06-03 03:01:00,
2013-06-02 23:02:00,67.2,60.8,29.94,WSW,250,3.0,4.5,80,0.00,,,0.00,VWS V14.01,2013-06-03 03:02:00,
2013-06-02 23:03:00,67.1,60.7,29.94,WSW,250,3.0,4.5,80,0.00,,,0.00,VWS V14.01,2013-06-03 03:03:00,
2013-06-02 23:04:00,67.1,60.7,29.93,WSW,248,4.5,6.0,80,0.00,,,0.00,VWS V14.01,2013-06-03 03:04:00,
2013-06-02 23:05:00,67.0,60.6,29.94,WSW,257,3.0,4.5,80,0.00,,,0.00,VWS V14.01,2013-06-03 03:05:00,
2013-06-02 23:06:00,67.0,60.6,29.93,WSW,256,3.0,3.0,80,0.00,,,0.00,VWS V14.01,2013-06-03 03:06:00,
2013-06-02 23:07:00,66.9,60.5,29.94,WSW,257,3.0,3.0,80,0.00,,,0.00,VWS V14.01,2013-06-03 03:07:00,
2013-06-02 23:08:00,66.9,60.9,29.94,WSW,257,3.0,3.0,81,0.00,,,0.00,VWS V14.01,2013-06-03 03:08:00,
2013-06-02 23:09:00,66.8,60.8,29.94,WSW,257,3.0,3.0,81,0.00,,,0.00,VWS V14.01,2013-06-03 03:09:00,
2013-06-02 23:10:00,66.8,60.8,29.94,West,269,3.0,4.5,81,0.00,,,0.00,VWS V14.01,2013-06-03 03:10:00,
2013-06-02 23:11:00,66.8,60.8,29.94,WSW,254,3.0,4.5,81,0.00,,,0.00,VWS V14.01,2013-06-03 03:11:00,
2013-06-02 23:12:00,66.7,60.7,29.94,WSW,253,3.0,4.5,81,0.00,,,0.00,VWS V14.01,2013-06-03 03:12:00,
2013-06-02 23:13:00,66.7,60.7,29.94,WSW,252,4.5,4.5,81,0.00,,,0.00,VWS V14.01,2013-06-03 03:13:00,
2013-06-02 23:14:00,66.6,60.6,29.94,WSW,253,3.0,4.5,81,0.00,,,0.00,VWS V14.01,2013-06-03 03:14:00,
2013-06-02 23:15:00,66.6,60.6,29.94,WSW,250,3.0,4.5,81,0.00,,,0.00,VWS V14.01,2013-06-03 03:15:00,
2013-06-02 23:16:00,66.6,60.6,29.94,West,272,1.5,3.0,81,0.00,,,0.00,VWS V14.01,2013-06-03 03:16:00,
2013-06-02 23:17:00,66.6,60.6,29.94,West,261,3.0,3.0,81,0.00,,,0.00,VWS V14.01,2013-06-03 03:17:00,
2013-06-02 23:18:00,66.6,60.6,29.94,West,260,1.5,3.0,81,0.00,,,0.00,VWS V14.01,2013-06-03 03:18:00,
2013-06-02 23:19:00,66.6,60.6,29.94,West,260,1.5,3.0,81,0.00,,,0.00,VWS V14.01,2013-06-03 03:19:00,
2013-06-02 23:20:00,66.6,60.6,29.94,WSW,250,3.0,3.0,81,0.00,,,0.00,VWS V14.01,2013-06-03 03:20:00,
2013-06-02 23:21:00,66.5,60.5,29.94,WSW,253,3.0,4.5,81,0.00,,,0.00,VWS V14.01,2013-06-03 03:21:00,
2013-06-02 23:22:00,66.5,60.5,29.94,NNW,346,3.0,6.0,81,0.00,,,0.00,VWS V14.01,2013-06-03 03:22:00,
2013-06-02 23:23:00,66.5,60.5,29.94,NNW,346,1.5,6.0,81,0.00,,,0.00,VWS V14.01,2013-06-03 03:23:00,
2013-06-02 23:24:00,66.5,60.5,29.94,West,281,1.5,3.0,81,0.00,,,0.00,VWS V14.01,2013-06-03 03:24:00,
2013-06-02 23:25:00,66.5,60.8,29.94,West,280,3.0,3.0,82,0.00,,,0.00,VWS V14.01,2013-06-03 03:25:00,
2013-06-02 23:26:00,66.4,60.7,29.94,West,280,1.5,3.0,82,0.00,,,0.00,VWS V14.01,2013-06-03 03:26:00,
2013-06-02 23:27:00,66.4,60.7,29.94,West,269,3.0,4.5,82,0.00,,,0.00,VWS V14.01,2013-06-03 03:27:00,
2013-06-02 23:28:00,66.4,60.7,29.94,West,269,3.0,4.5,82,0.00,,,0.00,VWS V14.01,2013-06-03 03:28:00,
2013-06-02 23:29:00,66.4,60.7,29.93,West,269,1.5,3.0,82,0.00,,,0.00,VWS V14.01,2013-06-03 03:29:00,
2013-06-02 23:30:00,66.3,60.7,29.94,West,269,1.5,3.0,82,0.00,,,0.00,VWS V14.01,2013-06-03 03:30:00,
2013-06-02 23:31:00,66.3,60.7,29.94,West,267,3.0,3.0,82,0.00,,,0.00,VWS V14.01,2013-06-03 03:31:00,
2013-06-02 23:32:00,66.3,60.7,29.94,West,269,1.5,1.5,82,0.00,,,0.00,VWS V14.01,2013-06-03 03:32:00,
2013-06-02 23:33:00,66.3,60.7,29.94,West,269,1.5,1.5,82,0.00,,,0.00,VWS V14.01,2013-06-03 03:33:00,
2013-06-02 23:34:00,66.2,60.5,29.94,West,269,1.5,1.5,82,0.00,,,0.00,VWS V14.01,2013-06-03 03:34:00,
2013-06-02 23:35:00,66.2,60.5,29.94,West,269,1.5,1.5,82,0.00,,,0.00,VWS V14.01,2013-06-03 03:35:00,
2013-06-02 23:36:00,66.2,60.5,29.94,West,269,1.5,3.0,82,0.00,,,0.00,VWS V14.01,2013-06-03 03:36:00,
2013-06-02 23:37:00,66.1,60.5,29.94,West,269,1.5,1.5,82,0.00,,,0.00,VWS V14.01,2013-06-03 03:37:00,
2013-06-02 23:38:00,66.1,60.5,29.94,West,269,1.5,1.5,82,0.00,,,0.00,VWS V14.01,2013-06-03 03:38:00,
2013-06-02 23:39:00,66.1,60.5,29.94,West,268,1.5,3.0,82,0.00,,,0.00,VWS V14.01,2013-06-03 03:39:00,
2013-06-02 23:40:00,66.0,60.3,29.94,West,268,1.5,1.5,82,0.00,,,0.00,VWS V14.01,2013-06-03 03:40:00,
2013-06-02 23:41:00,66.0,60.7,29.94,West,267,1.5,3.0,83,0.00,,,0.00,VWS V14.01,2013-06-03 03:41:00,
2013-06-02 23:42:00,65.9,60.6,29.94,West,267,1.5,1.5,83,0.00,,,0.00,VWS V14.01,2013-06-03 03:42:00,
2013-06-02 23:43:00,65.9,60.6,29.94,West,267,1.5,1.5,83,0.00,,,0.00,VWS V14.01,2013-06-03 03:43:00,
2013-06-02 23:44:00,65.9,60.6,29.93,West,268,1.5,1.5,83,0.00,,,0.00,VWS V14.01,2013-06-03 03:44:00,
2013-06-02 23:45:00,65.8,60.5,29.93,West,268,1.5,1.5,83,0.00,,,0.00,VWS V14.01,2013-06-03 03:45:00,
2013-06-02 23:46:00,65.8,60.5,29.93,West,268,1.5,1.5,83,0.00,,,0.00,VWS V14.01,2013-06-03 03:46:00,
2013-06-02 23:47:00,65.7,60.4,29.93,West,267,1.5,1.5,83,0.00,,,0.00,VWS V14.01,2013-06-03 03:47:00,
2013-06-02 23:48:00,65.6,60.3,29.93,West,268,1.5,1.5,83,0.00,,,0.00,VWS V14.01,2013-06-03 03:48:00,
2013-06-02 23:49:00,65.5,60.2,29.93,West,268,1.5,1.5,83,0.00,,,0.00,VWS V14.01,2013-06-03 03:49:00,
2013-06-02 23:50:00,65.4,60.5,29.93,WNW,291,1.5,1.5,84,0.00,,,0.00,VWS V14.01,2013-06-03 03:50:00,
2013-06-02 23:51:00,65.4,60.5,29.93,WNW,291,1.5,1.5,84,0.00,,,0.00,VWS V14.01,2013-06-03 03:51:00,
2013-06-02 23:52:00,65.3,60.3,29.94,WNW,291,1.5,1.5,84,0.00,,,0.00,VWS V14.01,2013-06-03 03:52:00,
2013-06-02 23:53:00,65.2,60.2,29.94,WNW,291,1.5,1.5,84,0.00,,,0.00,VWS V14.01,2013-06-03 03:53:00,
2013-06-02 23:54:00,65.1,60.2,29.94,WNW,291,1.5,1.5,84,0.00,,,0.00,VWS V14.01,2013-06-03 03:54:00,
2013-06-02 23:55:00,65.1,60.2,29.94,WNW,291,1.5,1.5,84,0.00,,,0.00,VWS V14.01,2013-06-03 03:55:00,
2013-06-02 23:56:00,65.0,60.4,29.94,WNW,290,1.5,1.5,85,0.00,,,0.00,VWS V14.01,2013-06-03 03:56:00,
2013-06-02 23:57:00,64.9,60.3,29.94,WNW,291,1.5,1.5,85,0.00,,,0.00,VWS V14.01,2013-06-03 03:57:00,
2013-06-02 23:58:00,64.9,60.3,29.94,WNW,291,1.5,1.5,85,0.00,,,0.00,VWS V14.01,2013-06-03 03:58:00,
2013-06-02 23:59:00,64.9,60.3,29.94,WNW,291,1.5,1.5,85,0.00,,,0.00,VWS V14.01,2013-06-03 03:59:00,